Darstellungsparameter: Aktuell verwendete Einstellungen:
Skalierung der Graphiken ... ?
xyx+y,   Skalierungsfaktor:      Skalierung: Modus: x, Faktor: 1
Darstellungszeitraum ... ?
Vom - - bis: - -   Zeitraum: 25.07.2019 - 24.07.2020
Min/Max/Avg-Anzeige ... ?
Zeige MMA aktuell
Zeige MMA Monat
Zeige MMA alles
Zeige --A aktuell
Zeige --A Monat
Zeige --A alles
Keine MMA-Anzeige
MMA:
Average (ber die Originaldaten)
MMA-Basis: 23.02.2003 - 03.08.2020
Quicknavigation für Darstellung... ?
Tage:      1T, 2T, 3T, 5T -1T -2T -3T -5T +1T +2T +3T +5T
Wochen: 1W, 2W, 3W -1W -2W -3W +1W +2W +3W
Monate: 1M, 3M, 6M -1M -3M -6M +1M +3M +6M
Jahre:    1J, 3J, 5J, 10J -1J -3J -5J -10J +1J +3J +5J +10J
Nutze für die Darstellung ... ?
Originaldaten oder ...
Mittelwerte Minima Maxima auf...
Stundenbasis Tagesbasis Wochenbasis
Monatsbasis Jahresbasis      Datenbasis: Mittelwerte auf Stundenbasis
Darstellen als:
Statistik (Auto) Statistik J:M      Darstellung:
Zur Graphik,    zurück zur Übersicht aller Sensoren.
 
Tabellarische Datenbersicht: ?
 
Sensor: Nr:Datum:Temp:Abs-Feuchte:Windchill:Wind:
Aussen-T/F 1 25-07-2019 00:00:00 23.68333 C 13.48 g/m*3 23.68 C 0 km/h
2 25-07-2019 01:00:00 22.53333 C 13.32 g/m*3 22.53 C 0 km/h
3 25-07-2019 02:00:00 21.6 C 13.37 g/m*3 21.6 C 0 km/h
4 25-07-2019 03:00:00 20.89167 C 13.46 g/m*3 20.89 C 0 km/h
5 25-07-2019 04:00:00 20.075 C 13.5 g/m*3 20.08 C 0 km/h
6 25-07-2019 05:00:00 19.35833 C 13.31 g/m*3 19.36 C 0 km/h
7 25-07-2019 06:00:00 19.19167 C 13.56 g/m*3 19.19 C 0 km/h
8 25-07-2019 07:00:00 19.55833 C 14.12 g/m*3 19.56 C 0 km/h
9 25-07-2019 08:00:00 20.73333 C 14.93 g/m*3 20.73 C 0 km/h
10 25-07-2019 09:00:00 22.75833 C 15.59 g/m*3 22.76 C 0 km/h
11 25-07-2019 10:00:00 25.84167 C 16.09 g/m*3 25.84 C 0 km/h
12 25-07-2019 11:00:00 29.93333 C 16.11 g/m*3 29.93 C 1.73333 km/h
13 25-07-2019 12:00:00 34.525 C 13.66 g/m*3 34.53 C 8.06667 km/h
14 25-07-2019 13:00:00 36.46667 C 13.22 g/m*3 36.47 C 9.025 km/h
15 25-07-2019 14:00:00 37.425 C 12.92 g/m*3 37.42 C 7.76667 km/h
16 25-07-2019 15:00:00 38.79167 C 12.64 g/m*3 38.79 C 9 km/h
17 25-07-2019 16:00:00 40.15 C 12.17 g/m*3 40.15 C 11.95833 km/h
18 25-07-2019 17:00:00 39.80833 C 11.41 g/m*3 39.81 C 13.29167 km/h
19 25-07-2019 18:00:00 39.09167 C 11.46 g/m*3 39.09 C 10.1 km/h
20 25-07-2019 19:00:00 36.66667 C 14.4 g/m*3 36.67 C 1.88333 km/h
21 25-07-2019 20:00:00 32.81667 C 14.75 g/m*3 32.82 C 0 km/h
22 25-07-2019 21:00:00 30.34167 C 13.8 g/m*3 30.34 C 1.46667 km/h
23 25-07-2019 22:00:00 28.75833 C 13.39 g/m*3 28.76 C 1.06667 km/h
24 25-07-2019 23:00:00 27.56667 C 13.19 g/m*3 27.57 C 0.93333 km/h
25 26-07-2019 00:00:00 26.19167 C 13.14 g/m*3 26.19 C 0 km/h
Sensor: Nr:Datum:Temp:Abs-Feuchte:Windchill:Wind:
Aussen-T/F 26 26-07-2019 01:00:00 25 C 13.14 g/m*3 25 C 0 km/h
27 26-07-2019 02:00:00 22.51667 C 13.4 g/m*3 22.52 C 0 km/h
28 26-07-2019 03:00:00 20.99167 C 13.12 g/m*3 20.99 C 0 km/h
29 26-07-2019 04:00:00 20.125 C 13.33 g/m*3 20.13 C 0 km/h
30 26-07-2019 05:00:00 19.29167 C 13.1 g/m*3 19.29 C 0 km/h
31 26-07-2019 06:00:00 18.95833 C 13.06 g/m*3 18.96 C 0 km/h
32 26-07-2019 07:00:00 19.61667 C 13.94 g/m*3 19.62 C 0 km/h
33 26-07-2019 08:00:00 21.10833 C 14.75 g/m*3 21.11 C 0 km/h
34 26-07-2019 09:00:00 23.50833 C 14.65 g/m*3 23.51 C 1.06667 km/h
35 26-07-2019 10:00:00 28.225 C 13.63 g/m*3 28.23 C 6.70833 km/h
36 26-07-2019 11:00:00 32.05 C 13.14 g/m*3 32.05 C 4.4 km/h
37 26-07-2019 12:00:00 34.35 C 13.18 g/m*3 34.35 C 8.85833 km/h
38 26-07-2019 13:00:00 36.00833 C 12.88 g/m*3 36.01 C 9.55833 km/h
39 26-07-2019 14:00:00 37.35833 C 11.94 g/m*3 37.36 C 7.10833 km/h
40 26-07-2019 15:00:00 37.1 C 12.48 g/m*3 37.1 C 13.56667 km/h
41 26-07-2019 16:00:00 35.28333 C 13.64 g/m*3 35.28 C 5.775 km/h
42 26-07-2019 17:00:00 32.5 C 14.7 g/m*3 32.5 C 6.04167 km/h
43 26-07-2019 18:00:00 30.44167 C 14.13 g/m*3 30.44 C 9.525 km/h
44 26-07-2019 19:00:00 28.825 C 14.84 g/m*3 28.83 C 0.4 km/h
45 26-07-2019 20:00:00 27.525 C 15.3 g/m*3 27.53 C 0 km/h
46 26-07-2019 21:00:00 26.33333 C 14.72 g/m*3 26.33 C 0.4 km/h
47 26-07-2019 22:00:00 25.5 C 14.7 g/m*3 25.5 C 0.26667 km/h
48 26-07-2019 23:00:00 24.35833 C 14.82 g/m*3 24.36 C 0.26667 km/h
49 27-07-2019 00:00:00 23.15 C 14.56 g/m*3 23.15 C 0.53333 km/h
50 27-07-2019 01:00:00 22.63333 C 14.74 g/m*3 22.63 C 0 km/h
Sensor: Nr:Datum:Temp:Abs-Feuchte:Windchill:Wind:
Aussen-T/F 51 27-07-2019 02:00:00 22.33333 C 14.87 g/m*3 22.33 C 0 km/h
52 27-07-2019 03:00:00 22.59167 C 15.01 g/m*3 22.59 C 1.2 km/h
53 27-07-2019 04:00:00 20.9 C 15.74 g/m*3 20.9 C 0 km/h
54 27-07-2019 05:00:00 20.275 C 15.59 g/m*3 20.27 C 0 km/h
55 27-07-2019 06:00:00 20.525 C 15.79 g/m*3 20.53 C 0.26667 km/h
56 27-07-2019 07:00:00 21.25 C 16.39 g/m*3 21.25 C 0 km/h
57 27-07-2019 08:00:00 22.575 C 16.33 g/m*3 22.58 C 1.6 km/h
58 27-07-2019 09:00:00 24.725 C 16.66 g/m*3 24.73 C 3.6 km/h
59 27-07-2019 10:00:00 24.64167 C 18.42 g/m*3 24.64 C 2.55 km/h
60 27-07-2019 11:00:00 23.94167 C 18.78 g/m*3 23.94 C 0.53333 km/h
61 27-07-2019 12:00:00 23.75 C 17.91 g/m*3 23.75 C 2 km/h
62 27-07-2019 13:00:00 26 C 17.97 g/m*3 26 C 5.89167 km/h
63 27-07-2019 14:00:00 25.725 C 17.04 g/m*3 25.73 C 4.675 km/h
64 27-07-2019 15:00:00 25.04167 C 17.09 g/m*3 25.04 C 7.26667 km/h
65 27-07-2019 16:00:00 25.96667 C 16.65 g/m*3 25.97 C 11.56667 km/h
66 27-07-2019 17:00:00 24.49167 C 16.98 g/m*3 24.49 C 7.91667 km/h
67 27-07-2019 18:00:00 24.90833 C 17.35 g/m*3 24.91 C 6.28333 km/h
68 27-07-2019 19:00:00 23.84167 C 17.41 g/m*3 23.84 C 6.98333 km/h
69 27-07-2019 20:00:00 22.88333 C 17.34 g/m*3 22.88 C 5.74167 km/h
70 27-07-2019 21:00:00 22.075 C 16.7 g/m*3 22.08 C 6.975 km/h
71 27-07-2019 22:00:00 21.45 C 16.39 g/m*3 21.45 C 7.93333 km/h
72 27-07-2019 23:00:00 21.14167 C 16.39 g/m*3 21.14 C 3.21667 km/h
73 28-07-2019 00:00:00 20.83333 C 16.31 g/m*3 20.83 C 2.8 km/h
74 28-07-2019 01:00:00 20.70833 C 16.21 g/m*3 20.71 C 2.8 km/h
75 28-07-2019 02:00:00 20.7 C 16.2 g/m*3 20.7 C 1.73333 km/h
Sensor: Nr:Datum:Temp:Abs-Feuchte:Windchill:Wind:
Aussen-T/F 76 28-07-2019 03:00:00 20.68333 C 16.19 g/m*3 20.68 C 0.4 km/h
77 28-07-2019 04:00:00 20.60833 C 16.26 g/m*3 20.61 C 0.93333 km/h
78 28-07-2019 05:00:00 20.55 C 16.24 g/m*3 20.55 C 2.26667 km/h
79 28-07-2019 06:00:00 20.54167 C 16.23 g/m*3 20.54 C 2.13333 km/h
80 28-07-2019 07:00:00 20.69167 C 16.19 g/m*3 20.69 C 7.65 km/h
81 28-07-2019 08:00:00 20.71667 C 16.05 g/m*3 20.72 C 8.34167 km/h
82 28-07-2019 09:00:00 20.425 C 16 g/m*3 20.43 C 8.34167 km/h
83 28-07-2019 10:00:00 20.025 C 15.89 g/m*3 20.02 C 8.05833 km/h
84 28-07-2019 11:00:00 20.08333 C 15.95 g/m*3 20.08 C 5.89167 km/h
85 28-07-2019 12:00:00 20.50833 C 15.64 g/m*3 20.51 C 7.8 km/h
86 28-07-2019 13:00:00 20.30833 C 15.37 g/m*3 20.31 C 6.45 km/h
87 28-07-2019 14:00:00 19.98333 C 15.41 g/m*3 19.98 C 6.56667 km/h
88 28-07-2019 15:00:00 19.90833 C 15.16 g/m*3 19.91 C 7.79167 km/h
89 28-07-2019 16:00:00 19.81667 C 14.99 g/m*3 19.82 C 5.9 km/h
90 28-07-2019 17:00:00 19.45833 C 15.04 g/m*3 19.46 C 3.625 km/h
91 28-07-2019 18:00:00 19.175 C 14.89 g/m*3 19.18 C 3.475 km/h
92 28-07-2019 19:00:00 18.875 C 14.81 g/m*3 18.88 C 0.26667 km/h
93 28-07-2019 20:00:00 18.5 C 14.67 g/m*3 18.5 C 0 km/h
94 28-07-2019 21:00:00 18.175 C 14.56 g/m*3 18.18 C 0 km/h
95 28-07-2019 22:00:00 17.90833 C 14.47 g/m*3 17.91 C 0.4 km/h
96 28-07-2019 23:00:00 17.6 C 14.25 g/m*3 17.6 C 0 km/h
97 29-07-2019 00:00:00 17.325 C 14.02 g/m*3 17.33 C 0.13333 km/h
98 29-07-2019 01:00:00 17.10833 C 13.84 g/m*3 17.11 C 1.33333 km/h
99 29-07-2019 02:00:00 16.975 C 13.83 g/m*3 16.98 C 0 km/h
100 29-07-2019 03:00:00 16.84167 C 13.76 g/m*3 16.84 C 0 km/h
Sensor: Nr:Datum:Temp:Abs-Feuchte:Windchill:Wind:
Aussen-T/F 101 29-07-2019 04:00:00 16.80833 C 13.73 g/m*3 16.81 C 0 km/h
102 29-07-2019 05:00:00 16.74167 C 13.68 g/m*3 16.74 C 0 km/h
103 29-07-2019 06:00:00 16.725 C 13.66 g/m*3 16.73 C 0 km/h
104 29-07-2019 07:00:00 16.99167 C 13.85 g/m*3 16.99 C 2.13333 km/h
105 29-07-2019 08:00:00 17.46667 C 13.78 g/m*3 17.47 C 1.33333 km/h
106 29-07-2019 09:00:00 18.49167 C 13.65 g/m*3 18.49 C 6.04167 km/h
107 29-07-2019 10:00:00 19.39167 C 13.23 g/m*3 19.39 C 6.01667 km/h
108 29-07-2019 11:00:00 20.475 C 13.1 g/m*3 20.48 C 6.84167 km/h
109 29-07-2019 12:00:00 21.95 C 12.85 g/m*3 21.95 C 7.94167 km/h
110 29-07-2019 13:00:00 23.25 C 12.93 g/m*3 23.25 C 8.2 km/h
111 29-07-2019 14:00:00 24.41667 C 12.81 g/m*3 24.42 C 6.58333 km/h
112 29-07-2019 15:00:00 25.83333 C 12.4 g/m*3 25.83 C 10.88333 km/h
113 29-07-2019 16:00:00 27.6 C 12.17 g/m*3 27.6 C 7.79167 km/h
114 29-07-2019 17:00:00 28.23333 C 11.91 g/m*3 28.23 C 7.79167 km/h
115 29-07-2019 18:00:00 27.70833 C 11.64 g/m*3 27.71 C 4.94167 km/h
116 29-07-2019 19:00:00 28.1 C 11.85 g/m*3 28.1 C 6.29167 km/h
117 29-07-2019 20:00:00 26.33333 C 12.19 g/m*3 26.33 C 3.475 km/h
118 29-07-2019 21:00:00 23.05833 C 12.72 g/m*3 23.06 C 0 km/h
119 29-07-2019 22:00:00 20.75833 C 12.58 g/m*3 20.76 C 0 km/h
120 29-07-2019 23:00:00 19.34167 C 12.57 g/m*3 19.34 C 0 km/h
121 30-07-2019 00:00:00 17.95 C 12.42 g/m*3 17.95 C 0 km/h
122 30-07-2019 01:00:00 17.425 C 12.39 g/m*3 17.43 C 0 km/h
123 30-07-2019 02:00:00 16.6 C 12.08 g/m*3 16.6 C 0 km/h
124 30-07-2019 03:00:00 15.875 C 11.92 g/m*3 15.88 C 0 km/h
125 30-07-2019 04:00:00 15.4 C 11.84 g/m*3 15.4 C 0 km/h
Sensor: Nr:Datum:Temp:Abs-Feuchte:Windchill:Wind:
Aussen-T/F 126 30-07-2019 05:00:00 15.03333 C 11.76 g/m*3 15.03 C 0 km/h
127 30-07-2019 06:00:00 14.725 C 11.71 g/m*3 14.73 C 0 km/h
128 30-07-2019 07:00:00 14.93333 C 11.98 g/m*3 14.93 C 0 km/h
129 30-07-2019 08:00:00 15.88333 C 12.71 g/m*3 15.88 C 0 km/h
130 30-07-2019 09:00:00 17.4 C 13.61 g/m*3 17.4 C 0 km/h
131 30-07-2019 10:00:00 20.275 C 14.44 g/m*3 20.27 C 0 km/h
132 30-07-2019 11:00:00 24.96667 C 13.31 g/m*3 24.97 C 9.80833 km/h
133 30-07-2019 12:00:00 27.025 C 11.73 g/m*3 27.03 C 13.3 km/h
134 30-07-2019 13:00:00 28.24167 C 10.82 g/m*3 28.24 C 11.43333 km/h
135 30-07-2019 14:00:00 29.49167 C 11.11 g/m*3 29.49 C 13.43333 km/h
136 30-07-2019 15:00:00 30.69167 C 11.36 g/m*3 30.69 C 15.83333 km/h
137 30-07-2019 16:00:00 31.20833 C 11.08 g/m*3 31.21 C 16.5 km/h
138 30-07-2019 17:00:00 29.30833 C 11.05 g/m*3 29.31 C 17.56667 km/h
139 30-07-2019 18:00:00 26.625 C 10.27 g/m*3 26.63 C 12.48333 km/h
140 30-07-2019 19:00:00 24.55833 C 11.47 g/m*3 24.56 C 10.21667 km/h
141 30-07-2019 20:00:00 24.09167 C 12.06 g/m*3 24.09 C 6.16667 km/h
142 30-07-2019 21:00:00 23.675 C 12.12 g/m*3 23.68 C 0 km/h
143 30-07-2019 22:00:00 22.20833 C 12.33 g/m*3 22.21 C 0 km/h
144 30-07-2019 23:00:00 21.175 C 12.58 g/m*3 21.18 C 0 km/h
145 31-07-2019 00:00:00 20.55 C 12.46 g/m*3 20.55 C 0 km/h
146 31-07-2019 01:00:00 20.325 C 12.51 g/m*3 20.33 C 1.06667 km/h
147 31-07-2019 02:00:00 19.70833 C 12.18 g/m*3 19.71 C 0 km/h
148 31-07-2019 03:00:00 18.63333 C 11.97 g/m*3 18.63 C 0.26667 km/h
149 31-07-2019 04:00:00 18.575 C 12.24 g/m*3 18.58 C 0.93333 km/h
150 31-07-2019 05:00:00 17.83333 C 11.86 g/m*3 17.83 C 0 km/h
Sensor: Nr:Datum:Temp:Abs-Feuchte:Windchill:Wind:
Aussen-T/F 151 31-07-2019 06:00:00 17.64167 C 11.79 g/m*3 17.64 C 0 km/h
152 31-07-2019 07:00:00 17.375 C 11.83 g/m*3 17.38 C 0.26667 km/h
153 31-07-2019 08:00:00 18.44167 C 11.89 g/m*3 18.44 C 4.825 km/h
154 31-07-2019 09:00:00 20.01667 C 11.71 g/m*3 20.02 C 10.74167 km/h
155 31-07-2019 10:00:00 21.35833 C 10.99 g/m*3 21.36 C 13.16667 km/h
156 31-07-2019 11:00:00 21.60833 C 10.48 g/m*3 21.61 C 13.55833 km/h
157 31-07-2019 12:00:00 22.66667 C 10.25 g/m*3 22.67 C 16.63333 km/h
158 31-07-2019 13:00:00 23.69167 C 10.05 g/m*3 23.69 C 15.3 km/h
159 31-07-2019 14:00:00 24.76667 C 9.64 g/m*3 24.77 C 14.23333 km/h
160 31-07-2019 15:00:00 25.55 C 9.52 g/m*3 25.55 C 14.09167 km/h
161 31-07-2019 16:00:00 24.95833 C 9.72 g/m*3 24.96 C 13.7 km/h
162 31-07-2019 17:00:00 25.25 C 10.02 g/m*3 25.25 C 14.23333 km/h
163 31-07-2019 18:00:00 23.875 C 10.17 g/m*3 23.88 C 8.06667 km/h
164 31-07-2019 19:00:00 23.49167 C 10.25 g/m*3 23.49 C 6.975 km/h
165 31-07-2019 20:00:00 22.09167 C 10.88 g/m*3 22.09 C 1.46667 km/h
166 31-07-2019 21:00:00 19.925 C 10.27 g/m*3 19.93 C 0 km/h
167 31-07-2019 22:00:00 18.68333 C 9.76 g/m*3 18.68 C 0.4 km/h
168 31-07-2019 23:00:00 18.45 C 9.95 g/m*3 18.45 C 0.4 km/h
169 01-08-2019 00:00:00 16.88333 C 10.09 g/m*3 16.88 C 0.4 km/h
170 01-08-2019 01:00:00 15.525 C 9.93 g/m*3 15.53 C 0.13333 km/h
171 01-08-2019 02:00:00 14.73333 C 9.96 g/m*3 14.73 C 0.4 km/h
172 01-08-2019 03:00:00 14.15833 C 9.87 g/m*3 14.16 C 0.26667 km/h
173 01-08-2019 04:00:00 12.95833 C 9.61 g/m*3 12.96 C 0.66667 km/h
174 01-08-2019 05:00:00 12.625 C 9.62 g/m*3 12.63 C 0.4 km/h
175 01-08-2019 06:00:00 12.125 C 9.51 g/m*3 12.13 C 0 km/h
Sensor: Nr:Datum:Temp:Abs-Feuchte:Windchill:Wind:
Aussen-T/F 176 01-08-2019 07:00:00 12.55833 C 9.84 g/m*3 12.56 C 0.4 km/h
177 01-08-2019 08:00:00 15.175 C 10.56 g/m*3 15.18 C 0.93333 km/h
178 01-08-2019 09:00:00 17.56667 C 11.01 g/m*3 17.57 C 5.075 km/h
179 01-08-2019 10:00:00 20.3 C 10.98 g/m*3 20.3 C 10.5 km/h
180 01-08-2019 11:00:00 21.775 C 10.68 g/m*3 21.78 C 11.825 km/h
181 01-08-2019 12:00:00 22.45 C 10.66 g/m*3 22.45 C 9.275 km/h
182 01-08-2019 13:00:00 23.16667 C 11 g/m*3 23.17 C 6.43333 km/h
183 01-08-2019 14:00:00 24.15 C 10.84 g/m*3 24.15 C 8.60833 km/h
184 01-08-2019 15:00:00 24.575 C 10.99 g/m*3 24.58 C 8.45833 km/h
185 01-08-2019 16:00:00 24.4 C 11.13 g/m*3 24.4 C 7.375 km/h
186 01-08-2019 17:00:00 25.13333 C 11.06 g/m*3 25.13 C 6.28333 km/h
187 01-08-2019 18:00:00 26.35 C 11.11 g/m*3 26.35 C 7.53333 km/h
188 01-08-2019 19:00:00 26.26667 C 11.16 g/m*3 26.27 C 6.025 km/h
189 01-08-2019 20:00:00 24.10833 C 11.78 g/m*3 24.11 C 2.53333 km/h
190 01-08-2019 21:00:00 21.15 C 11.58 g/m*3 21.15 C 0 km/h
191 01-08-2019 22:00:00 19.76667 C 11.54 g/m*3 19.77 C 0 km/h
192 01-08-2019 23:00:00 19.24167 C 11.5 g/m*3 19.24 C 0 km/h
193 02-08-2019 00:00:00 18.81667 C 11.81 g/m*3 18.82 C 0 km/h
194 02-08-2019 01:00:00 18.34167 C 11.86 g/m*3 18.34 C 0 km/h
195 02-08-2019 02:00:00 17.86667 C 11.71 g/m*3 17.87 C 0 km/h
196 02-08-2019 03:00:00 16.94167 C 11.49 g/m*3 16.94 C 0 km/h
197 02-08-2019 04:00:00 16.31667 C 11.46 g/m*3 16.32 C 0 km/h
198 02-08-2019 05:00:00 16.2 C 11.54 g/m*3 16.2 C 0 km/h
199 02-08-2019 06:00:00 16.25 C 11.76 g/m*3 16.25 C 0 km/h
200 02-08-2019 07:00:00 16.925 C 12.17 g/m*3 16.93 C 0 km/h
Sensor: Nr:Datum:Temp:Abs-Feuchte:Windchill:Wind:
Aussen-T/F 201 02-08-2019 08:00:00 17.93333 C 12.6 g/m*3 17.93 C 0 km/h
202 02-08-2019 09:00:00 19.35 C 12.96 g/m*3 19.35 C 0 km/h
203 02-08-2019 10:00:00 20.71667 C 13 g/m*3 20.72 C 0 km/h
204 02-08-2019 11:00:00 22.16667 C 12.7 g/m*3 22.17 C 4.96667 km/h
205 02-08-2019 12:00:00 21.275 C 14.05 g/m*3 21.28 C 4.03333 km/h
206 02-08-2019 13:00:00 21.125 C 13.15 g/m*3 21.13 C 2.94167 km/h
207 02-08-2019 14:00:00 23.16667 C 12.81 g/m*3 23.17 C 5.625 km/h
208 02-08-2019 15:00:00 24.58333 C 12.67 g/m*3 24.58 C 7.38333 km/h
209 02-08-2019 16:00:00 25.59167 C 12.16 g/m*3 25.59 C 5.24167 km/h
210 02-08-2019 17:00:00 26.725 C 11.66 g/m*3 26.73 C 7.925 km/h
211 02-08-2019 18:00:00 25.00833 C 12.3 g/m*3 25.01 C 11.95833 km/h
212 02-08-2019 19:00:00 23.7 C 11.73 g/m*3 23.7 C 8.45833 km/h
213 02-08-2019 20:00:00 22.45833 C 12.04 g/m*3 22.46 C 1.6 km/h
214 02-08-2019 21:00:00 21.275 C 11.83 g/m*3 21.28 C 4.425 km/h
215 02-08-2019 22:00:00 20.95 C 11.93 g/m*3 20.95 C 9.80833 km/h
216 02-08-2019 23:00:00 18.975 C 12.83 g/m*3 18.98 C 4.96667 km/h
217 03-08-2019 00:00:00 17.75833 C 12.77 g/m*3 17.76 C 5.91667 km/h
218 03-08-2019 01:00:00 18.28333 C 12.89 g/m*3 18.28 C 10.89167 km/h
219 03-08-2019 02:00:00 18.24167 C 13.15 g/m*3 18.24 C 11.29167 km/h
220 03-08-2019 03:00:00 18.2 C 13.32 g/m*3 18.2 C 8.05833 km/h
221 03-08-2019 04:00:00 18.15 C 13.47 g/m*3 18.15 C 7.225 km/h
222 03-08-2019 05:00:00 18.14167 C 13.48 g/m*3 18.14 C 6.31667 km/h
223 03-08-2019 06:00:00 17.89167 C 13.32 g/m*3 17.89 C 5.75833 km/h
224 03-08-2019 07:00:00 17.84167 C 13.03 g/m*3 17.84 C 6.84167 km/h
225 03-08-2019 08:00:00 17.95 C 12.94 g/m*3 17.95 C 8.60833 km/h
Sensor: Nr:Datum:Temp:Abs-Feuchte:Windchill:Wind:
Aussen-T/F 226 03-08-2019 09:00:00 18.6 C 12.61 g/m*3 18.6 C 11.96667 km/h
227 03-08-2019 10:00:00 19.61667 C 12.76 g/m*3 19.62 C 11.3 km/h
228 03-08-2019 11:00:00 20.35833 C 12.91 g/m*3 20.36 C 11.16667 km/h
229 03-08-2019 12:00:00 21.55833 C 12.66 g/m*3 21.56 C 10.76667 km/h
230 03-08-2019 13:00:00 22.05 C 12.91 g/m*3 22.05 C 11.00833 km/h
231 03-08-2019 14:00:00 22.20833 C 12.93 g/m*3 22.21 C 10.49167 km/h
232 03-08-2019 15:00:00 23.80833 C 12.48 g/m*3 23.81 C 12.35833 km/h
233 03-08-2019 16:00:00 25.16667 C 12.35 g/m*3 25.17 C 12.36667 km/h
234 03-08-2019 17:00:00 25.49167 C 12.07 g/m*3 25.49 C 12.63333 km/h
235 03-08-2019 18:00:00 25.46667 C 12.05 g/m*3 25.47 C 11.825 km/h
236 03-08-2019 19:00:00 24.30833 C 12.07 g/m*3 24.31 C 11.15833 km/h
237 03-08-2019 20:00:00 22.61667 C 12.03 g/m*3 22.62 C 7.39167 km/h
238 03-08-2019 21:00:00 20.55833 C 11.74 g/m*3 20.56 C 3.875 km/h
239 03-08-2019 22:00:00 18.10833 C 11.47 g/m*3 18.11 C 0.13333 km/h
240 03-08-2019 23:00:00 17.05 C 11.51 g/m*3 17.05 C 0 km/h
241 04-08-2019 00:00:00 16.225 C 11.3 g/m*3 16.23 C 0 km/h
242 04-08-2019 01:00:00 15.125 C 11.05 g/m*3 15.13 C 0 km/h
243 04-08-2019 02:00:00 14 C 10.71 g/m*3 14 C 0 km/h
244 04-08-2019 03:00:00 13.3 C 10.5 g/m*3 13.3 C 0 km/h
245 04-08-2019 04:00:00 12.88333 C 10.37 g/m*3 12.88 C 0 km/h
246 04-08-2019 05:00:00 12.49167 C 10.22 g/m*3 12.49 C 0 km/h
247 04-08-2019 06:00:00 12.34167 C 10.22 g/m*3 12.34 C 0 km/h
248 04-08-2019 07:00:00 12.725 C 10.53 g/m*3 12.73 C 0 km/h
249 04-08-2019 08:00:00 13.73333 C 11.27 g/m*3 13.73 C 0 km/h
250 04-08-2019 09:00:00 15.34167 C 12.19 g/m*3 15.34 C 0.66667 km/h
Sensor: Nr:Datum:Temp:Abs-Feuchte:Windchill:Wind:
Aussen-T/F 251 04-08-2019 10:00:00 18.10833 C 12.88 g/m*3 18.11 C 3.33333 km/h
252 04-08-2019 11:00:00 21.31667 C 12.59 g/m*3 21.32 C 5.34167 km/h
253 04-08-2019 12:00:00 23.3 C 12.44 g/m*3 23.3 C 7.23333 km/h
254 04-08-2019 13:00:00 24.75 C 12.18 g/m*3 24.75 C 6.01667 km/h
255 04-08-2019 14:00:00 25.86667 C 11.74 g/m*3 25.87 C 6.7 km/h
256 04-08-2019 15:00:00 28.225 C 11.2 g/m*3 28.23 C 8.45833 km/h
257 04-08-2019 16:00:00 30.03333 C 10.48 g/m*3 30.03 C 9.4 km/h
258 04-08-2019 17:00:00 30.95833 C 10.24 g/m*3 30.96 C 8.45833 km/h
259 04-08-2019 18:00:00 30.79167 C 10.68 g/m*3 30.79 C 7.25 km/h
260 04-08-2019 19:00:00 28.75833 C 11.81 g/m*3 28.76 C 2.00833 km/h
261 04-08-2019 20:00:00 25.78333 C 12.49 g/m*3 25.78 C 0 km/h
262 04-08-2019 21:00:00 22.51667 C 12.06 g/m*3 22.52 C 0.26667 km/h
263 04-08-2019 22:00:00 21.95833 C 12.33 g/m*3 21.96 C 1.06667 km/h
264 04-08-2019 23:00:00 22.39167 C 12.16 g/m*3 22.39 C 2.53333 km/h
265 05-08-2019 00:00:00 22.875 C 11.8 g/m*3 22.88 C 1.46667 km/h
266 05-08-2019 01:00:00 21.65833 C 11.88 g/m*3 21.66 C 0 km/h
267 05-08-2019 02:00:00 20.28333 C 11.74 g/m*3 20.28 C 0 km/h
268 05-08-2019 03:00:00 19.6 C 11.76 g/m*3 19.6 C 0.26667 km/h
269 05-08-2019 04:00:00 19.31667 C 12.58 g/m*3 19.32 C 0 km/h
270 05-08-2019 05:00:00 19.325 C 12.96 g/m*3 19.33 C 1.74167 km/h
271 05-08-2019 06:00:00 18.28333 C 13.64 g/m*3 18.28 C 1.06667 km/h
272 05-08-2019 07:00:00 17.53333 C 13.79 g/m*3 17.53 C 1.46667 km/h
273 05-08-2019 08:00:00 17.64167 C 14.21 g/m*3 17.64 C 0.53333 km/h
274 05-08-2019 09:00:00 18.75 C 15.24 g/m*3 18.75 C 0.66667 km/h
275 05-08-2019 10:00:00 20.08333 C 16.08 g/m*3 20.08 C 1.06667 km/h
Sensor: Nr:Datum:Temp:Abs-Feuchte:Windchill:Wind:
Aussen-T/F 276 05-08-2019 11:00:00 21.99167 C 16.31 g/m*3 21.99 C 1.86667 km/h
277 05-08-2019 12:00:00 24.25 C 15.17 g/m*3 24.25 C 12.89167 km/h
278 05-08-2019 13:00:00 26 C 14.55 g/m*3 26 C 12.5 km/h
279 05-08-2019 14:00:00 27.11667 C 14.16 g/m*3 27.12 C 11.56667 km/h
280 05-08-2019 15:00:00 28.375 C 12.91 g/m*3 28.38 C 10.9 km/h
281 05-08-2019 16:00:00 28.875 C 11.79 g/m*3 28.88 C 12.23333 km/h
282 05-08-2019 17:00:00 28.225 C 11.59 g/m*3 28.23 C 11.43333 km/h
283 05-08-2019 18:00:00 27.7 C 11.28 g/m*3 27.7 C 9.15833 km/h
284 05-08-2019 19:00:00 26.7 C 11.75 g/m*3 26.7 C 5.89167 km/h
285 05-08-2019 20:00:00 25.1 C 12.4 g/m*3 25.1 C 1.6 km/h
286 05-08-2019 21:00:00 22.075 C 11.92 g/m*3 22.08 C 0 km/h
287 05-08-2019 22:00:00 20.53333 C 12.36 g/m*3 20.53 C 0 km/h
288 05-08-2019 23:00:00 19.28333 C 12.26 g/m*3 19.28 C 0 km/h
289 06-08-2019 00:00:00 18.00833 C 12.02 g/m*3 18.01 C 0 km/h
290 06-08-2019 01:00:00 17.10833 C 11.86 g/m*3 17.11 C 0 km/h
291 06-08-2019 02:00:00 17.00833 C 12 g/m*3 17.01 C 0 km/h
292 06-08-2019 03:00:00 17.45833 C 12.36 g/m*3 17.46 C 0.8 km/h
293 06-08-2019 04:00:00 17.20833 C 12.28 g/m*3 17.21 C 0.26667 km/h
294 06-08-2019 05:00:00 16.60833 C 12.11 g/m*3 16.61 C 0.13333 km/h
295 06-08-2019 06:00:00 16.66667 C 12.28 g/m*3 16.67 C 0.13333 km/h
296 06-08-2019 07:00:00 17.83333 C 12.66 g/m*3 17.83 C 2.40833 km/h
297 06-08-2019 08:00:00 18.675 C 12.96 g/m*3 18.68 C 3.475 km/h
298 06-08-2019 09:00:00 20.1 C 13.3 g/m*3 20.1 C 6.29167 km/h
299 06-08-2019 10:00:00 19.91667 C 14.4 g/m*3 19.92 C 2.14167 km/h
300 06-08-2019 11:00:00 19.65 C 15.1 g/m*3 19.65 C 0.8 km/h
Sensor: Nr:Datum:Temp:Abs-Feuchte:Windchill:Wind:
Aussen-T/F 301 06-08-2019 12:00:00 21.31667 C 15.35 g/m*3 21.32 C 4.40833 km/h
302 06-08-2019 13:00:00 22.325 C 15.31 g/m*3 22.33 C 7.66667 km/h
303 06-08-2019 14:00:00 23.61667 C 14.87 g/m*3 23.62 C 13.43333 km/h
304 06-08-2019 15:00:00 24.725 C 14.68 g/m*3 24.73 C 11.825 km/h
305 06-08-2019 16:00:00 25.39167 C 14.57 g/m*3 25.39 C 10.63333 km/h
306 06-08-2019 17:00:00 26.4 C 14.31 g/m*3 26.4 C 10.09167 km/h
307 06-08-2019 18:00:00 25.20833 C 14.4 g/m*3 25.21 C 4.84167 km/h
308 06-08-2019 19:00:00 22.54167 C 15.37 g/m*3 22.54 C 6.16667 km/h
309 06-08-2019 20:00:00 19.05 C 14.78 g/m*3 19.05 C 0.13333 km/h
310 06-08-2019 21:00:00 18.00833 C 14.32 g/m*3 18.01 C 0.53333 km/h
311 06-08-2019 22:00:00 17.51667 C 14.03 g/m*3 17.52 C 0.13333 km/h
312 06-08-2019 23:00:00 17.08333 C 13.8 g/m*3 17.08 C 1.075 km/h
313 07-08-2019 00:00:00 16.68333 C 13.49 g/m*3 16.68 C 0.13333 km/h
314 07-08-2019 01:00:00 16.3 C 13.25 g/m*3 16.3 C 0 km/h
315 07-08-2019 02:00:00 16.45833 C 13.45 g/m*3 16.46 C 1.2 km/h
316 07-08-2019 03:00:00 16.58333 C 13.58 g/m*3 16.58 C 0 km/h
317 07-08-2019 04:00:00 16.63333 C 13.73 g/m*3 16.63 C 0 km/h
318 07-08-2019 05:00:00 16.66667 C 13.76 g/m*3 16.67 C 0 km/h
319 07-08-2019 06:00:00 16.875 C 13.93 g/m*3 16.88 C 0.13333 km/h
320 07-08-2019 07:00:00 17.25 C 14.25 g/m*3 17.25 C 0.26667 km/h
321 07-08-2019 08:00:00 17.75833 C 14.69 g/m*3 17.76 C 0.66667 km/h
322 07-08-2019 09:00:00 18.25 C 15.12 g/m*3 18.25 C 4.15 km/h
323 07-08-2019 10:00:00 18.96667 C 15.68 g/m*3 18.97 C 1.6 km/h
324 07-08-2019 11:00:00 19.725 C 15.83 g/m*3 19.73 C 2.275 km/h
325 07-08-2019 12:00:00 20.83333 C 15.33 g/m*3 20.83 C 3.88333 km/h
Sensor: Nr:Datum:Temp:Abs-Feuchte:Windchill:Wind:
Aussen-T/F 326 07-08-2019 13:00:00 21.85833 C 14.69 g/m*3 21.86 C 5.76667 km/h
327 07-08-2019 14:00:00 22.525 C 15.07 g/m*3 22.53 C 7.375 km/h
328 07-08-2019 15:00:00 22.59167 C 14.64 g/m*3 22.59 C 10.48333 km/h
329 07-08-2019 16:00:00 22.08333 C 14.2 g/m*3 22.08 C 9.7 km/h
330 07-08-2019 17:00:00 22.53333 C 14.26 g/m*3 22.53 C 8.35 km/h
331 07-08-2019 18:00:00 23.35833 C 14.35 g/m*3 23.36 C 8.75 km/h
332 07-08-2019 19:00:00 22.38333 C 14.63 g/m*3 22.38 C 4.03333 km/h
333 07-08-2019 20:00:00 20.05833 C 14.48 g/m*3 20.06 C 2.55 km/h
334 07-08-2019 21:00:00 18.05 C 13.36 g/m*3 18.05 C 0.8 km/h
335 07-08-2019 22:00:00 16.74167 C 12.79 g/m*3 16.74 C 0.53333 km/h
336 07-08-2019 23:00:00 16.64167 C 12.63 g/m*3 16.64 C 1.06667 km/h
337 08-08-2019 00:00:00 15.76667 C 12.28 g/m*3 15.77 C 1.88333 km/h
338 08-08-2019 01:00:00 16.35 C 12.8 g/m*3 16.35 C 1.6 km/h
339 08-08-2019 02:00:00 16.45 C 12.88 g/m*3 16.45 C 0.66667 km/h
340 08-08-2019 03:00:00 16.44167 C 12.86 g/m*3 16.44 C 2.00833 km/h
341 08-08-2019 04:00:00 16.06667 C 12.68 g/m*3 16.07 C 0.13333 km/h
342 08-08-2019 05:00:00 15.31667 C 12.19 g/m*3 15.32 C 0.53333 km/h
343 08-08-2019 06:00:00 15.7 C 12.58 g/m*3 15.7 C 4.40833 km/h
344 08-08-2019 07:00:00 15.95 C 12.71 g/m*3 15.95 C 1.73333 km/h
345 08-08-2019 08:00:00 17.05833 C 13.24 g/m*3 17.06 C 8.75833 km/h
346 08-08-2019 09:00:00 18.55833 C 13.35 g/m*3 18.56 C 8.20833 km/h
347 08-08-2019 10:00:00 20.05833 C 12.66 g/m*3 20.06 C 11.29167 km/h
348 08-08-2019 11:00:00 21.74167 C 12.57 g/m*3 21.74 C 11.825 km/h
349 08-08-2019 12:00:00 22.99167 C 12.57 g/m*3 22.99 C 15.56667 km/h
350 08-08-2019 13:00:00 24.025 C 12.51 g/m*3 24.03 C 11.95833 km/h
Sensor: Nr:Datum:Temp:Abs-Feuchte:Windchill:Wind:
Aussen-T/F 351 08-08-2019 14:00:00 24.20833 C 12.62 g/m*3 24.21 C 10.1 km/h
352 08-08-2019 15:00:00 24.51667 C 12.81 g/m*3 24.52 C 7.51667 km/h
353 08-08-2019 16:00:00 26.58333 C 12.93 g/m*3 26.58 C 12.1 km/h
354 08-08-2019 17:00:00 27.18333 C 12.52 g/m*3 27.18 C 11.15833 km/h
355 08-08-2019 18:00:00 27.46667 C 12.5 g/m*3 27.47 C 8.875 km/h
356 08-08-2019 19:00:00 25.43333 C 14.64 g/m*3 25.43 C 0.94167 km/h
357 08-08-2019 20:00:00 23.575 C 14.35 g/m*3 23.58 C 0 km/h
358 08-08-2019 21:00:00 20.625 C 13.7 g/m*3 20.63 C 0 km/h
359 08-08-2019 22:00:00 19.15833 C 13.68 g/m*3 19.16 C 0 km/h
360 08-08-2019 23:00:00 18.16667 C 13.57 g/m*3 18.17 C 0 km/h
361 09-08-2019 00:00:00 17.15833 C 13.06 g/m*3 17.16 C 0 km/h
362 09-08-2019 01:00:00 16.25833 C 12.63 g/m*3 16.26 C 0 km/h
363 09-08-2019 02:00:00 15.875 C 12.44 g/m*3 15.88 C 0 km/h
364 09-08-2019 03:00:00 15.21667 C 12.05 g/m*3 15.22 C 0 km/h
365 09-08-2019 04:00:00 14.725 C 11.81 g/m*3 14.73 C 0 km/h
366 09-08-2019 05:00:00 14.44167 C 11.66 g/m*3 14.44 C 0 km/h
367 09-08-2019 06:00:00 14.56667 C 11.86 g/m*3 14.57 C 0 km/h
368 09-08-2019 07:00:00 15.40833 C 12.53 g/m*3 15.41 C 0 km/h
369 09-08-2019 08:00:00 16.44167 C 13.04 g/m*3 16.44 C 0.53333 km/h
370 09-08-2019 09:00:00 18.26667 C 13.71 g/m*3 18.27 C 0 km/h
371 09-08-2019 10:00:00 20.60833 C 14.46 g/m*3 20.61 C 0 km/h
372 09-08-2019 11:00:00 23.8 C 15.4 g/m*3 23.8 C 0.26667 km/h
373 09-08-2019 12:00:00 25.26667 C 15.38 g/m*3 25.27 C 0.26667 km/h
374 09-08-2019 13:00:00 25.275 C 15.53 g/m*3 25.28 C 0.13333 km/h
375 09-08-2019 14:00:00 24.75 C 17.55 g/m*3 24.75 C 0 km/h
Sensor: Nr:Datum:Temp:Abs-Feuchte:Windchill:Wind:
Aussen-T/F 376 09-08-2019 15:00:00 24.43333 C 18.3 g/m*3 24.43 C 0.26667 km/h
377 09-08-2019 16:00:00 27.25 C 18.24 g/m*3 27.25 C 4.55833 km/h
378 09-08-2019 17:00:00 25.45 C 19.24 g/m*3 25.45 C 0.8 km/h
379 09-08-2019 18:00:00 22.78333 C 18.05 g/m*3 22.78 C 1.33333 km/h
380 09-08-2019 19:00:00 21.5 C 17.55 g/m*3 21.5 C 8.59167 km/h
381 09-08-2019 20:00:00 19.63333 C 15.91 g/m*3 19.63 C 0.93333 km/h
382 09-08-2019 21:00:00 19.31667 C 15.86 g/m*3 19.32 C 0.93333 km/h
383 09-08-2019 22:00:00 19.30833 C 15.93 g/m*3 19.31 C 0.26667 km/h
384 09-08-2019 23:00:00 18.86667 C 15.52 g/m*3 18.87 C 0.13333 km/h
385 10-08-2019 00:00:00 18.775 C 15.53 g/m*3 18.77 C 0.26667 km/h
386 10-08-2019 01:00:00 18.73333 C 15.55 g/m*3 18.73 C 0 km/h
387 10-08-2019 02:00:00 18.50833 C 15.35 g/m*3 18.51 C 0 km/h
388 10-08-2019 03:00:00 18.29167 C 15.16 g/m*3 18.29 C 0.4 km/h
389 10-08-2019 04:00:00 18.11667 C 15 g/m*3 18.12 C 0 km/h
390 10-08-2019 05:00:00 17.53333 C 14.49 g/m*3 17.53 C 0 km/h
391 10-08-2019 06:00:00 17.45 C 14.42 g/m*3 17.45 C 0 km/h
392 10-08-2019 07:00:00 17.33333 C 14.32 g/m*3 17.33 C 4.96667 km/h
393 10-08-2019 08:00:00 17.41667 C 14.11 g/m*3 17.42 C 11.01667 km/h
394 10-08-2019 09:00:00 19.125 C 14.12 g/m*3 19.13 C 14.76667 km/h
395 10-08-2019 10:00:00 20.36667 C 14.04 g/m*3 20.37 C 14.36667 km/h
396 10-08-2019 11:00:00 21.43333 C 13.96 g/m*3 21.43 C 13.7 km/h
397 10-08-2019 12:00:00 22.38333 C 13.69 g/m*3 22.38 C 16.23333 km/h
398 10-08-2019 13:00:00 23.26667 C 13.23 g/m*3 23.27 C 16.76667 km/h
399 10-08-2019 14:00:00 23.83333 C 13.09 g/m*3 23.83 C 17.43333 km/h
400 10-08-2019 15:00:00 24.99167 C 12.75 g/m*3 24.99 C 17.43333 km/h
Sensor: Nr:Datum:Temp:Abs-Feuchte:Windchill:Wind:
Aussen-T/F 401 10-08-2019 16:00:00 25.24167 C 12.48 g/m*3 25.24 C 15.29167 km/h
402 10-08-2019 17:00:00 26.29167 C 12.19 g/m*3 26.29 C 15.3 km/h
403 10-08-2019 18:00:00 25.99167 C 11.94 g/m*3 25.99 C 13.43333 km/h
404 10-08-2019 19:00:00 25.00833 C 11.44 g/m*3 25.01 C 10.89167 km/h
405 10-08-2019 20:00:00 22.63333 C 12.33 g/m*3 22.63 C 2.275 km/h
406 10-08-2019 21:00:00 19.41667 C 12.14 g/m*3 19.42 C 0.26667 km/h
407 10-08-2019 22:00:00 17.71667 C 11.89 g/m*3 17.72 C 0 km/h
408 10-08-2019 23:00:00 16.45833 C 11.49 g/m*3 16.46 C 0.13333 km/h
409 11-08-2019 00:00:00 15.75833 C 11.39 g/m*3 15.76 C 0 km/h
410 11-08-2019 01:00:00 15.375 C 11.46 g/m*3 15.38 C 0 km/h
411 11-08-2019 02:00:00 15.7 C 11.57 g/m*3 15.7 C 0 km/h
412 11-08-2019 03:00:00 15.20833 C 11.23 g/m*3 15.21 C 0 km/h
413 11-08-2019 04:00:00 14.43333 C 10.94 g/m*3 14.43 C 0 km/h
414 11-08-2019 05:00:00 13.58333 C 10.6 g/m*3 13.58 C 0 km/h
415 11-08-2019 06:00:00 13.40833 C 10.78 g/m*3 13.41 C 0.26667 km/h
416 11-08-2019 07:00:00 14.04167 C 11.16 g/m*3 14.04 C 0 km/h
417 11-08-2019 08:00:00 14.9 C 11.64 g/m*3 14.9 C 0 km/h
418 11-08-2019 09:00:00 16.21667 C 12.02 g/m*3 16.22 C 0.53333 km/h
419 11-08-2019 10:00:00 19.375 C 11.62 g/m*3 19.38 C 9.00833 km/h
420 11-08-2019 11:00:00 21.26667 C 11.02 g/m*3 21.27 C 11.825 km/h
421 11-08-2019 12:00:00 22.09167 C 10.89 g/m*3 22.09 C 10.75833 km/h
422 11-08-2019 13:00:00 22.775 C 10.37 g/m*3 22.78 C 14.5 km/h
423 11-08-2019 14:00:00 22.89167 C 10.74 g/m*3 22.89 C 9.14167 km/h
424 11-08-2019 15:00:00 21.50833 C 11.57 g/m*3 21.51 C 3.2 km/h
425 11-08-2019 16:00:00 20.05 C 12.13 g/m*3 20.05 C 3.34167 km/h
Sensor: Nr:Datum:Temp:Abs-Feuchte:Windchill:Wind:
Aussen-T/F 426 11-08-2019 17:00:00 17.18333 C 12.7 g/m*3 17.18 C 2.26667 km/h
427 11-08-2019 18:00:00 16.475 C 12.68 g/m*3 16.48 C 1.73333 km/h
428 11-08-2019 19:00:00 16.075 C 12.27 g/m*3 16.08 C 1.06667 km/h
429 11-08-2019 20:00:00 15.775 C 12.23 g/m*3 15.78 C 0.26667 km/h
430 11-08-2019 21:00:00 15.23333 C 11.93 g/m*3 15.23 C 0.8 km/h
431 11-08-2019 22:00:00 14.3 C 11.28 g/m*3 14.3 C 0.66667 km/h
432 11-08-2019 23:00:00 14.24167 C 11.43 g/m*3 14.24 C 1.46667 km/h
433 12-08-2019 00:00:00 14.85833 C 11.77 g/m*3 14.86 C 2.4 km/h
434 12-08-2019 01:00:00 14.325 C 11.33 g/m*3 14.33 C 1.33333 km/h
435 12-08-2019 02:00:00 13.66667 C 11.04 g/m*3 13.67 C 0.26667 km/h
436 12-08-2019 03:00:00 13.125 C 10.74 g/m*3 13.13 C 0 km/h
437 12-08-2019 04:00:00 12.89167 C 10.7 g/m*3 12.89 C 0 km/h
438 12-08-2019 05:00:00 12.675 C 10.56 g/m*3 12.68 C 0 km/h
439 12-08-2019 06:00:00 12.69167 C 10.63 g/m*3 12.69 C 0 km/h
440 12-08-2019 07:00:00 13.05833 C 10.93 g/m*3 13.06 C 0 km/h
441 12-08-2019 08:00:00 13.5 C 11.23 g/m*3 13.5 C 0 km/h
442 12-08-2019 09:00:00 15.05 C 11.91 g/m*3 15.05 C 3.075 km/h
443 12-08-2019 10:00:00 17.65 C 12.41 g/m*3 17.65 C 6.58333 km/h
444 12-08-2019 11:00:00 20.08333 C 12.61 g/m*3 20.08 C 7.525 km/h
445 12-08-2019 12:00:00 21.275 C 12.22 g/m*3 21.28 C 8.60833 km/h
446 12-08-2019 13:00:00 21.775 C 11.64 g/m*3 21.78 C 10.89167 km/h
447 12-08-2019 14:00:00 22.55 C 12.07 g/m*3 22.55 C 11.3 km/h
448 12-08-2019 15:00:00 23.475 C 11.74 g/m*3 23.48 C 12.625 km/h
449 12-08-2019 16:00:00 22.54167 C 11.71 g/m*3 22.54 C 14.5 km/h
450 12-08-2019 17:00:00 17.89167 C 11.79 g/m*3 17.89 C 5.89167 km/h
Sensor: Nr:Datum:Temp:Abs-Feuchte:Windchill:Wind:
Aussen-T/F 451 12-08-2019 18:00:00 15.925 C 12.21 g/m*3 15.93 C 0.4 km/h
452 12-08-2019 19:00:00 15.925 C 12.48 g/m*3 15.93 C 0.53333 km/h
453 12-08-2019 20:00:00 15.54167 C 12.21 g/m*3 15.54 C 0.26667 km/h
454 12-08-2019 21:00:00 15.19167 C 12.14 g/m*3 15.19 C 0.26667 km/h
455 12-08-2019 22:00:00 14.975 C 12.04 g/m*3 14.98 C 0.66667 km/h
456 12-08-2019 23:00:00 14.01667 C 11.19 g/m*3 14.02 C 0.53333 km/h
457 13-08-2019 00:00:00 13.55833 C 11.06 g/m*3 13.56 C 0.26667 km/h
458 13-08-2019 01:00:00 13.025 C 10.71 g/m*3 13.03 C 0.26667 km/h
459 13-08-2019 02:00:00 12.83333 C 10.69 g/m*3 12.83 C 0.53333 km/h
460 13-08-2019 03:00:00 12.9 C 10.77 g/m*3 12.9 C 0 km/h
461 13-08-2019 04:00:00 13.275 C 11.05 g/m*3 13.28 C 2.14167 km/h
462 13-08-2019 05:00:00 13.18333 C 10.9 g/m*3 13.18 C 1.475 km/h
463 13-08-2019 06:00:00 12.75 C 10.63 g/m*3 12.75 C 0.53333 km/h
464 13-08-2019 07:00:00 12.9 C 10.74 g/m*3 12.9 C 2.13333 km/h
465 13-08-2019 08:00:00 13.39167 C 10.78 g/m*3 13.39 C 6.85 km/h
466 13-08-2019 09:00:00 14.85 C 11.03 g/m*3 14.85 C 6.96667 km/h
467 13-08-2019 10:00:00 16.225 C 10.31 g/m*3 16.23 C 10.08333 km/h
468 13-08-2019 11:00:00 17.175 C 9.83 g/m*3 17.18 C 10.625 km/h
469 13-08-2019 12:00:00 18.13333 C 9.82 g/m*3 18.13 C 11.15833 km/h
470 13-08-2019 13:00:00 19.025 C 9.08 g/m*3 19.02 C 10.76667 km/h
471 13-08-2019 14:00:00 19.875 C 9.06 g/m*3 19.88 C 11.01667 km/h
472 13-08-2019 15:00:00 21.275 C 9.37 g/m*3 21.28 C 13.56667 km/h
473 13-08-2019 16:00:00 21.38333 C 9.54 g/m*3 21.38 C 11.15833 km/h
474 13-08-2019 17:00:00 21.25833 C 9.39 g/m*3 21.26 C 9.41667 km/h
475 13-08-2019 18:00:00 21.175 C 9.59 g/m*3 21.18 C 8.73333 km/h
Sensor: Nr:Datum:Temp:Abs-Feuchte:Windchill:Wind:
Aussen-T/F 476 13-08-2019 19:00:00 18.53333 C 10.26 g/m*3 18.53 C 9.39167 km/h
477 13-08-2019 20:00:00 14.91667 C 11.06 g/m*3 14.92 C 0.93333 km/h
478 13-08-2019 21:00:00 13.99167 C 11.01 g/m*3 13.99 C 0 km/h
479 13-08-2019 22:00:00 13.63333 C 10.92 g/m*3 13.63 C 0 km/h
480 13-08-2019 23:00:00 13.36667 C 10.79 g/m*3 13.37 C 0 km/h
481 14-08-2019 00:00:00 13.05 C 10.59 g/m*3 13.05 C 0 km/h
482 14-08-2019 01:00:00 12.61667 C 10.32 g/m*3 12.62 C 0 km/h
483 14-08-2019 02:00:00 12.10833 C 10 g/m*3 12.11 C 0 km/h
484 14-08-2019 03:00:00 11.93333 C 9.98 g/m*3 11.93 C 0 km/h
485 14-08-2019 04:00:00 11.43333 C 9.68 g/m*3 11.43 C 0 km/h
486 14-08-2019 05:00:00 11.00833 C 9.51 g/m*3 11.01 C 0 km/h
487 14-08-2019 06:00:00 10.61667 C 9.3 g/m*3 10.62 C 0 km/h
488 14-08-2019 07:00:00 10.61667 C 9.38 g/m*3 10.62 C 0 km/h
489 14-08-2019 08:00:00 11.4 C 9.89 g/m*3 11.4 C 2.01667 km/h
490 14-08-2019 09:00:00 13.28333 C 10.79 g/m*3 13.28 C 5.625 km/h
491 14-08-2019 10:00:00 14.26667 C 11.26 g/m*3 14.27 C 0.13333 km/h
492 14-08-2019 11:00:00 15.66667 C 11.12 g/m*3 15.67 C 2 km/h
493 14-08-2019 12:00:00 18.1 C 9.7 g/m*3 18.1 C 8.70833 km/h
494 14-08-2019 13:00:00 19.59167 C 9.28 g/m*3 19.59 C 9.00833 km/h
495 14-08-2019 14:00:00 21.08333 C 9.23 g/m*3 21.08 C 11.00833 km/h
496 14-08-2019 15:00:00 22.60833 C 9.9 g/m*3 22.61 C 10.475 km/h
497 14-08-2019 16:00:00 23.74167 C 9.92 g/m*3 23.74 C 11.69167 km/h
498 14-08-2019 17:00:00 24.44167 C 9.98 g/m*3 24.44 C 13.43333 km/h
499 14-08-2019 18:00:00 24 C 10.17 g/m*3 24 C 11.96667 km/h
500 14-08-2019 19:00:00 22.31667 C 11.17 g/m*3 22.32 C 5.1 km/h
Sensor: Nr:Datum:Temp:Abs-Feuchte:Windchill:Wind:
Aussen-T/F 501 14-08-2019 20:00:00 19.675 C 11.46 g/m*3 19.68 C 0 km/h
502 14-08-2019 21:00:00 18.1 C 11.45 g/m*3 18.1 C 0 km/h
503 14-08-2019 22:00:00 17.63333 C 11.45 g/m*3 17.63 C 0 km/h
504 14-08-2019 23:00:00 17.4 C 11.34 g/m*3 17.4 C 0 km/h
505 15-08-2019 00:00:00 17.35833 C 11.32 g/m*3 17.36 C 0.26667 km/h
506 15-08-2019 01:00:00 17.38333 C 11.47 g/m*3 17.38 C 0.13333 km/h
507 15-08-2019 02:00:00 16.2 C 12.19 g/m*3 16.2 C 0.66667 km/h
508 15-08-2019 03:00:00 15.275 C 12.05 g/m*3 15.28 C 0 km/h
509 15-08-2019 04:00:00 14.90833 C 11.94 g/m*3 14.91 C 0.13333 km/h
510 15-08-2019 05:00:00 14.84167 C 11.96 g/m*3 14.84 C 0 km/h
511 15-08-2019 06:00:00 14.96667 C 12.14 g/m*3 14.97 C 0.4 km/h
512 15-08-2019 07:00:00 15.6 C 12.28 g/m*3 15.6 C 3.35833 km/h
513 15-08-2019 08:00:00 17.59167 C 12.58 g/m*3 17.59 C 11.025 km/h
514 15-08-2019 09:00:00 18.48333 C 12.88 g/m*3 18.48 C 11.025 km/h
515 15-08-2019 10:00:00 19.14167 C 13.31 g/m*3 19.14 C 12.76667 km/h
516 15-08-2019 11:00:00 19.28333 C 13.52 g/m*3 19.28 C 12.49167 km/h
517 15-08-2019 12:00:00 19.90833 C 13.69 g/m*3 19.91 C 12.89167 km/h
518 15-08-2019 13:00:00 18.94167 C 14.4 g/m*3 18.94 C 8.73333 km/h
519 15-08-2019 14:00:00 19.73333 C 14.63 g/m*3 19.73 C 10.20833 km/h
520 15-08-2019 15:00:00 20.79167 C 14.72 g/m*3 20.79 C 12.88333 km/h
521 15-08-2019 16:00:00 19.325 C 14.88 g/m*3 19.33 C 11.95833 km/h
522 15-08-2019 17:00:00 17.3 C 13.69 g/m*3 17.3 C 4.41667 km/h
523 15-08-2019 18:00:00 16.975 C 13.61 g/m*3 16.98 C 2.66667 km/h
524 15-08-2019 19:00:00 17.25 C 13.89 g/m*3 17.25 C 1.2 km/h
525 15-08-2019 20:00:00 17.09167 C 13.76 g/m*3 17.09 C 1.33333 km/h
Sensor: Nr:Datum:Temp:Abs-Feuchte:Windchill:Wind:
Aussen-T/F 526 15-08-2019 21:00:00 16.40833 C 13.23 g/m*3 16.41 C 2.54167 km/h
527 15-08-2019 22:00:00 15.93333 C 12.83 g/m*3 15.93 C 1.46667 km/h
528 15-08-2019 23:00:00 15.54167 C 12.59 g/m*3 15.54 C 1.06667 km/h
529 16-08-2019 00:00:00 15.29167 C 12.41 g/m*3 15.29 C 0.53333 km/h
530 16-08-2019 01:00:00 14.63333 C 11.94 g/m*3 14.63 C 0.13333 km/h
531 16-08-2019 02:00:00 14.575 C 11.99 g/m*3 14.58 C 0.8 km/h
532 16-08-2019 03:00:00 14.64167 C 12.04 g/m*3 14.64 C 0.4 km/h
533 16-08-2019 04:00:00 14.08333 C 11.64 g/m*3 14.08 C 0 km/h
534 16-08-2019 05:00:00 13.575 C 11.31 g/m*3 13.58 C 0.66667 km/h
535 16-08-2019 06:00:00 13.69167 C 11.48 g/m*3 13.69 C 2.26667 km/h
536 16-08-2019 07:00:00 14.18333 C 11.78 g/m*3 14.18 C 2.54167 km/h
537 16-08-2019 08:00:00 14.45833 C 11.8 g/m*3 14.46 C 5.1 km/h
538 16-08-2019 09:00:00 15.54167 C 11.89 g/m*3 15.54 C 9.29167 km/h
539 16-08-2019 10:00:00 16.26667 C 11.87 g/m*3 16.27 C 12.36667 km/h
540 16-08-2019 11:00:00 17.1 C 12 g/m*3 17.1 C 11.56667 km/h
541 16-08-2019 12:00:00 18.43333 C 12.04 g/m*3 18.43 C 12.9 km/h
542 16-08-2019 13:00:00 19.65 C 11.98 g/m*3 19.65 C 16.5 km/h
543 16-08-2019 14:00:00 20.4 C 11.97 g/m*3 20.4 C 12.76667 km/h
544 16-08-2019 15:00:00 21.90833 C 11.78 g/m*3 21.91 C 10.9 km/h
545 16-08-2019 16:00:00 23.63333 C 11.61 g/m*3 23.63 C 11.03333 km/h
546 16-08-2019 17:00:00 24.475 C 11.58 g/m*3 24.48 C 11.41667 km/h
547 16-08-2019 18:00:00 24.43333 C 11.61 g/m*3 24.43 C 9.94167 km/h
548 16-08-2019 19:00:00 23.41667 C 12.24 g/m*3 23.42 C 6.325 km/h
549 16-08-2019 20:00:00 20.075 C 12.43 g/m*3 20.08 C 0.13333 km/h
550 16-08-2019 21:00:00 17.75833 C 12.16 g/m*3 17.76 C 0 km/h
Sensor: Nr:Datum:Temp:Abs-Feuchte:Windchill:Wind:
Aussen-T/F 551 16-08-2019 22:00:00 16.88333 C 12.19 g/m*3 16.88 C 0 km/h
552 16-08-2019 23:00:00 16.23333 C 11.96 g/m*3 16.23 C 0 km/h
553 17-08-2019 00:00:00 15.69167 C 11.75 g/m*3 15.69 C 0 km/h
554 17-08-2019 01:00:00 15.86667 C 11.93 g/m*3 15.87 C 0 km/h
555 17-08-2019 02:00:00 15.76667 C 11.91 g/m*3 15.77 C 0 km/h
556 17-08-2019 03:00:00 15.76667 C 12.24 g/m*3 15.77 C 0 km/h
557 17-08-2019 04:00:00 15.69167 C 12.47 g/m*3 15.69 C 0 km/h
558 17-08-2019 05:00:00 15.63333 C 12.53 g/m*3 15.63 C 0 km/h
559 17-08-2019 06:00:00 15.65833 C 12.55 g/m*3 15.66 C 0 km/h
560 17-08-2019 07:00:00 16.13333 C 12.91 g/m*3 16.13 C 0.26667 km/h
561 17-08-2019 08:00:00 16.95833 C 13.1 g/m*3 16.96 C 3.075 km/h
562 17-08-2019 09:00:00 18.66667 C 12.81 g/m*3 18.67 C 7.76667 km/h
563 17-08-2019 10:00:00 19.01667 C 13.23 g/m*3 19.02 C 2.13333 km/h
564 17-08-2019 11:00:00 18.59167 C 13.81 g/m*3 18.59 C 1.60833 km/h
565 17-08-2019 12:00:00 19.275 C 14.11 g/m*3 19.27 C 2.14167 km/h
566 17-08-2019 13:00:00 20.68333 C 13.73 g/m*3 20.68 C 12.625 km/h
567 17-08-2019 14:00:00 21 C 13.72 g/m*3 21 C 10.35 km/h
568 17-08-2019 15:00:00 21.31667 C 13.96 g/m*3 21.32 C 8.34167 km/h
569 17-08-2019 16:00:00 21 C 13.91 g/m*3 21 C 8.85833 km/h
570 17-08-2019 17:00:00 20.44167 C 13.82 g/m*3 20.44 C 4.55833 km/h
571 17-08-2019 18:00:00 19.975 C 14.34 g/m*3 19.98 C 0.93333 km/h
572 17-08-2019 19:00:00 19.125 C 14.49 g/m*3 19.13 C 0.4 km/h
573 17-08-2019 20:00:00 18.325 C 14.26 g/m*3 18.33 C 0.13333 km/h
574 17-08-2019 21:00:00 17.84167 C 14.1 g/m*3 17.84 C 0.26667 km/h
575 17-08-2019 22:00:00 17.74167 C 14.22 g/m*3 17.74 C 0.4 km/h
Sensor: Nr:Datum:Temp:Abs-Feuchte:Windchill:Wind:
Aussen-T/F 576 17-08-2019 23:00:00 17.525 C 14.13 g/m*3 17.52 C 0.13333 km/h
577 18-08-2019 00:00:00 17.4 C 14.08 g/m*3 17.4 C 0 km/h
578 18-08-2019 01:00:00 17.38333 C 14.15 g/m*3 17.38 C 0 km/h
579 18-08-2019 02:00:00 17.225 C 14.08 g/m*3 17.23 C 0 km/h
580 18-08-2019 03:00:00 17.2 C 14.06 g/m*3 17.2 C 0 km/h
581 18-08-2019 04:00:00 17.18333 C 14.04 g/m*3 17.18 C 0 km/h
582 18-08-2019 05:00:00 17.3 C 14.25 g/m*3 17.3 C 0 km/h
583 18-08-2019 06:00:00 17.26667 C 14.26 g/m*3 17.27 C 0 km/h
584 18-08-2019 07:00:00 17.34167 C 14.33 g/m*3 17.34 C 0 km/h
585 18-08-2019 08:00:00 17.93333 C 14.84 g/m*3 17.93 C 0 km/h
586 18-08-2019 09:00:00 18.85833 C 15.72 g/m*3 18.86 C 0 km/h
587 18-08-2019 10:00:00 19.93333 C 16.77 g/m*3 19.93 C 1.33333 km/h
588 18-08-2019 11:00:00 22.19167 C 18.07 g/m*3 22.19 C 9.00833 km/h
589 18-08-2019 12:00:00 24.075 C 16.99 g/m*3 24.08 C 17.03333 km/h
590 18-08-2019 13:00:00 24.4 C 16.88 g/m*3 24.4 C 15.98333 km/h
591 18-08-2019 14:00:00 24.725 C 16.96 g/m*3 24.73 C 17.84167 km/h
592 18-08-2019 15:00:00 24.7 C 17.16 g/m*3 24.7 C 15.03333 km/h
593 18-08-2019 16:00:00 24.99167 C 16.74 g/m*3 24.99 C 14.9 km/h
594 18-08-2019 17:00:00 24.35 C 16.14 g/m*3 24.35 C 15.83333 km/h
595 18-08-2019 18:00:00 20.49167 C 16.3 g/m*3 20.49 C 1.33333 km/h
596 18-08-2019 19:00:00 20.00833 C 16.22 g/m*3 20.01 C 1.2 km/h
597 18-08-2019 20:00:00 19.45833 C 15.85 g/m*3 19.46 C 1.86667 km/h
598 18-08-2019 21:00:00 18.8 C 15.19 g/m*3 18.8 C 0.93333 km/h
599 18-08-2019 22:00:00 17.65 C 14.22 g/m*3 17.65 C 0.8 km/h
600 18-08-2019 23:00:00 16.59167 C 13.41 g/m*3 16.59 C 1.06667 km/h
Sensor: Nr:Datum:Temp:Abs-Feuchte:Windchill:Wind:
Aussen-T/F 601 19-08-2019 00:00:00 16.14167 C 13.19 g/m*3 16.14 C 0.53333 km/h
602 19-08-2019 01:00:00 16.10833 C 13.17 g/m*3 16.11 C 0.93333 km/h
603 19-08-2019 02:00:00 15.81667 C 12.94 g/m*3 15.82 C 0.26667 km/h
604 19-08-2019 03:00:00 15.38333 C 12.61 g/m*3 15.38 C 0 km/h
605 19-08-2019 04:00:00 14.78333 C 12.17 g/m*3 14.78 C 0 km/h
606 19-08-2019 05:00:00 15.125 C 12.53 g/m*3 15.13 C 0.13333 km/h
607 19-08-2019 06:00:00 14.61667 C 12.13 g/m*3 14.62 C 0 km/h
608 19-08-2019 07:00:00 15.025 C 12.48 g/m*3 15.03 C 2 km/h
609 19-08-2019 08:00:00 15.65833 C 12.95 g/m*3 15.66 C 0.93333 km/h
610 19-08-2019 09:00:00 15.89167 C 13.07 g/m*3 15.89 C 6.03333 km/h
611 19-08-2019 10:00:00 16.63333 C 12.41 g/m*3 16.63 C 7.79167 km/h
612 19-08-2019 11:00:00 18.55833 C 11.87 g/m*3 18.56 C 10.36667 km/h
613 19-08-2019 12:00:00 20.275 C 11.33 g/m*3 20.27 C 11.95833 km/h
614 19-08-2019 13:00:00 21.525 C 11.02 g/m*3 21.53 C 11.69167 km/h
615 19-08-2019 14:00:00 22.79167 C 10.93 g/m*3 22.79 C 13.7 km/h
616 19-08-2019 15:00:00 23.46667 C 10.69 g/m*3 23.47 C 13.55833 km/h
617 19-08-2019 16:00:00 23.78333 C 10.89 g/m*3 23.78 C 11.425 km/h
618 19-08-2019 17:00:00 24.025 C 10.55 g/m*3 24.03 C 11.68333 km/h
619 19-08-2019 18:00:00 23.51667 C 10.69 g/m*3 23.52 C 7.65 km/h
620 19-08-2019 19:00:00 22.95833 C 11.55 g/m*3 22.96 C 4.7 km/h
621 19-08-2019 20:00:00 19.71667 C 11.84 g/m*3 19.72 C 0.8 km/h
622 19-08-2019 21:00:00 17.30833 C 11.03 g/m*3 17.31 C 0 km/h
623 19-08-2019 22:00:00 16.51667 C 11.29 g/m*3 16.52 C 0 km/h
624 19-08-2019 23:00:00 15.21667 C 10.86 g/m*3 15.22 C 0.13333 km/h
625 20-08-2019 00:00:00 13.975 C 10.43 g/m*3 13.98 C 0 km/h
Sensor: Nr:Datum:Temp:Abs-Feuchte:Windchill:Wind:
Aussen-T/F 626 20-08-2019 01:00:00 13.21667 C 10.16 g/m*3 13.22 C 0.53333 km/h
627 20-08-2019 02:00:00 12.825 C 10.09 g/m*3 12.83 C 2.13333 km/h
628 20-08-2019 03:00:00 12.21667 C 9.79 g/m*3 12.22 C 0 km/h
629 20-08-2019 04:00:00 11.34167 C 9.46 g/m*3 11.34 C 0.4 km/h
630 20-08-2019 05:00:00 10.9 C 9.32 g/m*3 10.9 C 0.13333 km/h
631 20-08-2019 06:00:00 10.425 C 9.12 g/m*3 10.43 C 0.26667 km/h
632 20-08-2019 07:00:00 10.78333 C 9.41 g/m*3 10.78 C 0 km/h
633 20-08-2019 08:00:00 11.425 C 9.83 g/m*3 11.43 C 0.93333 km/h
634 20-08-2019 09:00:00 12.61667 C 10.53 g/m*3 12.62 C 1.06667 km/h
635 20-08-2019 10:00:00 15.26667 C 11.21 g/m*3 15.27 C 0.66667 km/h
636 20-08-2019 11:00:00 17.375 C 10.89 g/m*3 17.38 C 2.13333 km/h
637 20-08-2019 12:00:00 18.625 C 10.65 g/m*3 18.63 C 1.46667 km/h
638 20-08-2019 13:00:00 19.525 C 10.45 g/m*3 19.52 C 3.875 km/h
639 20-08-2019 14:00:00 20.43333 C 10.16 g/m*3 20.43 C 4.54167 km/h
640 20-08-2019 15:00:00 21.10833 C 10.37 g/m*3 21.11 C 5.08333 km/h
641 20-08-2019 16:00:00 21.41667 C 11.04 g/m*3 21.42 C 2.13333 km/h
642 20-08-2019 17:00:00 20.68333 C 11.59 g/m*3 20.68 C 2.40833 km/h
643 20-08-2019 18:00:00 20.375 C 13.06 g/m*3 20.38 C 0.26667 km/h
644 20-08-2019 19:00:00 18.88333 C 12.11 g/m*3 18.88 C 0.13333 km/h
645 20-08-2019 20:00:00 17.58333 C 11.35 g/m*3 17.58 C 0.8 km/h
646 20-08-2019 21:00:00 16.76667 C 11.4 g/m*3 16.77 C 0.26667 km/h
647 20-08-2019 22:00:00 15.925 C 11.36 g/m*3 15.93 C 0.4 km/h
648 20-08-2019 23:00:00 15.175 C 11.02 g/m*3 15.18 C 0.26667 km/h
649 21-08-2019 00:00:00 14.11667 C 10.59 g/m*3 14.12 C 0 km/h
650 21-08-2019 01:00:00 13.55833 C 10.42 g/m*3 13.56 C 0 km/h
Sensor: Nr:Datum:Temp:Abs-Feuchte:Windchill:Wind:
Aussen-T/F 651 21-08-2019 02:00:00 12.65833 C 10.08 g/m*3 12.66 C 0.13333 km/h
652 21-08-2019 03:00:00 11.99167 C 9.85 g/m*3 11.99 C 0.13333 km/h
653 21-08-2019 04:00:00 11.30833 C 9.54 g/m*3 11.31 C 0.13333 km/h
654 21-08-2019 05:00:00 10.73333 C 9.25 g/m*3 10.73 C 0 km/h
655 21-08-2019 06:00:00 10.325 C 9.1 g/m*3 10.33 C 0 km/h
656 21-08-2019 07:00:00 10.35833 C 9.16 g/m*3 10.36 C 0.26667 km/h
657 21-08-2019 08:00:00 10.85833 C 9.52 g/m*3 10.86 C 0.13333 km/h
658 21-08-2019 09:00:00 11.86667 C 10.15 g/m*3 11.87 C 0.66667 km/h
659 21-08-2019 10:00:00 13.33333 C 11.14 g/m*3 13.33 C 0 km/h
660 21-08-2019 11:00:00 15.80833 C 12.13 g/m*3 15.81 C 0.93333 km/h
661 21-08-2019 12:00:00 18.54167 C 11.58 g/m*3 18.54 C 1.46667 km/h
662 21-08-2019 13:00:00 20.375 C 10.25 g/m*3 20.38 C 5.38333 km/h
663 21-08-2019 14:00:00 21.79167 C 10.04 g/m*3 21.79 C 6.575 km/h
664 21-08-2019 15:00:00 22.95833 C 10.3 g/m*3 22.96 C 2.13333 km/h
665 21-08-2019 16:00:00 24.475 C 9.39 g/m*3 24.48 C 7.23333 km/h
666 21-08-2019 17:00:00 24.65 C 9.4 g/m*3 24.65 C 4.28333 km/h
667 21-08-2019 18:00:00 24.64167 C 10 g/m*3 24.64 C 4.94167 km/h
668 21-08-2019 19:00:00 23.46667 C 11.61 g/m*3 23.47 C 1.6 km/h
669 21-08-2019 20:00:00 19.875 C 11.09 g/m*3 19.88 C 0 km/h
670 21-08-2019 21:00:00 17.49167 C 9.97 g/m*3 17.49 C 0.4 km/h
671 21-08-2019 22:00:00 16.29167 C 9.59 g/m*3 16.29 C 0 km/h
672 21-08-2019 23:00:00 15.05833 C 9.99 g/m*3 15.06 C 0 km/h
673 22-08-2019 00:00:00 13.475 C 9.75 g/m*3 13.48 C 0 km/h
674 22-08-2019 01:00:00 12.41667 C 9.41 g/m*3 12.42 C 0 km/h
675 22-08-2019 02:00:00 11.66667 C 9.25 g/m*3 11.67 C 0 km/h
Sensor: Nr:Datum:Temp:Abs-Feuchte:Windchill:Wind:
Aussen-T/F 676 22-08-2019 03:00:00 11.125 C 9.12 g/m*3 11.13 C 0 km/h
677 22-08-2019 04:00:00 10.55833 C 8.92 g/m*3 10.56 C 0 km/h
678 22-08-2019 05:00:00 9.99167 C 8.7 g/m*3 9.99 C 0 km/h
679 22-08-2019 06:00:00 9.71667 C 8.65 g/m*3 9.72 C 0 km/h
680 22-08-2019 07:00:00 9.7 C 8.73 g/m*3 9.7 C 0 km/h
681 22-08-2019 08:00:00 10.30833 C 9.13 g/m*3 10.31 C 0 km/h
682 22-08-2019 09:00:00 11.525 C 9.93 g/m*3 11.53 C 0 km/h
683 22-08-2019 10:00:00 13.51667 C 11.07 g/m*3 13.52 C 0 km/h
684 22-08-2019 11:00:00 16.925 C 11.87 g/m*3 16.93 C 0 km/h
685 22-08-2019 12:00:00 20.11667 C 11.46 g/m*3 20.12 C 3.46667 km/h
686 22-08-2019 13:00:00 22.71667 C 10.89 g/m*3 22.72 C 5.09167 km/h
687 22-08-2019 14:00:00 24.08333 C 10.49 g/m*3 24.08 C 6.71667 km/h
688 22-08-2019 15:00:00 25.89167 C 9.9 g/m*3 25.89 C 6.84167 km/h
689 22-08-2019 16:00:00 27.33333 C 9.76 g/m*3 27.33 C 6.16667 km/h
690 22-08-2019 17:00:00 28.01667 C 9.41 g/m*3 28.02 C 6.16667 km/h
691 22-08-2019 18:00:00 28.38333 C 9.67 g/m*3 28.38 C 3.46667 km/h
692 22-08-2019 19:00:00 26.06667 C 11.97 g/m*3 26.07 C 0.26667 km/h
693 22-08-2019 20:00:00 21.49167 C 11.04 g/m*3 21.49 C 0.26667 km/h
694 22-08-2019 21:00:00 18.25 C 10.74 g/m*3 18.25 C 0 km/h
695 22-08-2019 22:00:00 16.40833 C 10.6 g/m*3 16.41 C 0 km/h
696 22-08-2019 23:00:00 14.90833 C 10.12 g/m*3 14.91 C 0 km/h
697 23-08-2019 00:00:00 13.94167 C 9.97 g/m*3 13.94 C 0 km/h
698 23-08-2019 01:00:00 13.26667 C 9.81 g/m*3 13.27 C 0 km/h
699 23-08-2019 02:00:00 12.775 C 9.72 g/m*3 12.78 C 0 km/h
700 23-08-2019 03:00:00 11.975 C 9.49 g/m*3 11.98 C 0 km/h
Sensor: Nr:Datum:Temp:Abs-Feuchte:Windchill:Wind:
Aussen-T/F 701 23-08-2019 04:00:00 11.56667 C 9.45 g/m*3 11.57 C 0 km/h
702 23-08-2019 05:00:00 11.06667 C 9.24 g/m*3 11.07 C 0 km/h
703 23-08-2019 06:00:00 10.66667 C 9.14 g/m*3 10.67 C 0 km/h
704 23-08-2019 07:00:00 10.7 C 9.25 g/m*3 10.7 C 0 km/h
705 23-08-2019 08:00:00 11.3 C 9.68 g/m*3 11.3 C 0 km/h
706 23-08-2019 09:00:00 12.35 C 10.35 g/m*3 12.35 C 0 km/h
707 23-08-2019 10:00:00 14.34167 C 11.59 g/m*3 14.34 C 0 km/h
708 23-08-2019 11:00:00 17.6 C 12.75 g/m*3 17.6 C 0 km/h
709 23-08-2019 12:00:00 21.16667 C 12.76 g/m*3 21.17 C 1.46667 km/h
710 23-08-2019 13:00:00 24.1 C 11.12 g/m*3 24.1 C 3.86667 km/h
711 23-08-2019 14:00:00 26.13333 C 10.36 g/m*3 26.13 C 7.925 km/h
712 23-08-2019 15:00:00 27.85833 C 10.32 g/m*3 27.86 C 6.84167 km/h
713 23-08-2019 16:00:00 29.15 C 10.11 g/m*3 29.15 C 9.28333 km/h
714 23-08-2019 17:00:00 29.375 C 9.97 g/m*3 29.38 C 12.5 km/h
715 23-08-2019 18:00:00 28.94167 C 9.47 g/m*3 28.94 C 12.36667 km/h
716 23-08-2019 19:00:00 27.20833 C 12.06 g/m*3 27.21 C 1.875 km/h
717 23-08-2019 20:00:00 23.01667 C 11.42 g/m*3 23.02 C 0.66667 km/h
718 23-08-2019 21:00:00 20.16667 C 11.34 g/m*3 20.17 C 0 km/h
719 23-08-2019 22:00:00 17.85 C 11.09 g/m*3 17.85 C 0 km/h
720 23-08-2019 23:00:00 16.23333 C 10.61 g/m*3 16.23 C 0 km/h
721 24-08-2019 00:00:00 14.96667 C 10.33 g/m*3 14.97 C 0 km/h
722 24-08-2019 01:00:00 14.05833 C 10.23 g/m*3 14.06 C 0 km/h
723 24-08-2019 02:00:00 13.425 C 10.07 g/m*3 13.43 C 0 km/h
724 24-08-2019 03:00:00 12.7 C 9.88 g/m*3 12.7 C 0 km/h
725 24-08-2019 04:00:00 12.06667 C 9.67 g/m*3 12.07 C 0 km/h
Sensor: Nr:Datum:Temp:Abs-Feuchte:Windchill:Wind:
Aussen-T/F 726 24-08-2019 05:00:00 11.66667 C 9.58 g/m*3 11.67 C 0 km/h
727 24-08-2019 06:00:00 11.425 C 9.54 g/m*3 11.43 C 0 km/h
728 24-08-2019 07:00:00 11.575 C 9.75 g/m*3 11.58 C 0 km/h
729 24-08-2019 08:00:00 12.06667 C 10.08 g/m*3 12.07 C 0 km/h
730 24-08-2019 09:00:00 13.23333 C 10.82 g/m*3 13.23 C 0 km/h
731 24-08-2019 10:00:00 15.5 C 12.09 g/m*3 15.5 C 0.4 km/h
732 24-08-2019 11:00:00 18.88333 C 12.89 g/m*3 18.88 C 0.66667 km/h
733 24-08-2019 12:00:00 22.24167 C 13.01 g/m*3 22.24 C 2.66667 km/h
734 24-08-2019 13:00:00 25.4 C 12.28 g/m*3 25.4 C 7.78333 km/h
735 24-08-2019 14:00:00 27.05 C 11.27 g/m*3 27.05 C 8.58333 km/h
736 24-08-2019 15:00:00 28.69167 C 10.64 g/m*3 28.69 C 8.875 km/h
737 24-08-2019 16:00:00 29.81667 C 10.33 g/m*3 29.82 C 11.69167 km/h
738 24-08-2019 17:00:00 30.29167 C 10.09 g/m*3 30.29 C 11.15833 km/h
739 24-08-2019 18:00:00 30.66667 C 10.95 g/m*3 30.67 C 9.55 km/h
740 24-08-2019 19:00:00 28.56667 C 13.72 g/m*3 28.57 C 1.6 km/h
741 24-08-2019 20:00:00 24.29167 C 13.11 g/m*3 24.29 C 0.66667 km/h
742 24-08-2019 21:00:00 22.01667 C 12.87 g/m*3 22.02 C 0.4 km/h
743 24-08-2019 22:00:00 19.78333 C 12.64 g/m*3 19.78 C 0.13333 km/h
744 24-08-2019 23:00:00 18.175 C 12.16 g/m*3 18.18 C 0 km/h
745 25-08-2019 00:00:00 17.35833 C 12.09 g/m*3 17.36 C 0 km/h
746 25-08-2019 01:00:00 16.96667 C 11.95 g/m*3 16.97 C 0.26667 km/h
747 25-08-2019 02:00:00 16.15833 C 11.73 g/m*3 16.16 C 0 km/h
748 25-08-2019 03:00:00 15.53333 C 11.66 g/m*3 15.53 C 0.26667 km/h
749 25-08-2019 04:00:00 15.19167 C 11.47 g/m*3 15.19 C 0.13333 km/h
750 25-08-2019 05:00:00 14.65833 C 11.28 g/m*3 14.66 C 0 km/h
Sensor: Nr:Datum:Temp:Abs-Feuchte:Windchill:Wind:
Aussen-T/F 751 25-08-2019 06:00:00 14.41667 C 11.24 g/m*3 14.42 C 0 km/h
752 25-08-2019 07:00:00 14.80833 C 11.59 g/m*3 14.81 C 0.26667 km/h
753 25-08-2019 08:00:00 15.84167 C 12.21 g/m*3 15.84 C 0 km/h
754 25-08-2019 09:00:00 17.2 C 12.94 g/m*3 17.2 C 0 km/h
755 25-08-2019 10:00:00 18.78333 C 13.62 g/m*3 18.78 C 0 km/h
756 25-08-2019 11:00:00 21.64167 C 14.72 g/m*3 21.64 C 1.46667 km/h
757 25-08-2019 12:00:00 24.54167 C 15.7 g/m*3 24.54 C 3.33333 km/h
758 25-08-2019 13:00:00 26.76667 C 15.98 g/m*3 26.77 C 3.33333 km/h
759 25-08-2019 14:00:00 28.375 C 15.82 g/m*3 28.38 C 4.28333 km/h
760 25-08-2019 15:00:00 30.28333 C 15.83 g/m*3 30.28 C 5.5 km/h
761 25-08-2019 16:00:00 31.18333 C 16.05 g/m*3 31.18 C 6.05833 km/h
762 25-08-2019 17:00:00 32.3 C 16.12 g/m*3 32.3 C 3.875 km/h
763 25-08-2019 18:00:00 30.05 C 16.09 g/m*3 30.05 C 4.425 km/h
764 25-08-2019 19:00:00 27.125 C 16.41 g/m*3 27.13 C 0.13333 km/h
765 25-08-2019 20:00:00 24.31667 C 15.82 g/m*3 24.32 C 0.13333 km/h
766 25-08-2019 21:00:00 22.98333 C 15.85 g/m*3 22.98 C 0 km/h
767 25-08-2019 22:00:00 21.19167 C 15.27 g/m*3 21.19 C 0 km/h
768 25-08-2019 23:00:00 20.10833 C 14.86 g/m*3 20.11 C 0 km/h
769 26-08-2019 00:00:00 19.475 C 14.76 g/m*3 19.48 C 0 km/h
770 26-08-2019 01:00:00 19.14167 C 14.65 g/m*3 19.14 C 0 km/h
771 26-08-2019 02:00:00 18.53333 C 14.39 g/m*3 18.53 C 0.13333 km/h
772 26-08-2019 03:00:00 18.025 C 14.1 g/m*3 18.02 C 0 km/h
773 26-08-2019 04:00:00 17.41667 C 13.8 g/m*3 17.42 C 0 km/h
774 26-08-2019 05:00:00 17.14167 C 13.74 g/m*3 17.14 C 0.13333 km/h
775 26-08-2019 06:00:00 16.76667 C 13.46 g/m*3 16.77 C 0 km/h
Sensor: Nr:Datum:Temp:Abs-Feuchte:Windchill:Wind:
Aussen-T/F 776 26-08-2019 07:00:00 16.71667 C 13.55 g/m*3 16.72 C 0 km/h
777 26-08-2019 08:00:00 17.475 C 14.29 g/m*3 17.48 C 0 km/h
778 26-08-2019 09:00:00 18.55 C 15.21 g/m*3 18.55 C 0 km/h
779 26-08-2019 10:00:00 20.15833 C 16.12 g/m*3 20.16 C 0.13333 km/h
780 26-08-2019 11:00:00 22.95 C 17.15 g/m*3 22.95 C 0.93333 km/h
781 26-08-2019 12:00:00 25.70833 C 17.45 g/m*3 25.71 C 1.86667 km/h
782 26-08-2019 13:00:00 28.3 C 16.68 g/m*3 28.3 C 5.075 km/h
783 26-08-2019 14:00:00 30.01667 C 15.99 g/m*3 30.02 C 5.08333 km/h
784 26-08-2019 15:00:00 30.85833 C 16.04 g/m*3 30.86 C 4.95 km/h
785 26-08-2019 16:00:00 28.55 C 16.58 g/m*3 28.55 C 2 km/h
786 26-08-2019 17:00:00 27.475 C 17.77 g/m*3 27.48 C 0 km/h
787 26-08-2019 18:00:00 27.10833 C 18.14 g/m*3 27.11 C 0 km/h
788 26-08-2019 19:00:00 28.06667 C 18.01 g/m*3 28.07 C 0 km/h
789 26-08-2019 20:00:00 24.69167 C 16.65 g/m*3 24.69 C 0 km/h
790 26-08-2019 21:00:00 22.45 C 16.03 g/m*3 22.45 C 0 km/h
791 26-08-2019 22:00:00 21.09167 C 15.61 g/m*3 21.09 C 0 km/h
792 26-08-2019 23:00:00 20.175 C 15.34 g/m*3 20.18 C 0.13333 km/h
793 27-08-2019 00:00:00 19.40833 C 15.01 g/m*3 19.41 C 0 km/h
794 27-08-2019 01:00:00 19.01667 C 15.01 g/m*3 19.02 C 0 km/h
795 27-08-2019 02:00:00 18.39167 C 14.59 g/m*3 18.39 C 0 km/h
796 27-08-2019 03:00:00 17.91667 C 14.38 g/m*3 17.92 C 0.13333 km/h
797 27-08-2019 04:00:00 17.55833 C 14.1 g/m*3 17.56 C 0 km/h
798 27-08-2019 05:00:00 17.15833 C 13.88 g/m*3 17.16 C 0 km/h
799 27-08-2019 06:00:00 16.79167 C 13.62 g/m*3 16.79 C 0 km/h
800 27-08-2019 07:00:00 16.85 C 13.77 g/m*3 16.85 C 0 km/h
Sensor: Nr:Datum:Temp:Abs-Feuchte:Windchill:Wind:
Aussen-T/F 801 27-08-2019 08:00:00 17.325 C 14.24 g/m*3 17.33 C 0 km/h
802 27-08-2019 09:00:00 18.4 C 15.26 g/m*3 18.4 C 0 km/h
803 27-08-2019 10:00:00 19.78333 C 16.4 g/m*3 19.78 C 0 km/h
804 27-08-2019 11:00:00 22.275 C 17.8 g/m*3 22.28 C 0 km/h
805 27-08-2019 12:00:00 25.41667 C 17.97 g/m*3 25.42 C 0 km/h
806 27-08-2019 13:00:00 28.99167 C 16.36 g/m*3 28.99 C 1.06667 km/h
807 27-08-2019 14:00:00 30.54167 C 15.38 g/m*3 30.54 C 2 km/h
808 27-08-2019 15:00:00 31.89167 C 14.46 g/m*3 31.89 C 4.95833 km/h
809 27-08-2019 16:00:00 33.23333 C 15.02 g/m*3 33.23 C 4.28333 km/h
810 27-08-2019 17:00:00 32.29167 C 16.29 g/m*3 32.29 C 1.46667 km/h
811 27-08-2019 18:00:00 29.55833 C 16.9 g/m*3 29.56 C 1.2 km/h
812 27-08-2019 19:00:00 27.7 C 17.08 g/m*3 27.7 C 5.23333 km/h
813 27-08-2019 20:00:00 23.50833 C 17.31 g/m*3 23.51 C 0.53333 km/h
814 27-08-2019 21:00:00 22.09167 C 16.5 g/m*3 22.09 C 0.4 km/h
815 27-08-2019 22:00:00 21.14167 C 15.96 g/m*3 21.14 C 0 km/h
816 27-08-2019 23:00:00 20.43333 C 15.63 g/m*3 20.43 C 0.13333 km/h
817 28-08-2019 00:00:00 19.9 C 15.48 g/m*3 19.9 C 0.4 km/h
818 28-08-2019 01:00:00 19.61667 C 15.5 g/m*3 19.62 C 0 km/h
819 28-08-2019 02:00:00 19.24167 C 15.32 g/m*3 19.24 C 0 km/h
820 28-08-2019 03:00:00 18.71667 C 14.98 g/m*3 18.72 C 0.4 km/h
821 28-08-2019 04:00:00 18.33333 C 14.71 g/m*3 18.33 C 0 km/h
822 28-08-2019 05:00:00 17.96667 C 14.47 g/m*3 17.97 C 0 km/h
823 28-08-2019 06:00:00 18.01667 C 14.62 g/m*3 18.02 C 0 km/h
824 28-08-2019 07:00:00 17.85833 C 14.51 g/m*3 17.86 C 0 km/h
825 28-08-2019 08:00:00 18.64167 C 15.28 g/m*3 18.64 C 0.93333 km/h
Sensor: Nr:Datum:Temp:Abs-Feuchte:Windchill:Wind:
Aussen-T/F 826 28-08-2019 09:00:00 19.75833 C 15.89 g/m*3 19.76 C 2.8 km/h
827 28-08-2019 10:00:00 22.45 C 15.49 g/m*3 22.45 C 7.4 km/h
828 28-08-2019 11:00:00 23.975 C 15.57 g/m*3 23.98 C 4.40833 km/h
829 28-08-2019 12:00:00 24.49167 C 15.85 g/m*3 24.49 C 4.025 km/h
830 28-08-2019 13:00:00 26.54167 C 14.76 g/m*3 26.54 C 7.66667 km/h
831 28-08-2019 14:00:00 29.44167 C 14.81 g/m*3 29.44 C 9.29167 km/h
832 28-08-2019 15:00:00 30.35833 C 13.68 g/m*3 30.36 C 11.43333 km/h
833 28-08-2019 16:00:00 31.55833 C 13.63 g/m*3 31.56 C 11.29167 km/h
834 28-08-2019 17:00:00 31.80833 C 14.03 g/m*3 31.81 C 7.39167 km/h
835 28-08-2019 18:00:00 31.18333 C 14.79 g/m*3 31.18 C 4.96667 km/h
836 28-08-2019 19:00:00 27.875 C 14.09 g/m*3 27.88 C 0.53333 km/h
837 28-08-2019 20:00:00 25.59167 C 13.46 g/m*3 25.59 C 0.4 km/h
838 28-08-2019 21:00:00 24.2 C 13.75 g/m*3 24.2 C 0.53333 km/h
839 28-08-2019 22:00:00 22.43333 C 13.94 g/m*3 22.43 C 0 km/h
840 28-08-2019 23:00:00 21.38333 C 13.92 g/m*3 21.38 C 0 km/h
841 29-08-2019 00:00:00 20.775 C 13.89 g/m*3 20.78 C 0 km/h
842 29-08-2019 01:00:00 20.10833 C 13.75 g/m*3 20.11 C 0 km/h
843 29-08-2019 02:00:00 19.2 C 13.55 g/m*3 19.2 C 0 km/h
844 29-08-2019 03:00:00 18.225 C 13.21 g/m*3 18.23 C 0 km/h
845 29-08-2019 04:00:00 17.53333 C 13.15 g/m*3 17.53 C 0 km/h
846 29-08-2019 05:00:00 17.78333 C 13.63 g/m*3 17.78 C 0 km/h
847 29-08-2019 06:00:00 18.34167 C 14.08 g/m*3 18.34 C 0.53333 km/h
848 29-08-2019 07:00:00 19.04167 C 14.58 g/m*3 19.04 C 2.4 km/h
849 29-08-2019 08:00:00 19.89167 C 14.95 g/m*3 19.89 C 3.06667 km/h
850 29-08-2019 09:00:00 20.7 C 15.27 g/m*3 20.7 C 2.4 km/h
Sensor: Nr:Datum:Temp:Abs-Feuchte:Windchill:Wind:
Aussen-T/F 851 29-08-2019 10:00:00 21.175 C 16.01 g/m*3 21.18 C 0.4 km/h
852 29-08-2019 11:00:00 22.13333 C 16.14 g/m*3 22.13 C 2.94167 km/h
853 29-08-2019 12:00:00 23.29167 C 16.23 g/m*3 23.29 C 5.075 km/h
854 29-08-2019 13:00:00 25.45 C 16.23 g/m*3 25.45 C 8.475 km/h
855 29-08-2019 14:00:00 26.78333 C 16.49 g/m*3 26.78 C 7.925 km/h
856 29-08-2019 15:00:00 27.53333 C 16.59 g/m*3 27.53 C 9.41667 km/h
857 29-08-2019 16:00:00 27.875 C 16.18 g/m*3 27.88 C 9.40833 km/h
858 29-08-2019 17:00:00 27.28333 C 15.75 g/m*3 27.28 C 8.74167 km/h
859 29-08-2019 18:00:00 26.44167 C 15.18 g/m*3 26.44 C 8.325 km/h
860 29-08-2019 19:00:00 24.73333 C 14.66 g/m*3 24.73 C 4.675 km/h
861 29-08-2019 20:00:00 22.80833 C 14.37 g/m*3 22.81 C 1.2 km/h
862 29-08-2019 21:00:00 20.89167 C 13.97 g/m*3 20.89 C 0.4 km/h
863 29-08-2019 22:00:00 20.525 C 14.05 g/m*3 20.53 C 0.13333 km/h
864 29-08-2019 23:00:00 20.48333 C 14.15 g/m*3 20.48 C 0.26667 km/h
865 30-08-2019 00:00:00 20.30833 C 13.9 g/m*3 20.31 C 2.4 km/h
866 30-08-2019 01:00:00 19.18333 C 13.66 g/m*3 19.18 C 0 km/h
867 30-08-2019 02:00:00 18.2 C 13.38 g/m*3 18.2 C 0 km/h
868 30-08-2019 03:00:00 17.48333 C 13.17 g/m*3 17.48 C 0 km/h
869 30-08-2019 04:00:00 16.65833 C 12.77 g/m*3 16.66 C 0 km/h
870 30-08-2019 05:00:00 15.975 C 12.62 g/m*3 15.98 C 0.13333 km/h
871 30-08-2019 06:00:00 15.91667 C 12.64 g/m*3 15.92 C 0.13333 km/h
872 30-08-2019 07:00:00 15.41667 C 12.32 g/m*3 15.42 C 0 km/h
873 30-08-2019 08:00:00 16.09167 C 12.94 g/m*3 16.09 C 0.26667 km/h
874 30-08-2019 09:00:00 17.96667 C 13.59 g/m*3 17.97 C 1.06667 km/h
875 30-08-2019 10:00:00 19.41667 C 13.65 g/m*3 19.42 C 1.2 km/h
Sensor: Nr:Datum:Temp:Abs-Feuchte:Windchill:Wind:
Aussen-T/F 876 30-08-2019 11:00:00 20.825 C 13.78 g/m*3 20.83 C 1.46667 km/h
877 30-08-2019 12:00:00 22.16667 C 14.24 g/m*3 22.17 C 3.86667 km/h
878 30-08-2019 13:00:00 23.59167 C 14.51 g/m*3 23.59 C 4.84167 km/h
879 30-08-2019 14:00:00 25 C 14 g/m*3 25 C 6.01667 km/h
880 30-08-2019 15:00:00 26.16667 C 12.59 g/m*3 26.17 C 5.75833 km/h
881 30-08-2019 16:00:00 27.98333 C 12.41 g/m*3 27.98 C 5.49167 km/h
882 30-08-2019 17:00:00 29.66667 C 11.27 g/m*3 29.67 C 3.73333 km/h
883 30-08-2019 18:00:00 29.54167 C 11.12 g/m*3 29.54 C 6.29167 km/h
884 30-08-2019 19:00:00 27.175 C 12.24 g/m*3 27.18 C 2.13333 km/h
885 30-08-2019 20:00:00 23 C 11.42 g/m*3 23 C 0.26667 km/h
886 30-08-2019 21:00:00 20.38333 C 11.5 g/m*3 20.38 C 0 km/h
887 30-08-2019 22:00:00 18.64167 C 11.58 g/m*3 18.64 C 0 km/h
888 30-08-2019 23:00:00 17.38333 C 11.44 g/m*3 17.38 C 0 km/h
889 31-08-2019 00:00:00 16.65 C 11.48 g/m*3 16.65 C 0 km/h
890 31-08-2019 01:00:00 15.825 C 11.35 g/m*3 15.83 C 0 km/h
891 31-08-2019 02:00:00 15.21667 C 11.21 g/m*3 15.22 C 0 km/h
892 31-08-2019 03:00:00 14.75 C 11.18 g/m*3 14.75 C 0 km/h
893 31-08-2019 04:00:00 14.31667 C 11.09 g/m*3 14.32 C 0 km/h
894 31-08-2019 05:00:00 14.15 C 11.15 g/m*3 14.15 C 0 km/h
895 31-08-2019 06:00:00 14.1 C 11.17 g/m*3 14.1 C 0 km/h
896 31-08-2019 07:00:00 14.10833 C 11.25 g/m*3 14.11 C 0 km/h
897 31-08-2019 08:00:00 14.76667 C 11.71 g/m*3 14.77 C 0 km/h
898 31-08-2019 09:00:00 15.89167 C 12.49 g/m*3 15.89 C 0 km/h
899 31-08-2019 10:00:00 17.8 C 13.51 g/m*3 17.8 C 0 km/h
900 31-08-2019 11:00:00 20.6 C 14.54 g/m*3 20.6 C 0 km/h
Sensor: Nr:Datum:Temp:Abs-Feuchte:Windchill:Wind:
Aussen-T/F 901 31-08-2019 12:00:00 23.625 C 15.57 g/m*3 23.63 C 0.675 km/h
902 31-08-2019 13:00:00 28.49167 C 15.25 g/m*3 28.49 C 7.24167 km/h
903 31-08-2019 14:00:00 30.36667 C 14.64 g/m*3 30.37 C 6.83333 km/h
904 31-08-2019 15:00:00 31.43333 C 14.19 g/m*3 31.43 C 8.2 km/h
905 31-08-2019 16:00:00 32.48333 C 14.66 g/m*3 32.48 C 6.16667 km/h
906 31-08-2019 17:00:00 33.89167 C 14.86 g/m*3 33.89 C 8.05 km/h
907 31-08-2019 18:00:00 33.71667 C 14.79 g/m*3 33.72 C 6.43333 km/h
908 31-08-2019 19:00:00 31.13333 C 15.74 g/m*3 31.13 C 0.8 km/h
909 31-08-2019 20:00:00 25.89167 C 14.52 g/m*3 25.89 C 0.4 km/h
910 31-08-2019 21:00:00 24.875 C 14.17 g/m*3 24.88 C 4.95833 km/h
911 31-08-2019 22:00:00 24.58333 C 15.85 g/m*3 24.58 C 4.81667 km/h
912 31-08-2019 23:00:00 20.69167 C 15.76 g/m*3 20.69 C 1.73333 km/h
913 01-09-2019 00:00:00 19.66667 C 15.46 g/m*3 19.67 C 0.66667 km/h
914 01-09-2019 01:00:00 19.34167 C 15.12 g/m*3 19.34 C 0.53333 km/h
915 01-09-2019 02:00:00 19.10833 C 14.09 g/m*3 19.11 C 0 km/h
916 01-09-2019 03:00:00 18.325 C 13.17 g/m*3 18.33 C 1.33333 km/h
917 01-09-2019 04:00:00 17.88333 C 12.23 g/m*3 17.88 C 2.66667 km/h
918 01-09-2019 05:00:00 17.84167 C 12.03 g/m*3 17.84 C 4.81667 km/h
919 01-09-2019 06:00:00 17.30833 C 11.73 g/m*3 17.31 C 2.80833 km/h
920 01-09-2019 07:00:00 16.1 C 11.74 g/m*3 16.1 C 0.53333 km/h
921 01-09-2019 08:00:00 17.48333 C 12.3 g/m*3 17.48 C 4.28333 km/h
922 01-09-2019 09:00:00 18.13333 C 12.46 g/m*3 18.13 C 5.75 km/h
923 01-09-2019 10:00:00 19.10833 C 12.55 g/m*3 19.11 C 7.65 km/h
924 01-09-2019 11:00:00 20.025 C 12.85 g/m*3 20.02 C 8.05833 km/h
925 01-09-2019 12:00:00 20.05 C 12.97 g/m*3 20.05 C 10.08333 km/h
Sensor: Nr:Datum:Temp:Abs-Feuchte:Windchill:Wind:
Aussen-T/F 926 01-09-2019 13:00:00 19.69167 C 13.22 g/m*3 19.69 C 11.29167 km/h
927 01-09-2019 14:00:00 20.075 C 13.13 g/m*3 20.08 C 8.04167 km/h
928 01-09-2019 15:00:00 20.61667 C 12.84 g/m*3 20.62 C 8.05 km/h
929 01-09-2019 16:00:00 20.38333 C 12.02 g/m*3 20.38 C 11.01667 km/h
930 01-09-2019 17:00:00 19.975 C 11.29 g/m*3 19.98 C 10.49167 km/h
931 01-09-2019 18:00:00 20.75833 C 10.94 g/m*3 20.76 C 10.1 km/h
932 01-09-2019 19:00:00 20.60833 C 10.37 g/m*3 20.61 C 6.725 km/h
933 01-09-2019 20:00:00 18.38333 C 10.45 g/m*3 18.38 C 1.475 km/h
934 01-09-2019 21:00:00 16.68333 C 10.27 g/m*3 16.68 C 0 km/h
935 01-09-2019 22:00:00 16.39167 C 9.96 g/m*3 16.39 C 0 km/h
936 01-09-2019 23:00:00 15.59167 C 9.97 g/m*3 15.59 C 0 km/h
937 02-09-2019 00:00:00 14.44167 C 9.36 g/m*3 14.44 C 0 km/h
938 02-09-2019 01:00:00 13.29167 C 8.99 g/m*3 13.29 C 0 km/h
939 02-09-2019 02:00:00 13.3 C 9.27 g/m*3 13.3 C 0 km/h
940 02-09-2019 03:00:00 13.025 C 9.37 g/m*3 13.03 C 0 km/h
941 02-09-2019 04:00:00 12 C 8.94 g/m*3 12 C 0.4 km/h
942 02-09-2019 05:00:00 11.21667 C 8.72 g/m*3 11.22 C 0 km/h
943 02-09-2019 06:00:00 10.15 C 8.45 g/m*3 10.15 C 0 km/h
944 02-09-2019 07:00:00 9.73333 C 8.47 g/m*3 9.73 C 0.53333 km/h
945 02-09-2019 08:00:00 10.03333 C 8.75 g/m*3 10.03 C 0 km/h
946 02-09-2019 09:00:00 10.83333 C 9.17 g/m*3 10.83 C 0 km/h
947 02-09-2019 10:00:00 12.85833 C 9.9 g/m*3 12.86 C 0.8 km/h
948 02-09-2019 11:00:00 16.2 C 9.16 g/m*3 16.2 C 7.93333 km/h
949 02-09-2019 12:00:00 17.53333 C 8.44 g/m*3 17.53 C 8.74167 km/h
950 02-09-2019 13:00:00 18.70833 C 7.96 g/m*3 18.71 C 9.95833 km/h
Sensor: Nr:Datum:Temp:Abs-Feuchte:Windchill:Wind:
Aussen-T/F 951 02-09-2019 14:00:00 19.83333 C 7.92 g/m*3 19.83 C 9.28333 km/h
952 02-09-2019 15:00:00 20.175 C 7.9 g/m*3 20.18 C 7.90833 km/h
953 02-09-2019 16:00:00 21.80833 C 7.98 g/m*3 21.81 C 9.68333 km/h
954 02-09-2019 17:00:00 23.09167 C 7.83 g/m*3 23.09 C 6.70833 km/h
955 02-09-2019 18:00:00 22.99167 C 7.67 g/m*3 22.99 C 5.48333 km/h
956 02-09-2019 19:00:00 20.575 C 8.35 g/m*3 20.58 C 1.2 km/h
957 02-09-2019 20:00:00 16.9 C 8.1 g/m*3 16.9 C 0.93333 km/h
958 02-09-2019 21:00:00 15.39167 C 7.97 g/m*3 15.39 C 0.26667 km/h
959 02-09-2019 22:00:00 13.475 C 8.19 g/m*3 13.48 C 0 km/h
960 02-09-2019 23:00:00 12.98333 C 8.24 g/m*3 12.98 C 0 km/h
961 03-09-2019 00:00:00 12.39167 C 8.17 g/m*3 12.39 C 0 km/h
962 03-09-2019 01:00:00 12.125 C 8.22 g/m*3 12.13 C 0 km/h
963 03-09-2019 02:00:00 10.89167 C 7.86 g/m*3 10.89 C 0 km/h
964 03-09-2019 03:00:00 10.175 C 7.75 g/m*3 10.18 C 0 km/h
965 03-09-2019 04:00:00 10.08333 C 7.92 g/m*3 10.08 C 0 km/h
966 03-09-2019 05:00:00 9.45 C 7.72 g/m*3 9.45 C 0 km/h
967 03-09-2019 06:00:00 8.91667 C 7.64 g/m*3 8.92 C 0 km/h
968 03-09-2019 07:00:00 8.65833 C 7.66 g/m*3 8.66 C 0.13333 km/h
969 03-09-2019 08:00:00 9.08333 C 7.95 g/m*3 9.08 C 0 km/h
970 03-09-2019 09:00:00 10.375 C 8.56 g/m*3 10.38 C 0.26667 km/h
971 03-09-2019 10:00:00 13.225 C 9.38 g/m*3 13.23 C 1.46667 km/h
972 03-09-2019 11:00:00 17.34167 C 9.34 g/m*3 17.34 C 5.90833 km/h
973 03-09-2019 12:00:00 19.95833 C 9.22 g/m*3 19.96 C 8.18333 km/h
974 03-09-2019 13:00:00 21.25 C 9.23 g/m*3 21.25 C 11.55833 km/h
975 03-09-2019 14:00:00 22.64167 C 9.16 g/m*3 22.64 C 10.35 km/h
Sensor: Nr:Datum:Temp:Abs-Feuchte:Windchill:Wind:
Aussen-T/F 976 03-09-2019 15:00:00 23.75 C 9.83 g/m*3 23.75 C 10.20833 km/h
977 03-09-2019 16:00:00 23.58333 C 10.59 g/m*3 23.58 C 10.75 km/h
978 03-09-2019 17:00:00 23.65 C 10.86 g/m*3 23.65 C 11.7 km/h
979 03-09-2019 18:00:00 23.225 C 10.95 g/m*3 23.23 C 10.63333 km/h
980 03-09-2019 19:00:00 21.11667 C 10.84 g/m*3 21.12 C 7.91667 km/h
981 03-09-2019 20:00:00 18.86667 C 10.66 g/m*3 18.87 C 2.40833 km/h
982 03-09-2019 21:00:00 16.325 C 10.42 g/m*3 16.33 C 0 km/h
983 03-09-2019 22:00:00 15.33333 C 10.37 g/m*3 15.33 C 0.13333 km/h
984 03-09-2019 23:00:00 14.05 C 10.08 g/m*3 14.05 C 0 km/h
985 04-09-2019 00:00:00 13.05 C 9.9 g/m*3 13.05 C 0 km/h
986 04-09-2019 01:00:00 12.35 C 9.74 g/m*3 12.35 C 0 km/h
987 04-09-2019 02:00:00 11.85833 C 9.58 g/m*3 11.86 C 0 km/h
988 04-09-2019 03:00:00 11.325 C 9.39 g/m*3 11.33 C 0 km/h
989 04-09-2019 04:00:00 10.74167 C 9.12 g/m*3 10.74 C 0 km/h
990 04-09-2019 05:00:00 10.36667 C 9 g/m*3 10.37 C 0 km/h
991 04-09-2019 06:00:00 10.15833 C 8.95 g/m*3 10.16 C 0 km/h
992 04-09-2019 07:00:00 10.09167 C 8.96 g/m*3 10.09 C 0 km/h
993 04-09-2019 08:00:00 10.675 C 9.35 g/m*3 10.68 C 0.4 km/h
994 04-09-2019 09:00:00 13.11667 C 10.54 g/m*3 13.12 C 4.26667 km/h
995 04-09-2019 10:00:00 14.875 C 10.87 g/m*3 14.88 C 3.73333 km/h
996 04-09-2019 11:00:00 18.09167 C 11.22 g/m*3 18.09 C 11.68333 km/h
997 04-09-2019 12:00:00 19.78333 C 11.25 g/m*3 19.78 C 12.1 km/h
998 04-09-2019 13:00:00 21.16667 C 11.47 g/m*3 21.17 C 12.63333 km/h
999 04-09-2019 14:00:00 22.59167 C 11.56 g/m*3 22.59 C 14.63333 km/h
1000 04-09-2019 15:00:00 23.85 C 11.54 g/m*3 23.85 C 11.01667 km/h
Sensor: Nr:Datum:Temp:Abs-Feuchte:Windchill:Wind:
Aussen-T/F 1001 04-09-2019 16:00:00 25.11667 C 11.74 g/m*3 25.12 C 11.825 km/h
1002 04-09-2019 17:00:00 26.875 C 11.46 g/m*3 26.88 C 10.35 km/h
1003 04-09-2019 18:00:00 25.04167 C 10.84 g/m*3 25.04 C 14.49167 km/h
1004 04-09-2019 19:00:00 23.58333 C 11.1 g/m*3 23.58 C 9.65833 km/h
1005 04-09-2019 20:00:00 19.81667 C 11.87 g/m*3 19.82 C 9.50833 km/h
1006 04-09-2019 21:00:00 17.625 C 12.77 g/m*3 17.63 C 0.53333 km/h
1007 04-09-2019 22:00:00 16.28333 C 12.52 g/m*3 16.28 C 0.53333 km/h
1008 04-09-2019 23:00:00 15.64167 C 12.12 g/m*3 15.64 C 0.4 km/h
1009 05-09-2019 00:00:00 15.6 C 12.1 g/m*3 15.6 C 0 km/h
1010 05-09-2019 01:00:00 15.41667 C 11.73 g/m*3 15.42 C 1.33333 km/h
1011 05-09-2019 02:00:00 14.29167 C 10.66 g/m*3 14.29 C 1.06667 km/h
1012 05-09-2019 03:00:00 13.975 C 10.44 g/m*3 13.98 C 1.6 km/h
1013 05-09-2019 04:00:00 14.075 C 10.3 g/m*3 14.08 C 3.06667 km/h
1014 05-09-2019 05:00:00 13.48333 C 9.83 g/m*3 13.48 C 3.875 km/h
1015 05-09-2019 06:00:00 12.56667 C 9.49 g/m*3 12.57 C 4.13333 km/h
1016 05-09-2019 07:00:00 12.20833 C 9.38 g/m*3 12.21 C 5.49167 km/h
1017 05-09-2019 08:00:00 12.58333 C 9.44 g/m*3 12.58 C 8.75833 km/h
1018 05-09-2019 09:00:00 13.59167 C 9.67 g/m*3 13.59 C 7.65833 km/h
1019 05-09-2019 10:00:00 15.475 C 10.21 g/m*3 15.48 C 9.95 km/h
1020 05-09-2019 11:00:00 16.775 C 10.05 g/m*3 16.77 C 14.24167 km/h
1021 05-09-2019 12:00:00 17.09167 C 9.8 g/m*3 17.09 C 10.48333 km/h
1022 05-09-2019 13:00:00 18.1 C 9.41 g/m*3 18.1 C 10.225 km/h
1023 05-09-2019 14:00:00 18.09167 C 9.72 g/m*3 18.09 C 13.03333 km/h
1024 05-09-2019 15:00:00 18.5 C 9.11 g/m*3 18.5 C 11.15833 km/h
1025 05-09-2019 16:00:00 18.91667 C 9.07 g/m*3 18.92 C 13.16667 km/h
Sensor: Nr:Datum:Temp:Abs-Feuchte:Windchill:Wind:
Aussen-T/F 1026 05-09-2019 17:00:00 17.225 C 9.36 g/m*3 17.23 C 15.43333 km/h
1027 05-09-2019 18:00:00 16.4 C 9.44 g/m*3 16.4 C 8.59167 km/h
1028 05-09-2019 19:00:00 16.46667 C 9.02 g/m*3 16.47 C 6.325 km/h
1029 05-09-2019 20:00:00 15.70833 C 9.25 g/m*3 15.71 C 6.71667 km/h
1030 05-09-2019 21:00:00 14.93333 C 8.97 g/m*3 14.93 C 5.35833 km/h
1031 05-09-2019 22:00:00 14.49167 C 9.01 g/m*3 14.49 C 2.53333 km/h
1032 05-09-2019 23:00:00 13.94167 C 8.89 g/m*3 13.94 C 1.875 km/h
1033 06-09-2019 00:00:00 12.025 C 8.52 g/m*3 12.03 C 0.4 km/h
1034 06-09-2019 01:00:00 11.23333 C 8.41 g/m*3 11.23 C 1.73333 km/h
1035 06-09-2019 02:00:00 10.40833 C 8.34 g/m*3 10.41 C 0 km/h
1036 06-09-2019 03:00:00 9.875 C 8.21 g/m*3 9.88 C 0.13333 km/h
1037 06-09-2019 04:00:00 9.00833 C 7.89 g/m*3 9.01 C 0 km/h
1038 06-09-2019 05:00:00 8.075 C 7.6 g/m*3 8.07 C 0 km/h
1039 06-09-2019 06:00:00 7.56667 C 7.46 g/m*3 7.57 C 0 km/h
1040 06-09-2019 07:00:00 7.31667 C 7.41 g/m*3 7.32 C 0 km/h
1041 06-09-2019 08:00:00 7.85 C 7.77 g/m*3 7.85 C 0 km/h
1042 06-09-2019 09:00:00 8.75 C 8.25 g/m*3 8.75 C 0 km/h
1043 06-09-2019 10:00:00 10.175 C 9.03 g/m*3 10.18 C 0.13333 km/h
1044 06-09-2019 11:00:00 12.55833 C 9.18 g/m*3 12.56 C 1.73333 km/h
1045 06-09-2019 12:00:00 15.03333 C 8.28 g/m*3 15.03 C 4.00833 km/h
1046 06-09-2019 13:00:00 16.51667 C 8.14 g/m*3 16.52 C 4.4 km/h
1047 06-09-2019 14:00:00 18.3 C 7.75 g/m*3 18.3 C 8.325 km/h
1048 06-09-2019 15:00:00 19.475 C 7.53 g/m*3 19.48 C 9.26667 km/h
1049 06-09-2019 16:00:00 20.7 C 7.17 g/m*3 20.7 C 7.24167 km/h
1050 06-09-2019 17:00:00 22.36667 C 7.38 g/m*3 22.37 C 7.79167 km/h
Sensor: Nr:Datum:Temp:Abs-Feuchte:Windchill:Wind:
Aussen-T/F 1051 06-09-2019 18:00:00 22.25 C 7.74 g/m*3 22.25 C 6.975 km/h
1052 06-09-2019 19:00:00 19.41667 C 8.07 g/m*3 19.42 C 0.8 km/h
1053 06-09-2019 20:00:00 16.04167 C 7.71 g/m*3 16.04 C 0 km/h
1054 06-09-2019 21:00:00 14.65 C 7.6 g/m*3 14.65 C 0 km/h
1055 06-09-2019 22:00:00 12.74167 C 7.65 g/m*3 12.74 C 0.26667 km/h
1056 06-09-2019 23:00:00 12.69167 C 7.95 g/m*3 12.69 C 2 km/h
1057 07-09-2019 00:00:00 12.25833 C 7.99 g/m*3 12.26 C 0.93333 km/h
1058 07-09-2019 01:00:00 12.41667 C 8.06 g/m*3 12.42 C 1.73333 km/h
1059 07-09-2019 02:00:00 12.19167 C 8.09 g/m*3 12.19 C 1.73333 km/h
1060 07-09-2019 03:00:00 12.375 C 8.15 g/m*3 12.38 C 3.33333 km/h
1061 07-09-2019 04:00:00 12.69167 C 8.26 g/m*3 12.69 C 3.89167 km/h
1062 07-09-2019 05:00:00 12.64167 C 8.27 g/m*3 12.64 C 1.075 km/h
1063 07-09-2019 06:00:00 12.29167 C 8.35 g/m*3 12.29 C 0 km/h
1064 07-09-2019 07:00:00 11.96667 C 9.01 g/m*3 11.97 C 0.13333 km/h
1065 07-09-2019 08:00:00 11.78333 C 9.52 g/m*3 11.78 C 0.13333 km/h
1066 07-09-2019 09:00:00 11.80833 C 9.78 g/m*3 11.81 C 0 km/h
1067 07-09-2019 10:00:00 12.225 C 10.16 g/m*3 12.23 C 0 km/h
1068 07-09-2019 11:00:00 12.80833 C 10.52 g/m*3 12.81 C 0.4 km/h
1069 07-09-2019 12:00:00 13.475 C 10.93 g/m*3 13.48 C 1.06667 km/h
1070 07-09-2019 13:00:00 14.19167 C 11.31 g/m*3 14.19 C 1.06667 km/h
1071 07-09-2019 14:00:00 14.46667 C 11.38 g/m*3 14.47 C 1.73333 km/h
1072 07-09-2019 15:00:00 14.93333 C 11.53 g/m*3 14.93 C 3.73333 km/h
1073 07-09-2019 16:00:00 15.25 C 11.63 g/m*3 15.25 C 0.93333 km/h
1074 07-09-2019 17:00:00 15.30833 C 11.66 g/m*3 15.31 C 3.21667 km/h
1075 07-09-2019 18:00:00 14.29167 C 11.14 g/m*3 14.29 C 0.93333 km/h
Sensor: Nr:Datum:Temp:Abs-Feuchte:Windchill:Wind:
Aussen-T/F 1076 07-09-2019 19:00:00 13.34167 C 10.59 g/m*3 13.34 C 0.66667 km/h
1077 07-09-2019 20:00:00 12.64167 C 10.32 g/m*3 12.64 C 0.13333 km/h
1078 07-09-2019 21:00:00 12.00833 C 9.95 g/m*3 12.01 C 0 km/h
1079 07-09-2019 22:00:00 11.8 C 9.94 g/m*3 11.8 C 0 km/h
1080 07-09-2019 23:00:00 11.725 C 9.95 g/m*3 11.73 C 0 km/h
1081 08-09-2019 00:00:00 11.7 C 9.94 g/m*3 11.7 C 0 km/h
1082 08-09-2019 01:00:00 11.75833 C 10.04 g/m*3 11.76 C 0 km/h
1083 08-09-2019 02:00:00 11.29167 C 9.74 g/m*3 11.29 C 0 km/h
1084 08-09-2019 03:00:00 11.3 C 9.79 g/m*3 11.3 C 0 km/h
1085 08-09-2019 04:00:00 11.7 C 10.08 g/m*3 11.7 C 0 km/h
1086 08-09-2019 05:00:00 11.90833 C 10.17 g/m*3 11.91 C 0 km/h
1087 08-09-2019 06:00:00 12.075 C 10.36 g/m*3 12.08 C 0.13333 km/h
1088 08-09-2019 07:00:00 12.20833 C 10.41 g/m*3 12.21 C 0.4 km/h
1089 08-09-2019 08:00:00 12.31667 C 10.43 g/m*3 12.32 C 1.46667 km/h
1090 08-09-2019 09:00:00 12.325 C 10.38 g/m*3 12.33 C 4.13333 km/h
1091 08-09-2019 10:00:00 12.575 C 10.57 g/m*3 12.58 C 0 km/h
1092 08-09-2019 11:00:00 12.625 C 10.64 g/m*3 12.63 C 0.4 km/h
1093 08-09-2019 12:00:00 12.81667 C 10.75 g/m*3 12.82 C 2.53333 km/h
1094 08-09-2019 13:00:00 13.94167 C 11.24 g/m*3 13.94 C 1.6 km/h
1095 08-09-2019 14:00:00 14.875 C 11.24 g/m*3 14.88 C 3.6 km/h
1096 08-09-2019 15:00:00 15.73333 C 11.27 g/m*3 15.73 C 1.6 km/h
1097 08-09-2019 16:00:00 15.65833 C 11.32 g/m*3 15.66 C 1.46667 km/h
1098 08-09-2019 17:00:00 13.49167 C 10.83 g/m*3 13.49 C 2.53333 km/h
1099 08-09-2019 18:00:00 12.8 C 10.56 g/m*3 12.8 C 0.8 km/h
1100 08-09-2019 19:00:00 12.96667 C 10.8 g/m*3 12.97 C 0 km/h
Sensor: Nr:Datum:Temp:Abs-Feuchte:Windchill:Wind:
Aussen-T/F 1101 08-09-2019 20:00:00 12.56667 C 10.5 g/m*3 12.57 C 3.35 km/h
1102 08-09-2019 21:00:00 12.1 C 10.23 g/m*3 12.1 C 0.53333 km/h
1103 08-09-2019 22:00:00 11.81667 C 10.11 g/m*3 11.82 C 0 km/h
1104 08-09-2019 23:00:00 11.71667 C 10.05 g/m*3 11.72 C 0 km/h
1105 09-09-2019 00:00:00 11.45 C 9.88 g/m*3 11.45 C 0 km/h
1106 09-09-2019 01:00:00 11.26667 C 9.78 g/m*3 11.27 C 0.26667 km/h
1107 09-09-2019 02:00:00 11.29167 C 9.87 g/m*3 11.29 C 0 km/h
1108 09-09-2019 03:00:00 11.36667 C 9.94 g/m*3 11.37 C 0 km/h
1109 09-09-2019 04:00:00 11.36667 C 9.94 g/m*3 11.37 C 0 km/h
1110 09-09-2019 05:00:00 11.29167 C 9.89 g/m*3 11.29 C 0 km/h
1111 09-09-2019 06:00:00 11.3 C 9.89 g/m*3 11.3 C 0 km/h
1112 09-09-2019 07:00:00 11.275 C 9.88 g/m*3 11.28 C 0 km/h
1113 09-09-2019 08:00:00 11.39167 C 9.95 g/m*3 11.39 C 0 km/h
1114 09-09-2019 09:00:00 12.01667 C 10.35 g/m*3 12.02 C 0.26667 km/h
1115 09-09-2019 10:00:00 12.23333 C 10.49 g/m*3 12.23 C 0.13333 km/h
1116 09-09-2019 11:00:00 12.55833 C 10.62 g/m*3 12.56 C 2.66667 km/h
1117 09-09-2019 12:00:00 13.15 C 10.48 g/m*3 13.15 C 1.73333 km/h
1118 09-09-2019 13:00:00 14.2 C 10.57 g/m*3 14.2 C 2.4 km/h
1119 09-09-2019 14:00:00 14.81667 C 10.11 g/m*3 14.82 C 1.73333 km/h
1120 09-09-2019 15:00:00 15.175 C 10.39 g/m*3 15.18 C 0.8 km/h
1121 09-09-2019 16:00:00 15.475 C 10.21 g/m*3 15.48 C 1.06667 km/h
1122 09-09-2019 17:00:00 15.74167 C 9.89 g/m*3 15.74 C 1.33333 km/h
1123 09-09-2019 18:00:00 16.33333 C 10.25 g/m*3 16.33 C 1.46667 km/h
1124 09-09-2019 19:00:00 14.35 C 10.11 g/m*3 14.35 C 0.53333 km/h
1125 09-09-2019 20:00:00 12.00833 C 9.36 g/m*3 12.01 C 0.4 km/h
Sensor: Nr:Datum:Temp:Abs-Feuchte:Windchill:Wind:
Aussen-T/F 1126 09-09-2019 21:00:00 10.79167 C 8.96 g/m*3 10.79 C 0.13333 km/h
1127 09-09-2019 22:00:00 10.05 C 8.74 g/m*3 10.05 C 0 km/h
1128 09-09-2019 23:00:00 9.30833 C 8.44 g/m*3 9.31 C 0 km/h
1129 10-09-2019 00:00:00 8.75833 C 8.22 g/m*3 8.76 C 0 km/h
1130 10-09-2019 01:00:00 8.44167 C 8.09 g/m*3 8.44 C 0 km/h
1131 10-09-2019 02:00:00 8.3 C 8.07 g/m*3 8.3 C 0 km/h
1132 10-09-2019 03:00:00 8.625 C 8.26 g/m*3 8.63 C 0.53333 km/h
1133 10-09-2019 04:00:00 8.65 C 8.28 g/m*3 8.65 C 0.66667 km/h
1134 10-09-2019 05:00:00 8.55833 C 8.24 g/m*3 8.56 C 0.26667 km/h
1135 10-09-2019 06:00:00 8.2 C 8.1 g/m*3 8.2 C 0.8 km/h
1136 10-09-2019 07:00:00 8.225 C 8.14 g/m*3 8.23 C 0.13333 km/h
1137 10-09-2019 08:00:00 8.21667 C 8.13 g/m*3 8.22 C 2.26667 km/h
1138 10-09-2019 09:00:00 8.45833 C 8.26 g/m*3 8.46 C 2.13333 km/h
1139 10-09-2019 10:00:00 9.05 C 8.58 g/m*3 9.05 C 1.33333 km/h
1140 10-09-2019 11:00:00 9.94167 C 9.08 g/m*3 9.94 C 2.26667 km/h
1141 10-09-2019 12:00:00 11.78333 C 9.92 g/m*3 11.78 C 0.4 km/h
1142 10-09-2019 13:00:00 14.85833 C 9.92 g/m*3 14.86 C 1.6 km/h
1143 10-09-2019 14:00:00 17.25 C 9.44 g/m*3 17.25 C 3.60833 km/h
1144 10-09-2019 15:00:00 18.43333 C 9.19 g/m*3 18.43 C 5.36667 km/h
1145 10-09-2019 16:00:00 19.65 C 8.8 g/m*3 19.65 C 8.20833 km/h
1146 10-09-2019 17:00:00 18.38333 C 10.55 g/m*3 18.38 C 0.8 km/h
1147 10-09-2019 18:00:00 18.33333 C 10.97 g/m*3 18.33 C 0 km/h
1148 10-09-2019 19:00:00 16.4 C 10.1 g/m*3 16.4 C 0.13333 km/h
1149 10-09-2019 20:00:00 13.775 C 8.93 g/m*3 13.78 C 0 km/h
1150 10-09-2019 21:00:00 12.03333 C 8.86 g/m*3 12.03 C 0 km/h
Sensor: Nr:Datum:Temp:Abs-Feuchte:Windchill:Wind:
Aussen-T/F 1151 10-09-2019 22:00:00 10.66667 C 8.52 g/m*3 10.67 C 0 km/h
1152 10-09-2019 23:00:00 9.78333 C 8.23 g/m*3 9.78 C 0 km/h
1153 11-09-2019 00:00:00 9.2 C 8.04 g/m*3 9.2 C 0 km/h
1154 11-09-2019 01:00:00 8.61667 C 7.86 g/m*3 8.62 C 0 km/h
1155 11-09-2019 02:00:00 8.04167 C 7.69 g/m*3 8.04 C 0.13333 km/h
1156 11-09-2019 03:00:00 7.64167 C 7.55 g/m*3 7.64 C 0 km/h
1157 11-09-2019 04:00:00 7.26667 C 7.41 g/m*3 7.27 C 0 km/h
1158 11-09-2019 05:00:00 6.90833 C 7.3 g/m*3 6.91 C 0 km/h
1159 11-09-2019 06:00:00 6.65833 C 7.2 g/m*3 6.66 C 0 km/h
1160 11-09-2019 07:00:00 6.55 C 7.2 g/m*3 6.55 C 0.675 km/h
1161 11-09-2019 08:00:00 7.99167 C 7.97 g/m*3 7.99 C 1.60833 km/h
1162 11-09-2019 09:00:00 9.51667 C 8.59 g/m*3 9.52 C 2.8 km/h
1163 11-09-2019 10:00:00 10.85 C 9.29 g/m*3 10.85 C 0 km/h
1164 11-09-2019 11:00:00 13.10833 C 10.13 g/m*3 13.11 C 1.6 km/h
1165 11-09-2019 12:00:00 17.29167 C 9.85 g/m*3 17.29 C 9.41667 km/h
1166 11-09-2019 13:00:00 19.9 C 9.95 g/m*3 19.9 C 12.75833 km/h
1167 11-09-2019 14:00:00 20.58333 C 9.88 g/m*3 20.58 C 16.5 km/h
1168 11-09-2019 15:00:00 20.53333 C 10.07 g/m*3 20.53 C 10.225 km/h
1169 11-09-2019 16:00:00 20.03333 C 11.17 g/m*3 20.03 C 4.825 km/h
1170 11-09-2019 17:00:00 19.16667 C 10.86 g/m*3 19.17 C 8.45833 km/h
1171 11-09-2019 18:00:00 18.35833 C 10.7 g/m*3 18.36 C 3.75833 km/h
1172 11-09-2019 19:00:00 17.26667 C 10.41 g/m*3 17.27 C 3.20833 km/h
1173 11-09-2019 20:00:00 16.50833 C 10.64 g/m*3 16.51 C 0.93333 km/h
1174 11-09-2019 21:00:00 16.275 C 10.82 g/m*3 16.27 C 0.93333 km/h
1175 11-09-2019 22:00:00 16.41667 C 11.06 g/m*3 16.42 C 0.93333 km/h
Sensor: Nr:Datum:Temp:Abs-Feuchte:Windchill:Wind:
Aussen-T/F 1176 11-09-2019 23:00:00 15.7 C 11.15 g/m*3 15.7 C 0.93333 km/h
1177 12-09-2019 00:00:00 15.51667 C 10.97 g/m*3 15.52 C 1.86667 km/h
1178 12-09-2019 01:00:00 16.14167 C 11.09 g/m*3 16.14 C 1.74167 km/h
1179 12-09-2019 02:00:00 17.23333 C 10.81 g/m*3 17.23 C 6.975 km/h
1180 12-09-2019 03:00:00 17.24167 C 11 g/m*3 17.24 C 6.70833 km/h
1181 12-09-2019 04:00:00 17.05 C 11.08 g/m*3 17.05 C 2.93333 km/h
1182 12-09-2019 05:00:00 16.975 C 11.25 g/m*3 16.98 C 8.31667 km/h
1183 12-09-2019 06:00:00 16.9 C 11.4 g/m*3 16.9 C 5.75833 km/h
1184 12-09-2019 07:00:00 16.24167 C 11.53 g/m*3 16.24 C 0.8 km/h
1185 12-09-2019 08:00:00 16.83333 C 12.06 g/m*3 16.83 C 5.76667 km/h
1186 12-09-2019 09:00:00 17.40833 C 12.53 g/m*3 17.41 C 9.025 km/h
1187 12-09-2019 10:00:00 18.21667 C 13.08 g/m*3 18.22 C 11.15833 km/h
1188 12-09-2019 11:00:00 19.21667 C 13.52 g/m*3 19.22 C 9.01667 km/h
1189 12-09-2019 12:00:00 20.25833 C 13.93 g/m*3 20.26 C 10.34167 km/h
1190 12-09-2019 13:00:00 20.9 C 14.27 g/m*3 20.9 C 7.79167 km/h
1191 12-09-2019 14:00:00 21.38333 C 14.69 g/m*3 21.38 C 1.6 km/h
1192 12-09-2019 15:00:00 22.25833 C 14.77 g/m*3 22.26 C 4.025 km/h
1193 12-09-2019 16:00:00 22.95 C 14.67 g/m*3 22.95 C 7.91667 km/h
1194 12-09-2019 17:00:00 24.44167 C 14.46 g/m*3 24.44 C 11.83333 km/h
1195 12-09-2019 18:00:00 24.95833 C 14.66 g/m*3 24.96 C 6.56667 km/h
1196 12-09-2019 19:00:00 22.86667 C 14.23 g/m*3 22.87 C 0.53333 km/h
1197 12-09-2019 20:00:00 19.11667 C 13.29 g/m*3 19.12 C 0.4 km/h
1198 12-09-2019 21:00:00 18.225 C 13.19 g/m*3 18.23 C 0.26667 km/h
1199 12-09-2019 22:00:00 18.35 C 13.17 g/m*3 18.35 C 0.4 km/h
1200 12-09-2019 23:00:00 17.06667 C 12.6 g/m*3 17.07 C 0 km/h
Sensor: Nr:Datum:Temp:Abs-Feuchte:Windchill:Wind:
Aussen-T/F 1201 13-09-2019 00:00:00 15.98333 C 12.26 g/m*3 15.98 C 0.93333 km/h
1202 13-09-2019 01:00:00 15.55 C 12.18 g/m*3 15.55 C 3.6 km/h
1203 13-09-2019 02:00:00 15.25 C 12.05 g/m*3 15.25 C 1.46667 km/h
1204 13-09-2019 03:00:00 15.1 C 12.07 g/m*3 15.1 C 1.06667 km/h
1205 13-09-2019 04:00:00 15.575 C 12.4 g/m*3 15.58 C 2.93333 km/h
1206 13-09-2019 05:00:00 16.19167 C 12.55 g/m*3 16.19 C 6.84167 km/h
1207 13-09-2019 06:00:00 16.25833 C 12.58 g/m*3 16.26 C 4.3 km/h
1208 13-09-2019 07:00:00 16.64167 C 12.75 g/m*3 16.64 C 2.94167 km/h
1209 13-09-2019 08:00:00 16.85833 C 13.01 g/m*3 16.86 C 0.8 km/h
1210 13-09-2019 09:00:00 17.49167 C 13.31 g/m*3 17.49 C 2 km/h
1211 13-09-2019 10:00:00 18.51667 C 13.63 g/m*3 18.52 C 0.8 km/h
1212 13-09-2019 11:00:00 19.6 C 13.91 g/m*3 19.6 C 2.8 km/h
1213 13-09-2019 12:00:00 20.35 C 14.02 g/m*3 20.35 C 1.2 km/h
1214 13-09-2019 13:00:00 20.60833 C 13.82 g/m*3 20.61 C 4.675 km/h
1215 13-09-2019 14:00:00 21.16667 C 14.03 g/m*3 21.17 C 6.15833 km/h
1216 13-09-2019 15:00:00 20.85833 C 14.13 g/m*3 20.86 C 12.76667 km/h
1217 13-09-2019 16:00:00 19.325 C 14.49 g/m*3 19.33 C 5.90833 km/h
1218 13-09-2019 17:00:00 19.20833 C 14.74 g/m*3 19.21 C 0 km/h
1219 13-09-2019 18:00:00 20 C 15.42 g/m*3 20 C 0 km/h
1220 13-09-2019 19:00:00 19.48333 C 14.46 g/m*3 19.48 C 0 km/h
1221 13-09-2019 20:00:00 17.60833 C 13.73 g/m*3 17.61 C 0.26667 km/h
1222 13-09-2019 21:00:00 16.95 C 13.39 g/m*3 16.95 C 0 km/h
1223 13-09-2019 22:00:00 16.25833 C 12.87 g/m*3 16.26 C 0 km/h
1224 13-09-2019 23:00:00 15.48333 C 12.38 g/m*3 15.48 C 0 km/h
1225 14-09-2019 00:00:00 15.39167 C 12.41 g/m*3 15.39 C 0 km/h
Sensor: Nr:Datum:Temp:Abs-Feuchte:Windchill:Wind:
Aussen-T/F 1226 14-09-2019 01:00:00 14.63333 C 11.86 g/m*3 14.63 C 0 km/h
1227 14-09-2019 02:00:00 13.525 C 11.07 g/m*3 13.53 C 0 km/h
1228 14-09-2019 03:00:00 12.70833 C 10.58 g/m*3 12.71 C 0 km/h
1229 14-09-2019 04:00:00 12.00833 C 10.18 g/m*3 12.01 C 0 km/h
1230 14-09-2019 05:00:00 11.31667 C 9.79 g/m*3 11.32 C 0 km/h
1231 14-09-2019 06:00:00 10.78333 C 9.48 g/m*3 10.78 C 0 km/h
1232 14-09-2019 07:00:00 10.4 C 9.25 g/m*3 10.4 C 0 km/h
1233 14-09-2019 08:00:00 10.40833 C 9.26 g/m*3 10.41 C 0 km/h
1234 14-09-2019 09:00:00 11.00833 C 9.71 g/m*3 11.01 C 0.13333 km/h
1235 14-09-2019 10:00:00 12.25833 C 10.51 g/m*3 12.26 C 0.26667 km/h
1236 14-09-2019 11:00:00 13.69167 C 11.26 g/m*3 13.69 C 0.26667 km/h
1237 14-09-2019 12:00:00 16.14167 C 11.54 g/m*3 16.14 C 0.8 km/h
1238 14-09-2019 13:00:00 18.675 C 11.2 g/m*3 18.68 C 3.74167 km/h
1239 14-09-2019 14:00:00 20.43333 C 11.02 g/m*3 20.43 C 4.95 km/h
1240 14-09-2019 15:00:00 21.74167 C 10.66 g/m*3 21.74 C 5.35833 km/h
1241 14-09-2019 16:00:00 22.44167 C 10.43 g/m*3 22.44 C 4.3 km/h
1242 14-09-2019 17:00:00 24.14167 C 10.29 g/m*3 24.14 C 4.81667 km/h
1243 14-09-2019 18:00:00 23.6 C 11.63 g/m*3 23.6 C 0 km/h
1244 14-09-2019 19:00:00 19.45833 C 10.87 g/m*3 19.46 C 0.13333 km/h
1245 14-09-2019 20:00:00 16.95833 C 10.12 g/m*3 16.96 C 0 km/h
1246 14-09-2019 21:00:00 15.96667 C 10.01 g/m*3 15.97 C 0 km/h
1247 14-09-2019 22:00:00 13.8 C 9.68 g/m*3 13.8 C 0 km/h
1248 14-09-2019 23:00:00 12.48333 C 9.38 g/m*3 12.48 C 0 km/h
1249 15-09-2019 00:00:00 11.65 C 9.12 g/m*3 11.65 C 0 km/h
1250 15-09-2019 01:00:00 10.825 C 8.89 g/m*3 10.83 C 0 km/h
Sensor: Nr:Datum:Temp:Abs-Feuchte:Windchill:Wind:
Aussen-T/F 1251 15-09-2019 02:00:00 10.375 C 8.83 g/m*3 10.38 C 0 km/h
1252 15-09-2019 03:00:00 10.16667 C 8.79 g/m*3 10.17 C 0.13333 km/h
1253 15-09-2019 04:00:00 9.75833 C 8.61 g/m*3 9.76 C 0.13333 km/h
1254 15-09-2019 05:00:00 9.31667 C 8.46 g/m*3 9.32 C 0 km/h
1255 15-09-2019 06:00:00 8.76667 C 8.17 g/m*3 8.77 C 0 km/h
1256 15-09-2019 07:00:00 8.775 C 8.26 g/m*3 8.78 C 0.53333 km/h
1257 15-09-2019 08:00:00 9.29167 C 8.62 g/m*3 9.29 C 0.53333 km/h
1258 15-09-2019 09:00:00 10.03333 C 9.04 g/m*3 10.03 C 0 km/h
1259 15-09-2019 10:00:00 11.35833 C 9.83 g/m*3 11.36 C 0 km/h
1260 15-09-2019 11:00:00 13.71667 C 11.23 g/m*3 13.72 C 0 km/h
1261 15-09-2019 12:00:00 16.96667 C 12.32 g/m*3 16.97 C 0 km/h
1262 15-09-2019 13:00:00 20.45833 C 12.4 g/m*3 20.46 C 0 km/h
1263 15-09-2019 14:00:00 22.79167 C 12.41 g/m*3 22.79 C 0.53333 km/h
1264 15-09-2019 15:00:00 24.05 C 12.35 g/m*3 24.05 C 0.53333 km/h
1265 15-09-2019 16:00:00 24.65833 C 11.93 g/m*3 24.66 C 2.66667 km/h
1266 15-09-2019 17:00:00 25.84167 C 11.52 g/m*3 25.84 C 1.6 km/h
1267 15-09-2019 18:00:00 26.43333 C 11.47 g/m*3 26.43 C 0.4 km/h
1268 15-09-2019 19:00:00 21.96667 C 11.11 g/m*3 21.97 C 0 km/h
1269 15-09-2019 20:00:00 18.225 C 9.86 g/m*3 18.23 C 0 km/h
1270 15-09-2019 21:00:00 16.76667 C 9.56 g/m*3 16.77 C 0 km/h
1271 15-09-2019 22:00:00 14.475 C 9.48 g/m*3 14.48 C 0 km/h
1272 15-09-2019 23:00:00 12.99167 C 9.21 g/m*3 12.99 C 0 km/h
1273 16-09-2019 00:00:00 12.55 C 9.24 g/m*3 12.55 C 0 km/h
1274 16-09-2019 01:00:00 12.25833 C 9.26 g/m*3 12.26 C 0.53333 km/h
1275 16-09-2019 02:00:00 11.41667 C 9.02 g/m*3 11.42 C 0.26667 km/h
Sensor: Nr:Datum:Temp:Abs-Feuchte:Windchill:Wind:
Aussen-T/F 1276 16-09-2019 03:00:00 11.11667 C 9.09 g/m*3 11.12 C 0.4 km/h
1277 16-09-2019 04:00:00 11.45833 C 9.31 g/m*3 11.46 C 0.66667 km/h
1278 16-09-2019 05:00:00 11.51667 C 9.27 g/m*3 11.52 C 0.4 km/h
1279 16-09-2019 06:00:00 11.23333 C 9.22 g/m*3 11.23 C 0 km/h
1280 16-09-2019 07:00:00 11.31667 C 9.35 g/m*3 11.32 C 0.13333 km/h
1281 16-09-2019 08:00:00 12.075 C 9.65 g/m*3 12.08 C 1.2 km/h
1282 16-09-2019 09:00:00 13.4 C 10.02 g/m*3 13.4 C 1.06667 km/h
1283 16-09-2019 10:00:00 14.99167 C 10.52 g/m*3 14.99 C 0.93333 km/h
1284 16-09-2019 11:00:00 17.41667 C 11.29 g/m*3 17.42 C 1.33333 km/h
1285 16-09-2019 12:00:00 19.64167 C 11.69 g/m*3 19.64 C 4.40833 km/h
1286 16-09-2019 13:00:00 21.18333 C 11.4 g/m*3 21.18 C 5.9 km/h
1287 16-09-2019 14:00:00 22.05 C 11.19 g/m*3 22.05 C 4.26667 km/h
1288 16-09-2019 15:00:00 22.075 C 11.53 g/m*3 22.08 C 4.275 km/h
1289 16-09-2019 16:00:00 22.10833 C 10.87 g/m*3 22.11 C 7.65 km/h
1290 16-09-2019 17:00:00 21.8 C 11.67 g/m*3 21.8 C 7.525 km/h
1291 16-09-2019 18:00:00 20.725 C 11.4 g/m*3 20.73 C 4.95 km/h
1292 16-09-2019 19:00:00 19.71667 C 11.57 g/m*3 19.72 C 8.46667 km/h
1293 16-09-2019 20:00:00 17.64167 C 12.45 g/m*3 17.64 C 2.275 km/h
1294 16-09-2019 21:00:00 16.74167 C 12.53 g/m*3 16.74 C 1.46667 km/h
1295 16-09-2019 22:00:00 16.43333 C 12.39 g/m*3 16.43 C 4.825 km/h
1296 16-09-2019 23:00:00 15.4 C 12.03 g/m*3 15.4 C 4.14167 km/h
1297 17-09-2019 00:00:00 15.05833 C 11.74 g/m*3 15.06 C 1.73333 km/h
1298 17-09-2019 01:00:00 14.81667 C 11.42 g/m*3 14.82 C 4 km/h
1299 17-09-2019 02:00:00 14.66667 C 11.26 g/m*3 14.67 C 3.475 km/h
1300 17-09-2019 03:00:00 14.54167 C 11.1 g/m*3 14.54 C 1.46667 km/h
Sensor: Nr:Datum:Temp:Abs-Feuchte:Windchill:Wind:
Aussen-T/F 1301 17-09-2019 04:00:00 14.30833 C 11.03 g/m*3 14.31 C 0.4 km/h
1302 17-09-2019 05:00:00 14.16667 C 11 g/m*3 14.17 C 0.53333 km/h
1303 17-09-2019 06:00:00 14.1 C 10.95 g/m*3 14.1 C 3.74167 km/h
1304 17-09-2019 07:00:00 14.01667 C 10.81 g/m*3 14.02 C 1.86667 km/h
1305 17-09-2019 08:00:00 14 C 10.57 g/m*3 14 C 4.00833 km/h
1306 17-09-2019 09:00:00 14.04167 C 10.08 g/m*3 14.04 C 8.33333 km/h
1307 17-09-2019 10:00:00 14.925 C 9.51 g/m*3 14.93 C 11.29167 km/h
1308 17-09-2019 11:00:00 15.73333 C 9.52 g/m*3 15.73 C 11.56667 km/h
1309 17-09-2019 12:00:00 16.125 C 9.35 g/m*3 16.13 C 13.83333 km/h
1310 17-09-2019 13:00:00 16.625 C 9.11 g/m*3 16.63 C 13.43333 km/h
1311 17-09-2019 14:00:00 17.44167 C 9.01 g/m*3 17.44 C 13.43333 km/h
1312 17-09-2019 15:00:00 17.66667 C 8.72 g/m*3 17.67 C 12.1 km/h
1313 17-09-2019 16:00:00 18.05833 C 8.61 g/m*3 18.06 C 12.76667 km/h
1314 17-09-2019 17:00:00 18.125 C 8.63 g/m*3 18.13 C 11.41667 km/h
1315 17-09-2019 18:00:00 18.45 C 8.52 g/m*3 18.45 C 13.43333 km/h
1316 17-09-2019 19:00:00 17.3 C 8.79 g/m*3 17.3 C 5.775 km/h
1317 17-09-2019 20:00:00 16.71667 C 8.94 g/m*3 16.72 C 6.03333 km/h
1318 17-09-2019 21:00:00 16.00833 C 8.74 g/m*3 16.01 C 12.36667 km/h
1319 17-09-2019 22:00:00 14.55833 C 7.86 g/m*3 14.56 C 11.7 km/h
1320 17-09-2019 23:00:00 13.40833 C 7.65 g/m*3 13.41 C 6.45 km/h
1321 18-09-2019 00:00:00 11.80833 C 7.43 g/m*3 11.81 C 3.86667 km/h
1322 18-09-2019 01:00:00 10.83333 C 7.47 g/m*3 10.83 C 2.8 km/h
1323 18-09-2019 02:00:00 9.26667 C 7.32 g/m*3 9.27 C 0 km/h
1324 18-09-2019 03:00:00 8.25 C 7.19 g/m*3 8.25 C 0 km/h
1325 18-09-2019 04:00:00 7.425 C 7.05 g/m*3 7.43 C 0 km/h
Sensor: Nr:Datum:Temp:Abs-Feuchte:Windchill:Wind:
Aussen-T/F 1326 18-09-2019 05:00:00 6.76667 C 6.89 g/m*3 6.77 C 0 km/h
1327 18-09-2019 06:00:00 6.08333 C 6.7 g/m*3 6.08 C 0 km/h
1328 18-09-2019 07:00:00 5.8 C 6.67 g/m*3 5.8 C 0 km/h
1329 18-09-2019 08:00:00 6.10833 C 6.87 g/m*3 6.11 C 0 km/h
1330 18-09-2019 09:00:00 7.01667 C 7.37 g/m*3 7.02 C 0 km/h
1331 18-09-2019 10:00:00 8.375 C 8.05 g/m*3 8.38 C 0 km/h
1332 18-09-2019 11:00:00 10.625 C 8.65 g/m*3 10.63 C 1.33333 km/h
1333 18-09-2019 12:00:00 13.6 C 8.4 g/m*3 13.6 C 5.61667 km/h
1334 18-09-2019 13:00:00 15.1 C 7.76 g/m*3 15.1 C 9 km/h
1335 18-09-2019 14:00:00 16.25 C 7.43 g/m*3 16.25 C 9.54167 km/h
1336 18-09-2019 15:00:00 17.00833 C 7.27 g/m*3 17.01 C 8.86667 km/h
1337 18-09-2019 16:00:00 17.225 C 7.48 g/m*3 17.23 C 9.95 km/h
1338 18-09-2019 17:00:00 18.14167 C 7.1 g/m*3 18.14 C 11.56667 km/h
1339 18-09-2019 18:00:00 18.08333 C 6.92 g/m*3 18.08 C 8.58333 km/h
1340 18-09-2019 19:00:00 15.75 C 7.28 g/m*3 15.75 C 1.06667 km/h
1341 18-09-2019 20:00:00 12.30833 C 7.28 g/m*3 12.31 C 0 km/h
1342 18-09-2019 21:00:00 11.525 C 7.45 g/m*3 11.53 C 0 km/h
1343 18-09-2019 22:00:00 10.68333 C 7.43 g/m*3 10.68 C 0 km/h
1344 18-09-2019 23:00:00 9.85833 C 7.44 g/m*3 9.86 C 0 km/h
1345 19-09-2019 00:00:00 9.16667 C 7.4 g/m*3 9.17 C 0 km/h
1346 19-09-2019 01:00:00 8.5 C 7.23 g/m*3 8.5 C 0 km/h
1347 19-09-2019 02:00:00 7.20833 C 6.97 g/m*3 7.21 C 0 km/h
1348 19-09-2019 03:00:00 6.58333 C 6.86 g/m*3 6.58 C 0 km/h
1349 19-09-2019 04:00:00 6.08333 C 6.73 g/m*3 6.08 C 0 km/h
1350 19-09-2019 05:00:00 5.65833 C 6.6 g/m*3 5.66 C 0 km/h
Sensor: Nr:Datum:Temp:Abs-Feuchte:Windchill:Wind:
Aussen-T/F 1351 19-09-2019 06:00:00 5.26667 C 6.48 g/m*3 5.27 C 0 km/h
1352 19-09-2019 07:00:00 5.14167 C 6.45 g/m*3 5.14 C 0 km/h
1353 19-09-2019 08:00:00 5.33333 C 6.59 g/m*3 5.33 C 0 km/h
1354 19-09-2019 09:00:00 6.31667 C 7.08 g/m*3 6.32 C 0 km/h
1355 19-09-2019 10:00:00 7.725 C 7.8 g/m*3 7.73 C 0 km/h
1356 19-09-2019 11:00:00 9.70833 C 8.42 g/m*3 9.71 C 0.4 km/h
1357 19-09-2019 12:00:00 13.33333 C 7.53 g/m*3 13.33 C 10.35833 km/h
1358 19-09-2019 13:00:00 14.46667 C 7.05 g/m*3 14.47 C 6.3 km/h
1359 19-09-2019 14:00:00 15.7 C 6.76 g/m*3 15.7 C 7.38333 km/h
1360 19-09-2019 15:00:00 16.48333 C 6.7 g/m*3 16.48 C 9.54167 km/h
1361 19-09-2019 16:00:00 17.08333 C 6.67 g/m*3 17.08 C 9.28333 km/h
1362 19-09-2019 17:00:00 18.04167 C 6.51 g/m*3 18.04 C 8.59167 km/h
1363 19-09-2019 18:00:00 18.01667 C 6.64 g/m*3 18.02 C 4.96667 km/h
1364 19-09-2019 19:00:00 15.00833 C 7.05 g/m*3 15.01 C 0 km/h
1365 19-09-2019 20:00:00 11.975 C 6.78 g/m*3 11.98 C 0 km/h
1366 19-09-2019 21:00:00 10.525 C 6.78 g/m*3 10.53 C 0 km/h
1367 19-09-2019 22:00:00 9.59167 C 6.78 g/m*3 9.59 C 0 km/h
1368 19-09-2019 23:00:00 8.45 C 6.65 g/m*3 8.45 C 0 km/h
1369 20-09-2019 00:00:00 7.625 C 6.46 g/m*3 7.63 C 0 km/h
1370 20-09-2019 01:00:00 7.05 C 6.42 g/m*3 7.05 C 0 km/h
1371 20-09-2019 02:00:00 6.21667 C 6.27 g/m*3 6.22 C 0 km/h
1372 20-09-2019 03:00:00 5.75 C 6.19 g/m*3 5.75 C 0 km/h
1373 20-09-2019 04:00:00 5.15 C 6.09 g/m*3 5.15 C 0 km/h
1374 20-09-2019 05:00:00 4.69167 C 6.03 g/m*3 4.69 C 0 km/h
1375 20-09-2019 06:00:00 4.325 C 5.97 g/m*3 4.33 C 0 km/h
Sensor: Nr:Datum:Temp:Abs-Feuchte:Windchill:Wind:
Aussen-T/F 1376 20-09-2019 07:00:00 4.125 C 5.96 g/m*3 4.13 C 0 km/h
1377 20-09-2019 08:00:00 4.65 C 6.24 g/m*3 4.65 C 0 km/h
1378 20-09-2019 09:00:00 5.625 C 6.69 g/m*3 5.63 C 0 km/h
1379 20-09-2019 10:00:00 7.39167 C 7.47 g/m*3 7.39 C 0 km/h
1380 20-09-2019 11:00:00 10 C 8.1 g/m*3 10 C 0 km/h
1381 20-09-2019 12:00:00 13.41667 C 7.68 g/m*3 13.42 C 4.95833 km/h
1382 20-09-2019 13:00:00 15.83333 C 7.25 g/m*3 15.83 C 5.21667 km/h
1383 20-09-2019 14:00:00 17.63333 C 7.14 g/m*3 17.63 C 7.11667 km/h
1384 20-09-2019 15:00:00 18.525 C 6.89 g/m*3 18.52 C 7.925 km/h
1385 20-09-2019 16:00:00 19.26667 C 7.01 g/m*3 19.27 C 9.28333 km/h
1386 20-09-2019 17:00:00 20.33333 C 7.02 g/m*3 20.33 C 8.59167 km/h
1387 20-09-2019 18:00:00 20.525 C 7.17 g/m*3 20.53 C 4.55 km/h
1388 20-09-2019 19:00:00 15.85 C 7.09 g/m*3 15.85 C 0.8 km/h
1389 20-09-2019 20:00:00 13.7 C 6.96 g/m*3 13.7 C 1.33333 km/h
1390 20-09-2019 21:00:00 11.68333 C 7.14 g/m*3 11.68 C 0 km/h
1391 20-09-2019 22:00:00 9.525 C 6.97 g/m*3 9.53 C 0 km/h
1392 20-09-2019 23:00:00 8.425 C 6.87 g/m*3 8.43 C 0 km/h
1393 21-09-2019 00:00:00 7.44167 C 6.69 g/m*3 7.44 C 0 km/h
1394 21-09-2019 01:00:00 6.85 C 6.55 g/m*3 6.85 C 0 km/h
1395 21-09-2019 02:00:00 6.34167 C 6.4 g/m*3 6.34 C 0 km/h
1396 21-09-2019 03:00:00 5.80833 C 6.27 g/m*3 5.81 C 0 km/h
1397 21-09-2019 04:00:00 5.45833 C 6.24 g/m*3 5.46 C 0 km/h
1398 21-09-2019 05:00:00 5.275 C 6.25 g/m*3 5.28 C 0 km/h
1399 21-09-2019 06:00:00 4.80833 C 6.1 g/m*3 4.81 C 0 km/h
1400 21-09-2019 07:00:00 4.60833 C 6.09 g/m*3 4.61 C 0 km/h
Sensor: Nr:Datum:Temp:Abs-Feuchte:Windchill:Wind:
Aussen-T/F 1401 21-09-2019 08:00:00 4.725 C 6.21 g/m*3 4.72 C 0 km/h
1402 21-09-2019 09:00:00 5.79167 C 6.72 g/m*3 5.79 C 0 km/h
1403 21-09-2019 10:00:00 8.225 C 7.58 g/m*3 8.23 C 0 km/h
1404 21-09-2019 11:00:00 11.40833 C 8.4 g/m*3 11.41 C 0 km/h
1405 21-09-2019 12:00:00 14.95 C 8.6 g/m*3 14.95 C 0.66667 km/h
1406 21-09-2019 13:00:00 18.2 C 7.78 g/m*3 18.2 C 4 km/h
1407 21-09-2019 14:00:00 21.43333 C 6.23 g/m*3 21.43 C 7.24167 km/h
1408 21-09-2019 15:00:00 22.63333 C 6.11 g/m*3 22.63 C 7.925 km/h
1409 21-09-2019 16:00:00 23.23333 C 6.53 g/m*3 23.23 C 7.375 km/h
1410 21-09-2019 17:00:00 24.65833 C 7.13 g/m*3 24.66 C 5.09167 km/h
1411 21-09-2019 18:00:00 22.74167 C 7.97 g/m*3 22.74 C 0.66667 km/h
1412 21-09-2019 19:00:00 18.49167 C 7.54 g/m*3 18.49 C 1.6 km/h
1413 21-09-2019 20:00:00 16.16667 C 7.62 g/m*3 16.17 C 0.66667 km/h
1414 21-09-2019 21:00:00 13.66667 C 7.8 g/m*3 13.67 C 0 km/h
1415 21-09-2019 22:00:00 11.99167 C 7.62 g/m*3 11.99 C 0 km/h
1416 21-09-2019 23:00:00 10.88333 C 7.52 g/m*3 10.88 C 0 km/h
1417 22-09-2019 00:00:00 9.825 C 7.43 g/m*3 9.82 C 0 km/h
1418 22-09-2019 01:00:00 9.08333 C 7.39 g/m*3 9.08 C 0 km/h
1419 22-09-2019 02:00:00 8.425 C 7.24 g/m*3 8.43 C 0 km/h
1420 22-09-2019 03:00:00 7.96667 C 7.23 g/m*3 7.97 C 0 km/h
1421 22-09-2019 04:00:00 7.39167 C 7.07 g/m*3 7.39 C 0 km/h
1422 22-09-2019 05:00:00 7.06667 C 7.06 g/m*3 7.07 C 0 km/h
1423 22-09-2019 06:00:00 6.99167 C 7.12 g/m*3 6.99 C 0 km/h
1424 22-09-2019 07:00:00 6.93333 C 7.14 g/m*3 6.93 C 0 km/h
1425 22-09-2019 08:00:00 7.55833 C 7.47 g/m*3 7.56 C 0 km/h
Sensor: Nr:Datum:Temp:Abs-Feuchte:Windchill:Wind:
Aussen-T/F 1426 22-09-2019 09:00:00 8.63333 C 8.02 g/m*3 8.63 C 0 km/h
1427 22-09-2019 10:00:00 11.05 C 9.19 g/m*3 11.05 C 0 km/h
1428 22-09-2019 11:00:00 14.83333 C 10.13 g/m*3 14.83 C 0 km/h
1429 22-09-2019 12:00:00 17.68333 C 10.99 g/m*3 17.68 C 0 km/h
1430 22-09-2019 13:00:00 20.70833 C 11.63 g/m*3 20.71 C 0.26667 km/h
1431 22-09-2019 14:00:00 24.05 C 11.64 g/m*3 24.05 C 2.93333 km/h
1432 22-09-2019 15:00:00 24.85 C 11.36 g/m*3 24.85 C 3.86667 km/h
1433 22-09-2019 16:00:00 24.73333 C 12.25 g/m*3 24.73 C 0.8 km/h
1434 22-09-2019 17:00:00 23.48333 C 12.59 g/m*3 23.48 C 0 km/h
1435 22-09-2019 18:00:00 21.74167 C 12.24 g/m*3 21.74 C 0 km/h
1436 22-09-2019 19:00:00 20.33333 C 11.45 g/m*3 20.33 C 0 km/h
1437 22-09-2019 20:00:00 19.075 C 10.9 g/m*3 19.08 C 2 km/h
1438 22-09-2019 21:00:00 18.175 C 10.66 g/m*3 18.18 C 1.46667 km/h
1439 22-09-2019 22:00:00 18.3 C 10.92 g/m*3 18.3 C 0.13333 km/h
1440 22-09-2019 23:00:00 17.80833 C 11.4 g/m*3 17.81 C 0 km/h
1441 23-09-2019 00:00:00 17.55833 C 12.04 g/m*3 17.56 C 2.80833 km/h
1442 23-09-2019 01:00:00 18.375 C 12.81 g/m*3 18.38 C 3.33333 km/h
1443 23-09-2019 02:00:00 18.10833 C 12.21 g/m*3 18.11 C 9.26667 km/h
1444 23-09-2019 03:00:00 17.2 C 12.06 g/m*3 17.2 C 4.95 km/h
1445 23-09-2019 04:00:00 16.05833 C 11.82 g/m*3 16.06 C 0.93333 km/h
1446 23-09-2019 05:00:00 15.14167 C 11.8 g/m*3 15.14 C 1.86667 km/h
1447 23-09-2019 06:00:00 14.43333 C 11.53 g/m*3 14.43 C 0.26667 km/h
1448 23-09-2019 07:00:00 14.23333 C 11.52 g/m*3 14.23 C 0 km/h
1449 23-09-2019 08:00:00 14.25 C 11.64 g/m*3 14.25 C 0 km/h
1450 23-09-2019 09:00:00 14.74167 C 12.1 g/m*3 14.74 C 0 km/h
Sensor: Nr:Datum:Temp:Abs-Feuchte:Windchill:Wind:
Aussen-T/F 1451 23-09-2019 10:00:00 15.425 C 12.63 g/m*3 15.43 C 0.4 km/h
1452 23-09-2019 11:00:00 16.26667 C 13.08 g/m*3 16.27 C 2.8 km/h
1453 23-09-2019 12:00:00 17.06667 C 13.18 g/m*3 17.07 C 8.06667 km/h
1454 23-09-2019 13:00:00 18.2 C 12.67 g/m*3 18.2 C 10.49167 km/h
1455 23-09-2019 14:00:00 19.425 C 11.89 g/m*3 19.43 C 13.3 km/h
1456 23-09-2019 15:00:00 19.61667 C 11.63 g/m*3 19.62 C 12.36667 km/h
1457 23-09-2019 16:00:00 19.94167 C 11.61 g/m*3 19.94 C 14.36667 km/h
1458 23-09-2019 17:00:00 20.24167 C 11.57 g/m*3 20.24 C 12.49167 km/h
1459 23-09-2019 18:00:00 18.46667 C 11.71 g/m*3 18.47 C 1.2 km/h
1460 23-09-2019 19:00:00 16 C 11.16 g/m*3 16 C 0.13333 km/h
1461 23-09-2019 20:00:00 14.34167 C 10.75 g/m*3 14.34 C 0 km/h
1462 23-09-2019 21:00:00 13.96667 C 10.85 g/m*3 13.97 C 0 km/h
1463 23-09-2019 22:00:00 13.9 C 11.03 g/m*3 13.9 C 0 km/h
1464 23-09-2019 23:00:00 14.11667 C 11.21 g/m*3 14.12 C 0 km/h
1465 24-09-2019 00:00:00 14.33333 C 11.37 g/m*3 14.33 C 0 km/h
1466 24-09-2019 01:00:00 13.95 C 11.01 g/m*3 13.95 C 0 km/h
1467 24-09-2019 02:00:00 12.66667 C 10.28 g/m*3 12.67 C 0 km/h
1468 24-09-2019 03:00:00 11.96667 C 9.98 g/m*3 11.97 C 0 km/h
1469 24-09-2019 04:00:00 11.50833 C 9.77 g/m*3 11.51 C 0 km/h
1470 24-09-2019 05:00:00 10.675 C 9.31 g/m*3 10.68 C 0 km/h
1471 24-09-2019 06:00:00 10.25 C 9.1 g/m*3 10.25 C 0 km/h
1472 24-09-2019 07:00:00 9.89167 C 8.94 g/m*3 9.89 C 0 km/h
1473 24-09-2019 08:00:00 10.65 C 9.44 g/m*3 10.65 C 0 km/h
1474 24-09-2019 09:00:00 11.35833 C 9.93 g/m*3 11.36 C 0.8 km/h
1475 24-09-2019 10:00:00 12.49167 C 10.66 g/m*3 12.49 C 0 km/h
Sensor: Nr:Datum:Temp:Abs-Feuchte:Windchill:Wind:
Aussen-T/F 1476 24-09-2019 11:00:00 14.48333 C 11.78 g/m*3 14.48 C 0.93333 km/h
1477 24-09-2019 12:00:00 17.53333 C 12.03 g/m*3 17.53 C 3.88333 km/h
1478 24-09-2019 13:00:00 18.59167 C 11.6 g/m*3 18.59 C 6.44167 km/h
1479 24-09-2019 14:00:00 19.21667 C 11.33 g/m*3 19.22 C 1.60833 km/h
1480 24-09-2019 15:00:00 18.63333 C 11.3 g/m*3 18.63 C 0.66667 km/h
1481 24-09-2019 16:00:00 17.70833 C 12.37 g/m*3 17.71 C 0.93333 km/h
1482 24-09-2019 17:00:00 16.95 C 12.96 g/m*3 16.95 C 0 km/h
1483 24-09-2019 18:00:00 16.125 C 12.64 g/m*3 16.13 C 0 km/h
1484 24-09-2019 19:00:00 15.1 C 12.01 g/m*3 15.1 C 0 km/h
1485 24-09-2019 20:00:00 14.01667 C 11.37 g/m*3 14.02 C 0 km/h
1486 24-09-2019 21:00:00 13.65 C 11.21 g/m*3 13.65 C 0 km/h
1487 24-09-2019 22:00:00 13.64167 C 11.29 g/m*3 13.64 C 0 km/h
1488 24-09-2019 23:00:00 13.775 C 11.42 g/m*3 13.78 C 0 km/h
1489 25-09-2019 00:00:00 13.99167 C 11.57 g/m*3 13.99 C 0.13333 km/h
1490 25-09-2019 01:00:00 14.13333 C 11.72 g/m*3 14.13 C 1.34167 km/h
1491 25-09-2019 02:00:00 14.49167 C 11.93 g/m*3 14.49 C 3.35 km/h
1492 25-09-2019 03:00:00 14.6 C 12.01 g/m*3 14.6 C 0.4 km/h
1493 25-09-2019 04:00:00 14.55833 C 11.98 g/m*3 14.56 C 0.53333 km/h
1494 25-09-2019 05:00:00 14.01667 C 11.59 g/m*3 14.02 C 1.33333 km/h
1495 25-09-2019 06:00:00 13.64167 C 11.33 g/m*3 13.64 C 0.93333 km/h
1496 25-09-2019 07:00:00 13.61667 C 11.33 g/m*3 13.62 C 0.8 km/h
1497 25-09-2019 08:00:00 13.75 C 11.51 g/m*3 13.75 C 0 km/h
1498 25-09-2019 09:00:00 14.33333 C 11.94 g/m*3 14.33 C 1.33333 km/h
1499 25-09-2019 10:00:00 14.90833 C 12.03 g/m*3 14.91 C 8.475 km/h
1500 25-09-2019 11:00:00 16.225 C 11.94 g/m*3 16.23 C 13.69167 km/h
Sensor: Nr:Datum:Temp:Abs-Feuchte:Windchill:Wind:
Aussen-T/F 1501 25-09-2019 12:00:00 16.875 C 11.57 g/m*3 16.88 C 10.35833 km/h
1502 25-09-2019 13:00:00 17.38333 C 11.46 g/m*3 17.38 C 11.81667 km/h
1503 25-09-2019 14:00:00 17.38333 C 11.57 g/m*3 17.38 C 10.35833 km/h
1504 25-09-2019 15:00:00 16.325 C 12.4 g/m*3 16.33 C 4.8 km/h
1505 25-09-2019 16:00:00 17.08333 C 12.36 g/m*3 17.08 C 7.38333 km/h
1506 25-09-2019 17:00:00 17.53333 C 12.19 g/m*3 17.53 C 7.24167 km/h
1507 25-09-2019 18:00:00 16.775 C 11.91 g/m*3 16.77 C 2.54167 km/h
1508 25-09-2019 19:00:00 15.625 C 11.72 g/m*3 15.63 C 0.53333 km/h
1509 25-09-2019 20:00:00 15.10833 C 11.76 g/m*3 15.11 C 0 km/h
1510 25-09-2019 21:00:00 14.71667 C 11.69 g/m*3 14.72 C 0.13333 km/h
1511 25-09-2019 22:00:00 14.7 C 11.8 g/m*3 14.7 C 0 km/h
1512 25-09-2019 23:00:00 14.65833 C 11.93 g/m*3 14.66 C 0 km/h
1513 26-09-2019 00:00:00 14.55833 C 11.86 g/m*3 14.56 C 0.26667 km/h
1514 26-09-2019 01:00:00 14.23333 C 11.65 g/m*3 14.23 C 0 km/h
1515 26-09-2019 02:00:00 14.13333 C 11.67 g/m*3 14.13 C 0 km/h
1516 26-09-2019 03:00:00 13.60833 C 11.29 g/m*3 13.61 C 0 km/h
1517 26-09-2019 04:00:00 13.25833 C 11.08 g/m*3 13.26 C 0 km/h
1518 26-09-2019 05:00:00 13.90833 C 11.6 g/m*3 13.91 C 2.01667 km/h
1519 26-09-2019 06:00:00 14.125 C 11.78 g/m*3 14.13 C 0.53333 km/h
1520 26-09-2019 07:00:00 14.35833 C 11.84 g/m*3 14.36 C 0.13333 km/h
1521 26-09-2019 08:00:00 14.74167 C 12.12 g/m*3 14.74 C 0.26667 km/h
1522 26-09-2019 09:00:00 15.10833 C 12.35 g/m*3 15.11 C 0.4 km/h
1523 26-09-2019 10:00:00 15.86667 C 12.91 g/m*3 15.87 C 0.13333 km/h
1524 26-09-2019 11:00:00 16.59167 C 13.37 g/m*3 16.59 C 0.93333 km/h
1525 26-09-2019 12:00:00 17.61667 C 13.75 g/m*3 17.62 C 5.225 km/h
Sensor: Nr:Datum:Temp:Abs-Feuchte:Windchill:Wind:
Aussen-T/F 1526 26-09-2019 13:00:00 17.775 C 13.9 g/m*3 17.77 C 1.06667 km/h
1527 26-09-2019 14:00:00 17.51667 C 13.84 g/m*3 17.52 C 0.93333 km/h
1528 26-09-2019 15:00:00 18.05833 C 14.13 g/m*3 18.06 C 1.2 km/h
1529 26-09-2019 16:00:00 18.83333 C 14.32 g/m*3 18.83 C 4.15 km/h
1530 26-09-2019 17:00:00 18.91667 C 14.2 g/m*3 18.92 C 4.675 km/h
1531 26-09-2019 18:00:00 18.71667 C 14.24 g/m*3 18.72 C 2.68333 km/h
1532 26-09-2019 19:00:00 18.04167 C 13.99 g/m*3 18.04 C 2.01667 km/h
1533 26-09-2019 20:00:00 17.39167 C 13.29 g/m*3 17.39 C 6.03333 km/h
1534 26-09-2019 21:00:00 17.36667 C 13.16 g/m*3 17.37 C 5.5 km/h
1535 26-09-2019 22:00:00 17.725 C 13.08 g/m*3 17.73 C 10.23333 km/h
1536 26-09-2019 23:00:00 17.81667 C 12.99 g/m*3 17.82 C 7.5 km/h
1537 27-09-2019 00:00:00 17.98333 C 12.86 g/m*3 17.98 C 6.975 km/h
1538 27-09-2019 01:00:00 18.05 C 12.68 g/m*3 18.05 C 10.20833 km/h
1539 27-09-2019 02:00:00 17.96667 C 12.58 g/m*3 17.97 C 9.68333 km/h
1540 27-09-2019 03:00:00 16.71667 C 12.82 g/m*3 16.72 C 6.18333 km/h
1541 27-09-2019 04:00:00 16.29167 C 12.83 g/m*3 16.29 C 2.95 km/h
1542 27-09-2019 05:00:00 16.16667 C 12.81 g/m*3 16.17 C 2.13333 km/h
1543 27-09-2019 06:00:00 15.78333 C 12.67 g/m*3 15.78 C 2.15 km/h
1544 27-09-2019 07:00:00 14.41667 C 11.71 g/m*3 14.42 C 2.28333 km/h
1545 27-09-2019 08:00:00 14.1 C 11.62 g/m*3 14.1 C 0.66667 km/h
1546 27-09-2019 09:00:00 13.99167 C 11.57 g/m*3 13.99 C 3.75 km/h
1547 27-09-2019 10:00:00 14.69167 C 12.02 g/m*3 14.69 C 6.58333 km/h
1548 27-09-2019 11:00:00 15.35 C 12.16 g/m*3 15.35 C 6.7 km/h
1549 27-09-2019 12:00:00 15.96667 C 12.11 g/m*3 15.97 C 11.29167 km/h
1550 27-09-2019 13:00:00 17.29167 C 11.95 g/m*3 17.29 C 12.9 km/h
Sensor: Nr:Datum:Temp:Abs-Feuchte:Windchill:Wind:
Aussen-T/F 1551 27-09-2019 14:00:00 18.15833 C 11.77 g/m*3 18.16 C 14.9 km/h
1552 27-09-2019 15:00:00 18.21667 C 11.79 g/m*3 18.22 C 13.83333 km/h
1553 27-09-2019 16:00:00 17.96667 C 11.79 g/m*3 17.97 C 12.1 km/h
1554 27-09-2019 17:00:00 18.98333 C 11.78 g/m*3 18.98 C 12.36667 km/h
1555 27-09-2019 18:00:00 18.01667 C 11.54 g/m*3 18.02 C 10.75833 km/h
1556 27-09-2019 19:00:00 16.05833 C 11.25 g/m*3 16.06 C 3.75833 km/h
1557 27-09-2019 20:00:00 15.13333 C 11.37 g/m*3 15.13 C 0.26667 km/h
1558 27-09-2019 21:00:00 14.275 C 11.06 g/m*3 14.28 C 0.26667 km/h
1559 27-09-2019 22:00:00 13.83333 C 11.04 g/m*3 13.83 C 0 km/h
1560 27-09-2019 23:00:00 13.5 C 10.98 g/m*3 13.5 C 0 km/h
1561 28-09-2019 00:00:00 12.875 C 10.64 g/m*3 12.88 C 0.66667 km/h
1562 28-09-2019 01:00:00 12.90833 C 10.72 g/m*3 12.91 C 3.21667 km/h
1563 28-09-2019 02:00:00 14.21667 C 11.16 g/m*3 14.22 C 9.13333 km/h
1564 28-09-2019 03:00:00 14.825 C 11.33 g/m*3 14.83 C 6.45 km/h
1565 28-09-2019 04:00:00 14.04167 C 11.17 g/m*3 14.04 C 5.63333 km/h
1566 28-09-2019 05:00:00 13.95 C 11.05 g/m*3 13.95 C 6.84167 km/h
1567 28-09-2019 06:00:00 14.4 C 11.21 g/m*3 14.4 C 9.4 km/h
1568 28-09-2019 07:00:00 14.1 C 11.28 g/m*3 14.1 C 1.875 km/h
1569 28-09-2019 08:00:00 13.89167 C 11.18 g/m*3 13.89 C 7.94167 km/h
1570 28-09-2019 09:00:00 14.35833 C 11.11 g/m*3 14.36 C 12.225 km/h
1571 28-09-2019 10:00:00 15.4 C 11.21 g/m*3 15.4 C 12.75833 km/h
1572 28-09-2019 11:00:00 16.30833 C 11.15 g/m*3 16.31 C 17.43333 km/h
1573 28-09-2019 12:00:00 16.85 C 11.27 g/m*3 16.85 C 13.16667 km/h
1574 28-09-2019 13:00:00 17.21667 C 11.3 g/m*3 17.22 C 17.3 km/h
1575 28-09-2019 14:00:00 17.49167 C 11.4 g/m*3 17.49 C 17.3 km/h
Sensor: Nr:Datum:Temp:Abs-Feuchte:Windchill:Wind:
Aussen-T/F 1576 28-09-2019 15:00:00 17.16667 C 11.3 g/m*3 17.17 C 15.43333 km/h
1577 28-09-2019 16:00:00 17.35833 C 11.48 g/m*3 17.36 C 14.23333 km/h
1578 28-09-2019 17:00:00 17.71667 C 11.43 g/m*3 17.72 C 15.96667 km/h
1579 28-09-2019 18:00:00 17.14167 C 11.18 g/m*3 17.14 C 11.025 km/h
1580 28-09-2019 19:00:00 15.7 C 10.78 g/m*3 15.7 C 8.99167 km/h
1581 28-09-2019 20:00:00 15.24167 C 10.7 g/m*3 15.24 C 5.89167 km/h
1582 28-09-2019 21:00:00 14.975 C 10.58 g/m*3 14.98 C 7.79167 km/h
1583 28-09-2019 22:00:00 15.13333 C 10.51 g/m*3 15.13 C 9.53333 km/h
1584 28-09-2019 23:00:00 14.15 C 10.33 g/m*3 14.15 C 4.55 km/h
1585 29-09-2019 00:00:00 13.875 C 10.33 g/m*3 13.88 C 2.81667 km/h
1586 29-09-2019 01:00:00 13.95 C 10.4 g/m*3 13.95 C 0.66667 km/h
1587 29-09-2019 02:00:00 13.65 C 10.49 g/m*3 13.65 C 0 km/h
1588 29-09-2019 03:00:00 13.48333 C 10.54 g/m*3 13.48 C 0 km/h
1589 29-09-2019 04:00:00 13.525 C 10.66 g/m*3 13.53 C 0 km/h
1590 29-09-2019 05:00:00 13.81667 C 10.66 g/m*3 13.82 C 0.26667 km/h
1591 29-09-2019 06:00:00 13.94167 C 10.43 g/m*3 13.94 C 0.93333 km/h
1592 29-09-2019 07:00:00 14.025 C 10.46 g/m*3 14.03 C 1.33333 km/h
1593 29-09-2019 08:00:00 14.95833 C 10.59 g/m*3 14.96 C 5.75833 km/h
1594 29-09-2019 09:00:00 16.53333 C 10.83 g/m*3 16.53 C 13.69167 km/h
1595 29-09-2019 10:00:00 17.45833 C 10.94 g/m*3 17.46 C 19.175 km/h
1596 29-09-2019 11:00:00 17.74167 C 11 g/m*3 17.74 C 17.84167 km/h
1597 29-09-2019 12:00:00 18.25833 C 11.19 g/m*3 18.26 C 17.16667 km/h
1598 29-09-2019 13:00:00 18.1 C 11.15 g/m*3 18.1 C 13.03333 km/h
1599 29-09-2019 14:00:00 18.61667 C 10.9 g/m*3 18.62 C 21.325 km/h
1600 29-09-2019 15:00:00 18.21667 C 11.38 g/m*3 18.22 C 17.44167 km/h
Sensor: Nr:Datum:Temp:Abs-Feuchte:Windchill:Wind:
Aussen-T/F 1601 29-09-2019 16:00:00 17.10833 C 11.91 g/m*3 17.11 C 13.025 km/h
1602 29-09-2019 17:00:00 17 C 11.93 g/m*3 17 C 12.35833 km/h
1603 29-09-2019 18:00:00 17.5 C 12.36 g/m*3 17.5 C 12.1 km/h
1604 29-09-2019 19:00:00 17.70833 C 12.54 g/m*3 17.71 C 15.56667 km/h
1605 29-09-2019 20:00:00 17.275 C 12.96 g/m*3 17.27 C 5.9 km/h
1606 29-09-2019 21:00:00 16.79167 C 13.17 g/m*3 16.79 C 5.63333 km/h
1607 29-09-2019 22:00:00 16.91667 C 13.29 g/m*3 16.92 C 12.08333 km/h
1608 29-09-2019 23:00:00 16.61667 C 13 g/m*3 16.62 C 14.49167 km/h
1609 30-09-2019 00:00:00 15.65 C 11.66 g/m*3 15.65 C 18.11667 km/h
1610 30-09-2019 01:00:00 15.34167 C 11.27 g/m*3 15.34 C 18.225 km/h
1611 30-09-2019 02:00:00 15.15833 C 11.2 g/m*3 15.16 C 17.03333 km/h
1612 30-09-2019 03:00:00 15.25833 C 11.31 g/m*3 15.26 C 15.3 km/h
1613 30-09-2019 04:00:00 15.04167 C 11.38 g/m*3 15.04 C 11.95 km/h
1614 30-09-2019 05:00:00 13.75833 C 10.95 g/m*3 13.76 C 9.925 km/h
1615 30-09-2019 06:00:00 13.19167 C 10.65 g/m*3 13.19 C 9.93333 km/h
1616 30-09-2019 07:00:00 13.08333 C 10.34 g/m*3 13.08 C 10.08333 km/h
1617 30-09-2019 08:00:00 13.29167 C 10.07 g/m*3 13.29 C 12.1 km/h
1618 30-09-2019 09:00:00 13.94167 C 10 g/m*3 13.94 C 13.3 km/h
1619 30-09-2019 10:00:00 14.45 C 10.08 g/m*3 14.45 C 14.5 km/h
1620 30-09-2019 11:00:00 15.13333 C 10.09 g/m*3 15.13 C 15.16667 km/h
1621 30-09-2019 12:00:00 15.71667 C 9.81 g/m*3 15.72 C 16.76667 km/h
1622 30-09-2019 13:00:00 16.40833 C 9.68 g/m*3 16.41 C 15.56667 km/h
1623 30-09-2019 14:00:00 17.10833 C 9.71 g/m*3 17.11 C 14.23333 km/h
1624 30-09-2019 15:00:00 17.75833 C 9.83 g/m*3 17.76 C 14.63333 km/h
1625 30-09-2019 16:00:00 18.45833 C 9.85 g/m*3 18.46 C 14.36667 km/h
Sensor: Nr:Datum:Temp:Abs-Feuchte:Windchill:Wind:
Aussen-T/F 1626 30-09-2019 17:00:00 18.45 C 9.54 g/m*3 18.45 C 12.1 km/h
1627 30-09-2019 18:00:00 17.69167 C 10.24 g/m*3 17.69 C 3.34167 km/h
1628 30-09-2019 19:00:00 14.83333 C 10.22 g/m*3 14.83 C 0.4 km/h
1629 30-09-2019 20:00:00 14.20833 C 10.42 g/m*3 14.21 C 3.34167 km/h
1630 30-09-2019 21:00:00 14.69167 C 10.71 g/m*3 14.69 C 3.74167 km/h
1631 30-09-2019 22:00:00 14.68333 C 10.7 g/m*3 14.68 C 3.6 km/h
1632 30-09-2019 23:00:00 14.23333 C 10.44 g/m*3 14.23 C 1.06667 km/h
1633 01-10-2019 00:00:00 14.33333 C 10.41 g/m*3 14.33 C 0.4 km/h
1634 01-10-2019 01:00:00 14.025 C 10.47 g/m*3 14.03 C 1.2 km/h
1635 01-10-2019 02:00:00 13.60833 C 10.24 g/m*3 13.61 C 0 km/h
1636 01-10-2019 03:00:00 12.65 C 9.88 g/m*3 12.65 C 0 km/h
1637 01-10-2019 04:00:00 13.275 C 10.3 g/m*3 13.28 C 3.48333 km/h
1638 01-10-2019 05:00:00 14.40833 C 10.55 g/m*3 14.41 C 7.8 km/h
1639 01-10-2019 06:00:00 15.00833 C 10.98 g/m*3 15.01 C 11.55833 km/h
1640 01-10-2019 07:00:00 15.375 C 11.38 g/m*3 15.38 C 15.56667 km/h
1641 01-10-2019 08:00:00 15.5 C 11.54 g/m*3 15.5 C 14.1 km/h
1642 01-10-2019 09:00:00 16.125 C 11.82 g/m*3 16.13 C 13.7 km/h
1643 01-10-2019 10:00:00 17.09167 C 12.35 g/m*3 17.09 C 14.9 km/h
1644 01-10-2019 11:00:00 17.53333 C 12.69 g/m*3 17.53 C 14.63333 km/h
1645 01-10-2019 12:00:00 17.36667 C 13.11 g/m*3 17.37 C 12.225 km/h
1646 01-10-2019 13:00:00 18.575 C 12.46 g/m*3 18.58 C 9.41667 km/h
1647 01-10-2019 14:00:00 18.35833 C 13.01 g/m*3 18.36 C 8.34167 km/h
1648 01-10-2019 15:00:00 19.08333 C 13.57 g/m*3 19.08 C 11.425 km/h
1649 01-10-2019 16:00:00 18.26667 C 13.78 g/m*3 18.27 C 5.775 km/h
1650 01-10-2019 17:00:00 17.6 C 13.95 g/m*3 17.6 C 0.66667 km/h
Sensor: Nr:Datum:Temp:Abs-Feuchte:Windchill:Wind:
Aussen-T/F 1651 01-10-2019 18:00:00 16.725 C 13.21 g/m*3 16.73 C 1.2 km/h
1652 01-10-2019 19:00:00 16.19167 C 12.98 g/m*3 16.19 C 0 km/h
1653 01-10-2019 20:00:00 15.875 C 12.82 g/m*3 15.88 C 0.66667 km/h
1654 01-10-2019 21:00:00 15.85 C 12.85 g/m*3 15.85 C 1.46667 km/h
1655 01-10-2019 22:00:00 15.5 C 12.56 g/m*3 15.5 C 1.60833 km/h
1656 01-10-2019 23:00:00 15.225 C 12.35 g/m*3 15.23 C 3.06667 km/h
1657 02-10-2019 00:00:00 15.15833 C 12.3 g/m*3 15.16 C 3.35833 km/h
1658 02-10-2019 01:00:00 15.20833 C 12.24 g/m*3 15.21 C 4.14167 km/h
1659 02-10-2019 02:00:00 14.975 C 12 g/m*3 14.98 C 1.2 km/h
1660 02-10-2019 03:00:00 14.95833 C 11.96 g/m*3 14.96 C 7.26667 km/h
1661 02-10-2019 04:00:00 15.08333 C 11.86 g/m*3 15.08 C 4.55 km/h
1662 02-10-2019 05:00:00 14.69167 C 11.66 g/m*3 14.69 C 3.48333 km/h
1663 02-10-2019 06:00:00 13.59167 C 10.82 g/m*3 13.59 C 10.2 km/h
1664 02-10-2019 07:00:00 11.80833 C 9.71 g/m*3 11.81 C 11.3 km/h
1665 02-10-2019 08:00:00 10.74167 C 9.16 g/m*3 9.02 C 13.43333 km/h
1666 02-10-2019 09:00:00 10.46667 C 8.8 g/m*3 9.65 C 7.51667 km/h
1667 02-10-2019 10:00:00 10.86667 C 8.73 g/m*3 10.04 C 7.91667 km/h
1668 02-10-2019 11:00:00 11.33333 C 8.56 g/m*3 11.33 C 11.01667 km/h
1669 02-10-2019 12:00:00 11.86667 C 8.52 g/m*3 11.87 C 9.125 km/h
1670 02-10-2019 13:00:00 12.65833 C 8.48 g/m*3 12.66 C 9.54167 km/h
1671 02-10-2019 14:00:00 13.49167 C 8.19 g/m*3 13.49 C 9.55833 km/h
1672 02-10-2019 15:00:00 13.66667 C 7.87 g/m*3 13.67 C 11.825 km/h
1673 02-10-2019 16:00:00 13.8 C 7.37 g/m*3 13.8 C 14.1 km/h
1674 02-10-2019 17:00:00 14.26667 C 7.55 g/m*3 14.27 C 12.21667 km/h
1675 02-10-2019 18:00:00 12.9 C 7.68 g/m*3 12.9 C 10.89167 km/h
Sensor: Nr:Datum:Temp:Abs-Feuchte:Windchill:Wind:
Aussen-T/F 1676 02-10-2019 19:00:00 11.325 C 7.61 g/m*3 11.33 C 5.76667 km/h
1677 02-10-2019 20:00:00 10.04167 C 7.5 g/m*3 10.04 C 4.825 km/h
1678 02-10-2019 21:00:00 9.875 C 7.51 g/m*3 9.88 C 3.20833 km/h
1679 02-10-2019 22:00:00 8.61667 C 7.37 g/m*3 8.62 C 0.66667 km/h
1680 02-10-2019 23:00:00 8.48333 C 7.43 g/m*3 8.48 C 3.875 km/h
1681 03-10-2019 00:00:00 9.33333 C 7.66 g/m*3 9.33 C 4.41667 km/h
1682 03-10-2019 01:00:00 9.25833 C 7.75 g/m*3 9.26 C 4.68333 km/h
1683 03-10-2019 02:00:00 9.21667 C 7.73 g/m*3 9.22 C 3.73333 km/h
1684 03-10-2019 03:00:00 8.525 C 7.52 g/m*3 8.53 C 1.86667 km/h
1685 03-10-2019 04:00:00 7.63333 C 7.29 g/m*3 7.63 C 1.33333 km/h
1686 03-10-2019 05:00:00 7.94167 C 7.49 g/m*3 7.94 C 4.41667 km/h
1687 03-10-2019 06:00:00 7.45 C 7.26 g/m*3 7.45 C 1.2 km/h
1688 03-10-2019 07:00:00 7.2 C 7.29 g/m*3 7.2 C 1.6 km/h
1689 03-10-2019 08:00:00 7.74167 C 7.49 g/m*3 7.74 C 4.96667 km/h
1690 03-10-2019 09:00:00 9.34167 C 7.9 g/m*3 8.53 C 6.70833 km/h
1691 03-10-2019 10:00:00 10.36667 C 8.23 g/m*3 9.45 C 7.925 km/h
1692 03-10-2019 11:00:00 12.23333 C 8.75 g/m*3 12.23 C 8.725 km/h
1693 03-10-2019 12:00:00 12.55833 C 9.02 g/m*3 12.56 C 6.16667 km/h
1694 03-10-2019 13:00:00 12.225 C 9.57 g/m*3 12.23 C 0.13333 km/h
1695 03-10-2019 14:00:00 11.68333 C 9.65 g/m*3 11.68 C 0.8 km/h
1696 03-10-2019 15:00:00 11.88333 C 10.01 g/m*3 11.88 C 0.8 km/h
1697 03-10-2019 16:00:00 12.15833 C 10.02 g/m*3 12.16 C 2.41667 km/h
1698 03-10-2019 17:00:00 11.75833 C 9.81 g/m*3 11.76 C 0 km/h
1699 03-10-2019 18:00:00 10.81667 C 9.3 g/m*3 10.82 C 1.06667 km/h
1700 03-10-2019 19:00:00 9.90833 C 8.84 g/m*3 9.91 C 0.8 km/h
Sensor: Nr:Datum:Temp:Abs-Feuchte:Windchill:Wind:
Aussen-T/F 1701 03-10-2019 20:00:00 9.36667 C 8.58 g/m*3 9.37 C 0 km/h
1702 03-10-2019 21:00:00 9.00833 C 8.45 g/m*3 9.01 C 0 km/h
1703 03-10-2019 22:00:00 8.625 C 8.26 g/m*3 8.63 C 0 km/h
1704 03-10-2019 23:00:00 8.375 C 8.13 g/m*3 8.38 C 0 km/h
1705 04-10-2019 00:00:00 8.38333 C 8.14 g/m*3 8.38 C 0 km/h
1706 04-10-2019 01:00:00 8.21667 C 8.07 g/m*3 8.22 C 0.13333 km/h
1707 04-10-2019 02:00:00 8.19167 C 8.08 g/m*3 8.19 C 0 km/h
1708 04-10-2019 03:00:00 8.05833 C 8.04 g/m*3 8.06 C 0 km/h
1709 04-10-2019 04:00:00 7.71667 C 7.86 g/m*3 7.72 C 0 km/h
1710 04-10-2019 05:00:00 7.90833 C 7.97 g/m*3 7.91 C 0 km/h
1711 04-10-2019 06:00:00 7.96667 C 8 g/m*3 7.97 C 0.93333 km/h
1712 04-10-2019 07:00:00 8.13333 C 8.09 g/m*3 8.13 C 2.68333 km/h
1713 04-10-2019 08:00:00 8.45833 C 8.26 g/m*3 8.46 C 1.06667 km/h
1714 04-10-2019 09:00:00 8.70833 C 8.39 g/m*3 8.71 C 0.8 km/h
1715 04-10-2019 10:00:00 9.125 C 8.61 g/m*3 9.13 C 3.875 km/h
1716 04-10-2019 11:00:00 9.75833 C 8.88 g/m*3 9.26 C 5.75833 km/h
1717 04-10-2019 12:00:00 10.65 C 9.33 g/m*3 10.65 C 3.06667 km/h
1718 04-10-2019 13:00:00 11.25833 C 9.61 g/m*3 11.26 C 2 km/h
1719 04-10-2019 14:00:00 13.03333 C 10.33 g/m*3 13.03 C 7.53333 km/h
1720 04-10-2019 15:00:00 13.81667 C 10.48 g/m*3 13.82 C 6.98333 km/h
1721 04-10-2019 16:00:00 14.05833 C 10.83 g/m*3 14.06 C 1.875 km/h
1722 04-10-2019 17:00:00 13.36667 C 10.78 g/m*3 13.37 C 2.13333 km/h
1723 04-10-2019 18:00:00 12.35833 C 10.26 g/m*3 12.36 C 1.46667 km/h
1724 04-10-2019 19:00:00 11.70833 C 9.98 g/m*3 11.71 C 1.06667 km/h
1725 04-10-2019 20:00:00 11.63333 C 10 g/m*3 11.63 C 2.53333 km/h
Sensor: Nr:Datum:Temp:Abs-Feuchte:Windchill:Wind:
Aussen-T/F 1726 04-10-2019 21:00:00 11.65833 C 10.01 g/m*3 11.66 C 5.775 km/h
1727 04-10-2019 22:00:00 11.69167 C 9.97 g/m*3 11.69 C 4.29167 km/h
1728 04-10-2019 23:00:00 11.71667 C 9.99 g/m*3 11.72 C 5.9 km/h
1729 05-10-2019 00:00:00 11.96667 C 9.86 g/m*3 11.97 C 7.10833 km/h
1730 05-10-2019 01:00:00 12.09167 C 9.86 g/m*3 12.09 C 6.85833 km/h
1731 05-10-2019 02:00:00 12.225 C 9.8 g/m*3 12.23 C 7.64167 km/h
1732 05-10-2019 03:00:00 12.3 C 9.94 g/m*3 12.3 C 3.20833 km/h
1733 05-10-2019 04:00:00 11.55 C 9.64 g/m*3 11.55 C 5.90833 km/h
1734 05-10-2019 05:00:00 10.75833 C 9.21 g/m*3 10.24 C 6.44167 km/h
1735 05-10-2019 06:00:00 10.20833 C 8.93 g/m*3 10.21 C 2.275 km/h
1736 05-10-2019 07:00:00 9.98333 C 8.77 g/m*3 9.98 C 3.6 km/h
1737 05-10-2019 08:00:00 9.81667 C 8.54 g/m*3 9.82 C 2.26667 km/h
1738 05-10-2019 09:00:00 10.18333 C 8.62 g/m*3 10.18 C 4.94167 km/h
1739 05-10-2019 10:00:00 10.55833 C 8.61 g/m*3 9.6 C 8.325 km/h
1740 05-10-2019 11:00:00 10.70833 C 8.11 g/m*3 9.72 C 8.60833 km/h
1741 05-10-2019 12:00:00 11.2 C 8.17 g/m*3 11.2 C 6.575 km/h
1742 05-10-2019 13:00:00 11.9 C 8.22 g/m*3 11.9 C 4.26667 km/h
1743 05-10-2019 14:00:00 11.89167 C 8.27 g/m*3 11.89 C 2.40833 km/h
1744 05-10-2019 15:00:00 12.23333 C 8.36 g/m*3 12.23 C 0.93333 km/h
1745 05-10-2019 16:00:00 12.3 C 8.75 g/m*3 12.3 C 0.66667 km/h
1746 05-10-2019 17:00:00 12.06667 C 9 g/m*3 12.07 C 0.13333 km/h
1747 05-10-2019 18:00:00 11.125 C 8.64 g/m*3 11.13 C 0 km/h
1748 05-10-2019 19:00:00 9.50833 C 7.87 g/m*3 9.51 C 0.4 km/h
1749 05-10-2019 20:00:00 8.35833 C 7.46 g/m*3 8.36 C 1.33333 km/h
1750 05-10-2019 21:00:00 7.875 C 7.44 g/m*3 7.88 C 0 km/h
Sensor: Nr:Datum:Temp:Abs-Feuchte:Windchill:Wind:
Aussen-T/F 1751 05-10-2019 22:00:00 7.43333 C 7.44 g/m*3 7.43 C 0 km/h
1752 05-10-2019 23:00:00 7.35 C 7.45 g/m*3 7.35 C 0 km/h
1753 06-10-2019 00:00:00 7.13333 C 7.36 g/m*3 7.13 C 0 km/h
1754 06-10-2019 01:00:00 6.55 C 7.11 g/m*3 6.55 C 0 km/h
1755 06-10-2019 02:00:00 6.7 C 7.26 g/m*3 6.7 C 0 km/h
1756 06-10-2019 03:00:00 7.05833 C 7.47 g/m*3 7.06 C 0 km/h
1757 06-10-2019 04:00:00 7.2 C 7.54 g/m*3 7.2 C 0 km/h
1758 06-10-2019 05:00:00 7.18333 C 7.53 g/m*3 7.18 C 0 km/h
1759 06-10-2019 06:00:00 7.38333 C 7.63 g/m*3 7.38 C 0 km/h
1760 06-10-2019 07:00:00 7.65833 C 7.76 g/m*3 7.66 C 0 km/h
1761 06-10-2019 08:00:00 7.84167 C 7.86 g/m*3 7.84 C 0 km/h
1762 06-10-2019 09:00:00 8.31667 C 8.1 g/m*3 8.32 C 0 km/h
1763 06-10-2019 10:00:00 8.63333 C 8.22 g/m*3 8.63 C 0.8 km/h
1764 06-10-2019 11:00:00 8.55833 C 8.21 g/m*3 8.56 C 3.6 km/h
1765 06-10-2019 12:00:00 8.78333 C 8.35 g/m*3 8.78 C 0.26667 km/h
1766 06-10-2019 13:00:00 9.06667 C 8.5 g/m*3 9.07 C 0.66667 km/h
1767 06-10-2019 14:00:00 9.25 C 8.6 g/m*3 9.25 C 1.06667 km/h
1768 06-10-2019 15:00:00 9.45833 C 8.72 g/m*3 9.46 C 0.53333 km/h
1769 06-10-2019 16:00:00 9.61667 C 8.8 g/m*3 9.62 C 1.86667 km/h
1770 06-10-2019 17:00:00 9.51667 C 8.75 g/m*3 9.52 C 0.53333 km/h
1771 06-10-2019 18:00:00 9.325 C 8.64 g/m*3 9.32 C 3.225 km/h
1772 06-10-2019 19:00:00 9.15 C 8.57 g/m*3 9.15 C 3.60833 km/h
1773 06-10-2019 20:00:00 9.1 C 8.61 g/m*3 9.1 C 0.4 km/h
1774 06-10-2019 21:00:00 9.04167 C 8.57 g/m*3 9.04 C 1.74167 km/h
1775 06-10-2019 22:00:00 8.81667 C 8.45 g/m*3 8.82 C 1.875 km/h
Sensor: Nr:Datum:Temp:Abs-Feuchte:Windchill:Wind:
Aussen-T/F 1776 06-10-2019 23:00:00 8.83333 C 8.46 g/m*3 8.83 C 0 km/h
1777 07-10-2019 00:00:00 8.9 C 8.5 g/m*3 8.9 C 0.26667 km/h
1778 07-10-2019 01:00:00 8.725 C 8.4 g/m*3 8.73 C 2.95 km/h
1779 07-10-2019 02:00:00 8.69167 C 8.38 g/m*3 8.69 C 0.13333 km/h
1780 07-10-2019 03:00:00 8.60833 C 8.34 g/m*3 8.61 C 1.33333 km/h
1781 07-10-2019 04:00:00 8.7 C 8.39 g/m*3 8.7 C 0 km/h
1782 07-10-2019 05:00:00 8.64167 C 8.36 g/m*3 8.64 C 1.86667 km/h
1783 07-10-2019 06:00:00 8.6 C 8.34 g/m*3 8.6 C 0.13333 km/h
1784 07-10-2019 07:00:00 8.6 C 8.34 g/m*3 8.6 C 0 km/h
1785 07-10-2019 08:00:00 8.66667 C 8.37 g/m*3 8.67 C 0 km/h
1786 07-10-2019 09:00:00 8.83333 C 8.46 g/m*3 8.83 C 0.26667 km/h
1787 07-10-2019 10:00:00 9.08333 C 8.6 g/m*3 9.08 C 1.06667 km/h
1788 07-10-2019 11:00:00 9.65 C 8.88 g/m*3 9.65 C 3.34167 km/h
1789 07-10-2019 12:00:00 10.51667 C 9.05 g/m*3 10.52 C 2.4 km/h
1790 07-10-2019 13:00:00 10.84167 C 9 g/m*3 10.84 C 2.675 km/h
1791 07-10-2019 14:00:00 11.46667 C 9.1 g/m*3 11.47 C 5.89167 km/h
1792 07-10-2019 15:00:00 12.225 C 9.43 g/m*3 12.23 C 1.86667 km/h
1793 07-10-2019 16:00:00 12.29167 C 9.53 g/m*3 12.29 C 1.33333 km/h
1794 07-10-2019 17:00:00 12.3 C 9.56 g/m*3 12.3 C 2.4 km/h
1795 07-10-2019 18:00:00 11.86667 C 9.56 g/m*3 11.87 C 0.53333 km/h
1796 07-10-2019 19:00:00 11.09167 C 9.35 g/m*3 11.09 C 0 km/h
1797 07-10-2019 20:00:00 10.725 C 9.32 g/m*3 10.73 C 0 km/h
1798 07-10-2019 21:00:00 10.975 C 9.58 g/m*3 10.98 C 0 km/h
1799 07-10-2019 22:00:00 11.1 C 9.67 g/m*3 11.1 C 0.26667 km/h
1800 07-10-2019 23:00:00 11.1 C 9.67 g/m*3 11.1 C 0.26667 km/h
Sensor: Nr:Datum:Temp:Abs-Feuchte:Windchill:Wind:
Aussen-T/F 1801 08-10-2019 00:00:00 11.11667 C 9.75 g/m*3 11.12 C 0.53333 km/h
1802 08-10-2019 01:00:00 11.25 C 9.79 g/m*3 11.25 C 1.33333 km/h
1803 08-10-2019 02:00:00 11.44167 C 9.88 g/m*3 11.44 C 0.93333 km/h
1804 08-10-2019 03:00:00 11.75833 C 10.05 g/m*3 11.76 C 3.75833 km/h
1805 08-10-2019 04:00:00 11.9 C 10.03 g/m*3 11.9 C 3.61667 km/h
1806 08-10-2019 05:00:00 12.31667 C 10 g/m*3 12.32 C 8.46667 km/h
1807 08-10-2019 06:00:00 12.18333 C 9.96 g/m*3 12.18 C 4.3 km/h
1808 08-10-2019 07:00:00 11.79167 C 9.97 g/m*3 11.79 C 2.53333 km/h
1809 08-10-2019 08:00:00 11.825 C 10.1 g/m*3 11.83 C 5.775 km/h
1810 08-10-2019 09:00:00 12.03333 C 10.25 g/m*3 12.03 C 10.05833 km/h
1811 08-10-2019 10:00:00 12.49167 C 10.45 g/m*3 12.49 C 12.76667 km/h
1812 08-10-2019 11:00:00 13.5 C 10.89 g/m*3 13.5 C 13.7 km/h
1813 08-10-2019 12:00:00 13.85833 C 10.95 g/m*3 13.86 C 14.36667 km/h
1814 08-10-2019 13:00:00 14.225 C 11.19 g/m*3 14.23 C 9.93333 km/h
1815 08-10-2019 14:00:00 14.6 C 11.43 g/m*3 14.6 C 10.075 km/h
1816 08-10-2019 15:00:00 14.48333 C 11.47 g/m*3 14.48 C 9.55 km/h
1817 08-10-2019 16:00:00 14.225 C 11.56 g/m*3 14.23 C 6.70833 km/h
1818 08-10-2019 17:00:00 14.05833 C 11.55 g/m*3 14.06 C 3.61667 km/h
1819 08-10-2019 18:00:00 13.86667 C 11.49 g/m*3 13.87 C 3.09167 km/h
1820 08-10-2019 19:00:00 13.79167 C 11.43 g/m*3 13.79 C 1.875 km/h
1821 08-10-2019 20:00:00 13.55 C 11.3 g/m*3 13.55 C 0.53333 km/h
1822 08-10-2019 21:00:00 13.225 C 11.14 g/m*3 13.23 C 0.13333 km/h
1823 08-10-2019 22:00:00 12.825 C 10.88 g/m*3 12.83 C 0 km/h
1824 08-10-2019 23:00:00 11.68333 C 10.05 g/m*3 11.68 C 0.53333 km/h
1825 09-10-2019 00:00:00 10.78333 C 9.56 g/m*3 10.78 C 0.13333 km/h
Sensor: Nr:Datum:Temp:Abs-Feuchte:Windchill:Wind:
Aussen-T/F 1826 09-10-2019 01:00:00 10.34167 C 9.31 g/m*3 10.34 C 0.13333 km/h
1827 09-10-2019 02:00:00 10.35 C 9.33 g/m*3 10.35 C 1.2 km/h
1828 09-10-2019 03:00:00 10.625 C 9.52 g/m*3 10.63 C 3.35833 km/h
1829 09-10-2019 04:00:00 10.98333 C 9.72 g/m*3 10.77 C 5.36667 km/h
1830 09-10-2019 05:00:00 10.79167 C 9.58 g/m*3 10.59 C 5.225 km/h
1831 09-10-2019 06:00:00 10.925 C 9.66 g/m*3 10.37 C 6.69167 km/h
1832 09-10-2019 07:00:00 10.64167 C 9.4 g/m*3 10.64 C 4.54167 km/h
1833 09-10-2019 08:00:00 10.73333 C 9.48 g/m*3 10.73 C 4.95833 km/h
1834 09-10-2019 09:00:00 11.2 C 9.76 g/m*3 11.2 C 5.36667 km/h
1835 09-10-2019 10:00:00 12.55 C 10.19 g/m*3 12.55 C 7.38333 km/h
1836 09-10-2019 11:00:00 13.55833 C 10.43 g/m*3 13.56 C 3.46667 km/h
1837 09-10-2019 12:00:00 13.90833 C 10.64 g/m*3 13.91 C 5.225 km/h
1838 09-10-2019 13:00:00 13.59167 C 10.87 g/m*3 13.59 C 1.34167 km/h
1839 09-10-2019 14:00:00 12.925 C 10.43 g/m*3 12.93 C 3.74167 km/h
1840 09-10-2019 15:00:00 12.28333 C 10.09 g/m*3 12.28 C 9.01667 km/h
1841 09-10-2019 16:00:00 12.775 C 10.02 g/m*3 12.78 C 8.86667 km/h
1842 09-10-2019 17:00:00 12.975 C 9.81 g/m*3 12.98 C 10.20833 km/h
1843 09-10-2019 18:00:00 12.525 C 9.54 g/m*3 12.53 C 11.28333 km/h
1844 09-10-2019 19:00:00 11.84167 C 9.37 g/m*3 11.84 C 9.675 km/h
1845 09-10-2019 20:00:00 11.20833 C 9.09 g/m*3 11.21 C 6.3 km/h
1846 09-10-2019 21:00:00 11.06667 C 9.07 g/m*3 11.07 C 8.2 km/h
1847 09-10-2019 22:00:00 11.10833 C 8.69 g/m*3 11.11 C 14.23333 km/h
1848 09-10-2019 23:00:00 10.8 C 8.53 g/m*3 9.33 C 11.7 km/h
1849 10-10-2019 00:00:00 10.375 C 8.45 g/m*3 8.64 C 12.89167 km/h
1850 10-10-2019 01:00:00 10.15833 C 8.49 g/m*3 9.61 C 6.15833 km/h
Sensor: Nr:Datum:Temp:Abs-Feuchte:Windchill:Wind:
Aussen-T/F 1851 10-10-2019 02:00:00 10.39167 C 8.71 g/m*3 10.39 C 4.825 km/h
1852 10-10-2019 03:00:00 10.68333 C 8.93 g/m*3 10.68 C 4.81667 km/h
1853 10-10-2019 04:00:00 10.56667 C 8.95 g/m*3 9.64 C 8.18333 km/h
1854 10-10-2019 05:00:00 10.40833 C 9.02 g/m*3 10.41 C 3.2 km/h
1855 10-10-2019 06:00:00 10.44167 C 9.05 g/m*3 10.11 C 5.49167 km/h
1856 10-10-2019 07:00:00 10.09167 C 8.79 g/m*3 9.37 C 6.84167 km/h
1857 10-10-2019 08:00:00 9.81667 C 8.56 g/m*3 8.93 C 7.375 km/h
1858 10-10-2019 09:00:00 10.675 C 8.79 g/m*3 9.59 C 9.13333 km/h
1859 10-10-2019 10:00:00 11.29167 C 8.88 g/m*3 11.29 C 11.825 km/h
1860 10-10-2019 11:00:00 12.33333 C 9.13 g/m*3 12.33 C 12.89167 km/h
1861 10-10-2019 12:00:00 13.35 C 9.1 g/m*3 13.35 C 14.1 km/h
1862 10-10-2019 13:00:00 14.28333 C 8.73 g/m*3 14.28 C 16.5 km/h
1863 10-10-2019 14:00:00 14.53333 C 9.12 g/m*3 14.53 C 12.20833 km/h
1864 10-10-2019 15:00:00 15.09167 C 9.33 g/m*3 15.09 C 12.76667 km/h
1865 10-10-2019 16:00:00 15.37778 C 9.32 g/m*3 15.38 C 12.01111 km/h
1866 10-10-2019 17:00:00 13.83333 C 9.62 g/m*3 13.83 C 9.675 km/h
1867 10-10-2019 18:00:00 13.18333 C 9.53 g/m*3 13.18 C 4.15 km/h
1868 10-10-2019 19:00:00 11.68333 C 9.19 g/m*3 11.68 C 3.475 km/h
1869 10-10-2019 20:00:00 11.69167 C 9.23 g/m*3 11.69 C 4.95 km/h
1870 10-10-2019 21:00:00 10.88333 C 9 g/m*3 10.88 C 0.26667 km/h
1871 10-10-2019 22:00:00 10.18333 C 8.9 g/m*3 10.18 C 0.13333 km/h
1872 10-10-2019 23:00:00 9.8 C 8.77 g/m*3 9.8 C 0.93333 km/h
1873 11-10-2019 00:00:00 9.575 C 8.73 g/m*3 9.57 C 1.06667 km/h
1874 11-10-2019 01:00:00 9.19167 C 8.52 g/m*3 9.19 C 0.8 km/h
1875 11-10-2019 02:00:00 8.83333 C 8.36 g/m*3 8.83 C 0 km/h
Sensor: Nr:Datum:Temp:Abs-Feuchte:Windchill:Wind:
Aussen-T/F 1876 11-10-2019 03:00:00 8.98333 C 8.48 g/m*3 8.98 C 1.74167 km/h
1877 11-10-2019 04:00:00 9.49167 C 8.72 g/m*3 9.49 C 3.86667 km/h
1878 11-10-2019 05:00:00 9.45833 C 8.62 g/m*3 9.46 C 2.40833 km/h
1879 11-10-2019 06:00:00 9.43333 C 8.6 g/m*3 9.43 C 0.4 km/h
1880 11-10-2019 07:00:00 9.91667 C 8.89 g/m*3 9.92 C 1.60833 km/h
1881 11-10-2019 08:00:00 10.98333 C 9.5 g/m*3 10.98 C 2.80833 km/h
1882 11-10-2019 09:00:00 12.425 C 10.21 g/m*3 12.43 C 3.21667 km/h
1883 11-10-2019 10:00:00 13.35833 C 10.58 g/m*3 13.36 C 3.34167 km/h
1884 11-10-2019 11:00:00 14.85833 C 10.83 g/m*3 14.86 C 11.68333 km/h
1885 11-10-2019 12:00:00 15.85 C 10.72 g/m*3 15.85 C 16.1 km/h
1886 11-10-2019 13:00:00 16.39167 C 10.82 g/m*3 16.39 C 11.15 km/h
1887 11-10-2019 14:00:00 16.29167 C 10.86 g/m*3 16.29 C 11.275 km/h
1888 11-10-2019 15:00:00 16.56667 C 10.9 g/m*3 16.57 C 11.03333 km/h
1889 11-10-2019 16:00:00 16.6 C 11.02 g/m*3 16.6 C 10.61667 km/h
1890 11-10-2019 17:00:00 16.66667 C 11.09 g/m*3 16.67 C 9 km/h
1891 11-10-2019 18:00:00 16.04167 C 11.1 g/m*3 16.04 C 4.03333 km/h
1892 11-10-2019 19:00:00 14.19167 C 10.81 g/m*3 14.19 C 0.4 km/h
1893 11-10-2019 20:00:00 13.55833 C 10.81 g/m*3 13.56 C 0 km/h
1894 11-10-2019 21:00:00 12.80833 C 10.44 g/m*3 12.81 C 0 km/h
1895 11-10-2019 22:00:00 12.075 C 10.11 g/m*3 12.08 C 0 km/h
1896 11-10-2019 23:00:00 11.81667 C 10.03 g/m*3 11.82 C 0 km/h
1897 12-10-2019 00:00:00 11.11667 C 9.59 g/m*3 11.12 C 0 km/h
1898 12-10-2019 01:00:00 10.63333 C 9.39 g/m*3 10.63 C 0 km/h
1899 12-10-2019 02:00:00 10.30833 C 9.2 g/m*3 10.31 C 0.13333 km/h
1900 12-10-2019 03:00:00 9.95833 C 9 g/m*3 9.96 C 0 km/h
Sensor: Nr:Datum:Temp:Abs-Feuchte:Windchill:Wind:
Aussen-T/F 1901 12-10-2019 04:00:00 10.01667 C 9.12 g/m*3 10.02 C 0 km/h
1902 12-10-2019 05:00:00 9.58333 C 8.84 g/m*3 9.58 C 0 km/h
1903 12-10-2019 06:00:00 8.89167 C 8.49 g/m*3 8.89 C 0 km/h
1904 12-10-2019 07:00:00 8.74167 C 8.41 g/m*3 8.74 C 0 km/h
1905 12-10-2019 08:00:00 8.86667 C 8.48 g/m*3 8.87 C 0 km/h
1906 12-10-2019 09:00:00 9.28333 C 8.73 g/m*3 9.28 C 0.93333 km/h
1907 12-10-2019 10:00:00 11.75 C 10.28 g/m*3 11.75 C 5.225 km/h
1908 12-10-2019 11:00:00 14.25 C 11.36 g/m*3 14.25 C 9.80833 km/h
1909 12-10-2019 12:00:00 16.45 C 11.47 g/m*3 16.45 C 7.79167 km/h
1910 12-10-2019 13:00:00 17.975 C 11.63 g/m*3 17.98 C 11.825 km/h
1911 12-10-2019 14:00:00 19.40833 C 11.8 g/m*3 19.41 C 13.56667 km/h
1912 12-10-2019 15:00:00 19.93333 C 11.86 g/m*3 19.93 C 14.76667 km/h
1913 12-10-2019 16:00:00 19.6 C 12.11 g/m*3 19.6 C 13.7 km/h
1914 12-10-2019 17:00:00 18.85 C 12.1 g/m*3 18.85 C 9.26667 km/h
1915 12-10-2019 18:00:00 17.225 C 12.21 g/m*3 17.23 C 0.26667 km/h
1916 12-10-2019 19:00:00 15.61667 C 11.8 g/m*3 15.62 C 0 km/h
1917 12-10-2019 20:00:00 14.93333 C 11.5 g/m*3 14.93 C 0 km/h
1918 12-10-2019 21:00:00 14.51667 C 11.56 g/m*3 14.52 C 1.6 km/h
1919 12-10-2019 22:00:00 14.925 C 11.72 g/m*3 14.93 C 0.26667 km/h
1920 12-10-2019 23:00:00 14.375 C 11.54 g/m*3 14.38 C 0 km/h
1921 13-10-2019 00:00:00 13.65 C 11.13 g/m*3 13.65 C 0.13333 km/h
1922 13-10-2019 01:00:00 13.11667 C 10.87 g/m*3 13.12 C 0 km/h
1923 13-10-2019 02:00:00 13.30833 C 11.14 g/m*3 13.31 C 0 km/h
1924 13-10-2019 03:00:00 13.40833 C 11.18 g/m*3 13.41 C 0 km/h
1925 13-10-2019 04:00:00 13 C 10.94 g/m*3 13 C 0.26667 km/h
Sensor: Nr:Datum:Temp:Abs-Feuchte:Windchill:Wind:
Aussen-T/F 1926 13-10-2019 05:00:00 13.54167 C 11.37 g/m*3 13.54 C 0 km/h
1927 13-10-2019 06:00:00 13.79167 C 11.55 g/m*3 13.79 C 0 km/h
1928 13-10-2019 07:00:00 13.76667 C 11.53 g/m*3 13.77 C 0 km/h
1929 13-10-2019 08:00:00 13.11667 C 11.08 g/m*3 13.12 C 0.4 km/h
1930 13-10-2019 09:00:00 13.46667 C 11.38 g/m*3 13.47 C 0 km/h
1931 13-10-2019 10:00:00 14.23333 C 11.98 g/m*3 14.23 C 0 km/h
1932 13-10-2019 11:00:00 15.63333 C 13.06 g/m*3 15.63 C 1.2 km/h
1933 13-10-2019 12:00:00 17.325 C 14.43 g/m*3 17.33 C 2.14167 km/h
1934 13-10-2019 13:00:00 19.45833 C 15.3 g/m*3 19.46 C 2.00833 km/h
1935 13-10-2019 14:00:00 21.65833 C 14.76 g/m*3 21.66 C 4.54167 km/h
1936 13-10-2019 15:00:00 22.03333 C 14.76 g/m*3 22.03 C 4.025 km/h
1937 13-10-2019 16:00:00 21.96667 C 14.92 g/m*3 21.97 C 2.54167 km/h
1938 13-10-2019 17:00:00 21.125 C 14.87 g/m*3 21.13 C 0.93333 km/h
1939 13-10-2019 18:00:00 19.51667 C 14.41 g/m*3 19.52 C 0.8 km/h
1940 13-10-2019 19:00:00 18.45 C 13.93 g/m*3 18.45 C 0.4 km/h
1941 13-10-2019 20:00:00 18.11667 C 13.66 g/m*3 18.12 C 0.26667 km/h
1942 13-10-2019 21:00:00 17.41667 C 13.24 g/m*3 17.42 C 0.26667 km/h
1943 13-10-2019 22:00:00 17.06667 C 12.86 g/m*3 17.07 C 0.13333 km/h
1944 13-10-2019 23:00:00 16.56667 C 12.52 g/m*3 16.57 C 0.26667 km/h
1945 14-10-2019 00:00:00 15.825 C 12.14 g/m*3 15.83 C 0 km/h
1946 14-10-2019 01:00:00 15.41667 C 11.97 g/m*3 15.42 C 0 km/h
1947 14-10-2019 02:00:00 14.91667 C 11.73 g/m*3 14.92 C 0 km/h
1948 14-10-2019 03:00:00 14.14167 C 11.33 g/m*3 14.14 C 0.26667 km/h
1949 14-10-2019 04:00:00 13.45833 C 11 g/m*3 13.46 C 0 km/h
1950 14-10-2019 05:00:00 13.36667 C 11.08 g/m*3 13.37 C 0.26667 km/h
Sensor: Nr:Datum:Temp:Abs-Feuchte:Windchill:Wind:
Aussen-T/F 1951 14-10-2019 06:00:00 12.9 C 10.73 g/m*3 12.9 C 0 km/h
1952 14-10-2019 07:00:00 12.75 C 10.7 g/m*3 12.75 C 1.2 km/h
1953 14-10-2019 08:00:00 12.88333 C 10.81 g/m*3 12.88 C 0 km/h
1954 14-10-2019 09:00:00 13.24167 C 11.07 g/m*3 13.24 C 0 km/h
1955 14-10-2019 10:00:00 13.64167 C 11.39 g/m*3 13.64 C 0 km/h
1956 14-10-2019 11:00:00 14.90833 C 12.37 g/m*3 14.91 C 0 km/h
1957 14-10-2019 12:00:00 16.49167 C 13.51 g/m*3 16.49 C 0 km/h
1958 14-10-2019 13:00:00 18.55833 C 14.17 g/m*3 18.56 C 1.73333 km/h
1959 14-10-2019 14:00:00 21.1 C 14.13 g/m*3 21.1 C 3.75 km/h
1960 14-10-2019 15:00:00 21.11667 C 13.92 g/m*3 21.12 C 2.675 km/h
1961 14-10-2019 16:00:00 20.775 C 13.38 g/m*3 20.78 C 2.81667 km/h
1962 14-10-2019 17:00:00 19.81667 C 13.44 g/m*3 19.82 C 0 km/h
1963 14-10-2019 18:00:00 18.93333 C 13.13 g/m*3 18.93 C 0.26667 km/h
1964 14-10-2019 19:00:00 17.43333 C 12.92 g/m*3 17.43 C 0.26667 km/h
1965 14-10-2019 20:00:00 16.71667 C 12.54 g/m*3 16.72 C 0.13333 km/h
1966 14-10-2019 21:00:00 15.88333 C 12.05 g/m*3 15.88 C 0 km/h
1967 14-10-2019 22:00:00 14.875 C 11.7 g/m*3 14.88 C 0.26667 km/h
1968 14-10-2019 23:00:00 15.075 C 11.86 g/m*3 15.08 C 0.26667 km/h
1969 15-10-2019 00:00:00 15.08333 C 11.86 g/m*3 15.08 C 0.13333 km/h
1970 15-10-2019 01:00:00 14.4 C 11.41 g/m*3 14.4 C 0.13333 km/h
1971 15-10-2019 02:00:00 13.43333 C 10.9 g/m*3 13.43 C 0 km/h
1972 15-10-2019 03:00:00 12.725 C 10.54 g/m*3 12.73 C 0 km/h
1973 15-10-2019 04:00:00 12.38333 C 10.41 g/m*3 12.38 C 0.8 km/h
1974 15-10-2019 05:00:00 11.95833 C 10.18 g/m*3 11.96 C 0 km/h
1975 15-10-2019 06:00:00 12.09167 C 10.35 g/m*3 12.09 C 0.26667 km/h
Sensor: Nr:Datum:Temp:Abs-Feuchte:Windchill:Wind:
Aussen-T/F 1976 15-10-2019 07:00:00 11.96667 C 10.24 g/m*3 11.97 C 0 km/h
1977 15-10-2019 08:00:00 11.79167 C 10.19 g/m*3 11.79 C 0 km/h
1978 15-10-2019 09:00:00 12.36667 C 10.58 g/m*3 12.37 C 0 km/h
1979 15-10-2019 10:00:00 13.25833 C 11.18 g/m*3 13.26 C 0.8 km/h
1980 15-10-2019 11:00:00 15.375 C 12.54 g/m*3 15.38 C 2.54167 km/h
1981 15-10-2019 12:00:00 17.68333 C 12.87 g/m*3 17.68 C 6.58333 km/h
1982 15-10-2019 13:00:00 18.10833 C 12.43 g/m*3 18.11 C 9 km/h
1983 15-10-2019 14:00:00 17.73333 C 12.25 g/m*3 17.73 C 7.11667 km/h
1984 15-10-2019 15:00:00 17.21667 C 12.02 g/m*3 17.22 C 5.625 km/h
1985 15-10-2019 16:00:00 16.65833 C 12.09 g/m*3 16.66 C 1.86667 km/h
1986 15-10-2019 17:00:00 16.28333 C 12.2 g/m*3 16.28 C 0.13333 km/h
1987 15-10-2019 18:00:00 15.11667 C 11.88 g/m*3 15.12 C 0.66667 km/h
1988 15-10-2019 19:00:00 14.29167 C 11.58 g/m*3 14.29 C 0 km/h
1989 15-10-2019 20:00:00 13.925 C 11.41 g/m*3 13.93 C 0 km/h
1990 15-10-2019 21:00:00 13.65 C 11.27 g/m*3 13.65 C 0 km/h
1991 15-10-2019 22:00:00 13.41667 C 11.17 g/m*3 13.42 C 2.275 km/h
1992 15-10-2019 23:00:00 12.925 C 10.73 g/m*3 12.93 C 7.39167 km/h
1993 16-10-2019 00:00:00 12.10833 C 10.18 g/m*3 12.11 C 3.48333 km/h
1994 16-10-2019 01:00:00 11.85833 C 10.11 g/m*3 11.86 C 0.13333 km/h
1995 16-10-2019 02:00:00 11.8 C 10.1 g/m*3 11.8 C 0.26667 km/h
1996 16-10-2019 03:00:00 11.775 C 10.09 g/m*3 11.78 C 4.425 km/h
1997 16-10-2019 04:00:00 11.625 C 9.99 g/m*3 11.63 C 2.675 km/h
1998 16-10-2019 05:00:00 11.425 C 9.87 g/m*3 11.43 C 1.33333 km/h
1999 16-10-2019 06:00:00 11.18333 C 9.63 g/m*3 11.18 C 6.975 km/h
2000 16-10-2019 07:00:00 10.95833 C 9.38 g/m*3 10.96 C 2.26667 km/h
Sensor: Nr:Datum:Temp:Abs-Feuchte:Windchill:Wind:
Aussen-T/F 2001 16-10-2019 08:00:00 10.65 C 9.2 g/m*3 10.65 C 2.81667 km/h
2002 16-10-2019 09:00:00 10.925 C 9.44 g/m*3 10.93 C 1.6 km/h
2003 16-10-2019 10:00:00 12.44167 C 9.99 g/m*3 12.44 C 3.2 km/h
2004 16-10-2019 11:00:00 13.79167 C 10.29 g/m*3 13.79 C 5.9 km/h
2005 16-10-2019 12:00:00 14.55 C 10.54 g/m*3 14.55 C 5.64167 km/h
2006 16-10-2019 13:00:00 14.08333 C 11.05 g/m*3 14.08 C 0.53333 km/h
2007 16-10-2019 14:00:00 13.51667 C 11.02 g/m*3 13.52 C 2.275 km/h
2008 16-10-2019 15:00:00 13.91667 C 11.37 g/m*3 13.92 C 1.73333 km/h
2009 16-10-2019 16:00:00 14.34167 C 11.6 g/m*3 14.34 C 2.4 km/h
2010 16-10-2019 17:00:00 14.36667 C 11.66 g/m*3 14.37 C 0.26667 km/h
2011 16-10-2019 18:00:00 13.90833 C 11.39 g/m*3 13.91 C 0.13333 km/h
2012 16-10-2019 19:00:00 13.53333 C 11.25 g/m*3 13.53 C 0 km/h
2013 16-10-2019 20:00:00 13.25 C 11.06 g/m*3 13.25 C 0.26667 km/h
2014 16-10-2019 21:00:00 12.71667 C 10.7 g/m*3 12.72 C 0.26667 km/h
2015 16-10-2019 22:00:00 12.55833 C 10.59 g/m*3 12.56 C 0.26667 km/h
2016 16-10-2019 23:00:00 12.4 C 10.53 g/m*3 12.4 C 0.66667 km/h
2017 17-10-2019 00:00:00 12.64167 C 10.65 g/m*3 12.64 C 0.26667 km/h
2018 17-10-2019 01:00:00 12.61667 C 10.63 g/m*3 12.62 C 0.26667 km/h
2019 17-10-2019 02:00:00 12.375 C 10.47 g/m*3 12.38 C 0.26667 km/h
2020 17-10-2019 03:00:00 12.76667 C 10.67 g/m*3 12.77 C 1.2 km/h
2021 17-10-2019 04:00:00 13.575 C 10.86 g/m*3 13.58 C 1.6 km/h
2022 17-10-2019 05:00:00 14.19167 C 10.9 g/m*3 14.19 C 3.20833 km/h
2023 17-10-2019 06:00:00 14.23333 C 10.88 g/m*3 14.23 C 4.00833 km/h
2024 17-10-2019 07:00:00 14.24167 C 10.97 g/m*3 14.24 C 2.68333 km/h
2025 17-10-2019 08:00:00 14.58333 C 10.96 g/m*3 14.58 C 6.85 km/h
Sensor: Nr:Datum:Temp:Abs-Feuchte:Windchill:Wind:
Aussen-T/F 2026 17-10-2019 09:00:00 15.36667 C 11.12 g/m*3 15.37 C 7.39167 km/h
2027 17-10-2019 10:00:00 15.86667 C 11.24 g/m*3 15.87 C 9.39167 km/h
2028 17-10-2019 11:00:00 16.65833 C 11.61 g/m*3 16.66 C 3.88333 km/h
2029 17-10-2019 12:00:00 16.65833 C 11.92 g/m*3 16.66 C 2.26667 km/h
2030 17-10-2019 13:00:00 16.81667 C 11.88 g/m*3 16.82 C 5.50833 km/h
2031 17-10-2019 14:00:00 16.84167 C 12.29 g/m*3 16.84 C 0.93333 km/h
2032 17-10-2019 15:00:00 16.63333 C 12.31 g/m*3 16.63 C 0.8 km/h
2033 17-10-2019 16:00:00 15.85 C 12.31 g/m*3 15.85 C 0.26667 km/h
2034 17-10-2019 17:00:00 15.14167 C 12.15 g/m*3 15.14 C 0.13333 km/h
2035 17-10-2019 18:00:00 14.61667 C 11.9 g/m*3 14.62 C 0.26667 km/h
2036 17-10-2019 19:00:00 14.15833 C 11.65 g/m*3 14.16 C 0 km/h
2037 17-10-2019 20:00:00 14.08333 C 11.64 g/m*3 14.08 C 0.4 km/h
2038 17-10-2019 21:00:00 13.9 C 11.6 g/m*3 13.9 C 0.53333 km/h
2039 17-10-2019 22:00:00 13.85 C 11.59 g/m*3 13.85 C 0.13333 km/h
2040 17-10-2019 23:00:00 13.89167 C 11.62 g/m*3 13.89 C 0.66667 km/h
2041 18-10-2019 00:00:00 13.825 C 11.58 g/m*3 13.83 C 0.93333 km/h
2042 18-10-2019 01:00:00 12.83333 C 10.88 g/m*3 12.83 C 0.4 km/h
2043 18-10-2019 02:00:00 12.125 C 10.42 g/m*3 12.13 C 0 km/h
2044 18-10-2019 03:00:00 11.58333 C 10.07 g/m*3 11.58 C 0.4 km/h
2045 18-10-2019 04:00:00 11.49167 C 10.01 g/m*3 11.49 C 0.26667 km/h
2046 18-10-2019 05:00:00 11.80833 C 10.25 g/m*3 11.81 C 0.66667 km/h
2047 18-10-2019 06:00:00 12.7 C 10.91 g/m*3 12.7 C 1.6 km/h
2048 18-10-2019 07:00:00 12.60833 C 10.81 g/m*3 12.61 C 0.13333 km/h
2049 18-10-2019 08:00:00 12.8 C 10.98 g/m*3 12.8 C 0.26667 km/h
2050 18-10-2019 09:00:00 13.4 C 11.39 g/m*3 13.4 C 0 km/h
Sensor: Nr:Datum:Temp:Abs-Feuchte:Windchill:Wind:
Aussen-T/F 2051 18-10-2019 10:00:00 14.38333 C 12.1 g/m*3 14.38 C 1.33333 km/h
2052 18-10-2019 11:00:00 14.66667 C 12.23 g/m*3 14.67 C 3.88333 km/h
2053 18-10-2019 12:00:00 15.46667 C 11.78 g/m*3 15.47 C 7.25 km/h
2054 18-10-2019 13:00:00 14.95833 C 10.73 g/m*3 14.96 C 15.175 km/h
2055 18-10-2019 14:00:00 12.91667 C 9.64 g/m*3 12.92 C 16.50833 km/h
2056 18-10-2019 15:00:00 13.8 C 9.6 g/m*3 13.8 C 12.89167 km/h
2057 18-10-2019 16:00:00 14.23333 C 9.29 g/m*3 14.23 C 15.425 km/h
2058 18-10-2019 17:00:00 14.40833 C 9.06 g/m*3 14.41 C 9.8 km/h
2059 18-10-2019 18:00:00 12.64167 C 8.93 g/m*3 12.64 C 2.41667 km/h
2060 18-10-2019 19:00:00 10.63333 C 8.68 g/m*3 10.63 C 0.26667 km/h
2061 18-10-2019 20:00:00 9.75833 C 8.5 g/m*3 9.76 C 0 km/h
2062 18-10-2019 21:00:00 9.20833 C 8.34 g/m*3 9.21 C 0 km/h
2063 18-10-2019 22:00:00 9.23333 C 8.49 g/m*3 9.23 C 0 km/h
2064 18-10-2019 23:00:00 9.14167 C 8.45 g/m*3 9.14 C 0 km/h
2065 19-10-2019 00:00:00 9.14167 C 8.47 g/m*3 9.14 C 0.66667 km/h
2066 19-10-2019 01:00:00 9.64167 C 8.68 g/m*3 9.64 C 0.4 km/h
2067 19-10-2019 02:00:00 9.65833 C 8.67 g/m*3 9.66 C 0 km/h
2068 19-10-2019 03:00:00 9.875 C 8.76 g/m*3 9.88 C 0 km/h
2069 19-10-2019 04:00:00 10.10833 C 8.89 g/m*3 10.11 C 0.53333 km/h
2070 19-10-2019 05:00:00 10.68333 C 9.21 g/m*3 10.68 C 0.93333 km/h
2071 19-10-2019 06:00:00 10.70833 C 9.19 g/m*3 10.71 C 0 km/h
2072 19-10-2019 07:00:00 10.64167 C 9.23 g/m*3 10.64 C 0 km/h
2073 19-10-2019 08:00:00 11.05 C 9.54 g/m*3 11.05 C 0.26667 km/h
2074 19-10-2019 09:00:00 11.875 C 9.97 g/m*3 11.88 C 0.4 km/h
2075 19-10-2019 10:00:00 13.025 C 10.3 g/m*3 13.03 C 1.2 km/h
Sensor: Nr:Datum:Temp:Abs-Feuchte:Windchill:Wind:
Aussen-T/F 2076 19-10-2019 11:00:00 13.825 C 10.9 g/m*3 13.83 C 3.35 km/h
2077 19-10-2019 12:00:00 15.40833 C 11.24 g/m*3 15.41 C 3.34167 km/h
2078 19-10-2019 13:00:00 16.2 C 11.32 g/m*3 16.2 C 4.95833 km/h
2079 19-10-2019 14:00:00 16.9 C 11.41 g/m*3 16.9 C 7.5 km/h
2080 19-10-2019 15:00:00 17.24167 C 11.33 g/m*3 17.24 C 6.30833 km/h
2081 19-10-2019 16:00:00 17.15 C 11.4 g/m*3 17.15 C 1.475 km/h
2082 19-10-2019 17:00:00 16.84167 C 11.6 g/m*3 16.84 C 2.00833 km/h
2083 19-10-2019 18:00:00 15.16364 C 11.61 g/m*3 15.16 C 0.87273 km/h
2084 19-10-2019 19:00:00 14.03333 C 11.32 g/m*3 14.03 C 0 km/h
2085 19-10-2019 20:00:00 13.625 C 11.19 g/m*3 13.63 C 0 km/h
2086 19-10-2019 21:00:00 13.43333 C 11.14 g/m*3 13.43 C 0.53333 km/h
2087 19-10-2019 22:00:00 13.21667 C 11.03 g/m*3 13.22 C 0 km/h
2088 19-10-2019 23:00:00 13.00833 C 10.89 g/m*3 13.01 C 0 km/h
2089 20-10-2019 00:00:00 13 C 10.96 g/m*3 13 C 0 km/h
2090 20-10-2019 01:00:00 13.13333 C 11.09 g/m*3 13.13 C 0 km/h
2091 20-10-2019 02:00:00 13.11667 C 11.08 g/m*3 13.12 C 0 km/h
2092 20-10-2019 03:00:00 13.1 C 11.07 g/m*3 13.1 C 0 km/h
2093 20-10-2019 04:00:00 13.16667 C 11.11 g/m*3 13.17 C 0 km/h
2094 20-10-2019 05:00:00 12.96667 C 10.98 g/m*3 12.97 C 0.26667 km/h
2095 20-10-2019 06:00:00 12.74167 C 10.83 g/m*3 12.74 C 0 km/h
2096 20-10-2019 07:00:00 12.65 C 10.76 g/m*3 12.65 C 0 km/h
2097 20-10-2019 08:00:00 12.70833 C 10.8 g/m*3 12.71 C 0 km/h
2098 20-10-2019 09:00:00 12.84167 C 10.96 g/m*3 12.84 C 0.13333 km/h
2099 20-10-2019 10:00:00 13.04167 C 11.1 g/m*3 13.04 C 0.13333 km/h
2100 20-10-2019 11:00:00 13.25833 C 11.26 g/m*3 13.26 C 0.53333 km/h
Sensor: Nr:Datum:Temp:Abs-Feuchte:Windchill:Wind:
Aussen-T/F 2101 20-10-2019 12:00:00 13.69167 C 11.6 g/m*3 13.69 C 0 km/h
2102 20-10-2019 13:00:00 13.96667 C 11.8 g/m*3 13.97 C 0.13333 km/h
2103 20-10-2019 14:00:00 14.275 C 12.02 g/m*3 14.28 C 0.53333 km/h
2104 20-10-2019 15:00:00 14.525 C 12.21 g/m*3 14.53 C 0 km/h
2105 20-10-2019 16:00:00 14.83333 C 12.44 g/m*3 14.83 C 0.26667 km/h
2106 20-10-2019 17:00:00 14.85 C 12.45 g/m*3 14.85 C 0 km/h
2107 20-10-2019 18:00:00 14.45833 C 12.16 g/m*3 14.46 C 0 km/h
2108 20-10-2019 19:00:00 14.20833 C 11.97 g/m*3 14.21 C 0 km/h
2109 20-10-2019 20:00:00 14.03333 C 11.85 g/m*3 14.03 C 0 km/h
2110 20-10-2019 21:00:00 14.05833 C 11.86 g/m*3 14.06 C 0.26667 km/h
2111 20-10-2019 22:00:00 13.90909 C 11.76 g/m*3 13.91 C 0 km/h
2112 20-10-2019 23:00:00 13.925 C 11.77 g/m*3 13.93 C 0.26667 km/h
2113 21-10-2019 00:00:00 14.24167 C 12 g/m*3 14.24 C 4.95833 km/h
2114 21-10-2019 01:00:00 14.14167 C 11.92 g/m*3 14.14 C 0 km/h
2115 21-10-2019 02:00:00 13.74167 C 11.63 g/m*3 13.74 C 0 km/h
2116 21-10-2019 03:00:00 13.66667 C 11.58 g/m*3 13.67 C 0 km/h
2117 21-10-2019 04:00:00 13.11667 C 11.19 g/m*3 13.12 C 0 km/h
2118 21-10-2019 05:00:00 13.21667 C 11.26 g/m*3 13.22 C 0.13333 km/h
2119 21-10-2019 06:00:00 13.60833 C 11.54 g/m*3 13.61 C 0 km/h
2120 21-10-2019 07:00:00 13.31667 C 11.33 g/m*3 13.32 C 0 km/h
2121 21-10-2019 08:00:00 12.70833 C 10.91 g/m*3 12.71 C 0 km/h
2122 21-10-2019 09:00:00 12.9 C 11.05 g/m*3 12.9 C 0 km/h
2123 21-10-2019 10:00:00 13.49167 C 11.49 g/m*3 13.49 C 0.4 km/h
2124 21-10-2019 11:00:00 14.00833 C 11.83 g/m*3 14.01 C 2 km/h
2125 21-10-2019 12:00:00 14.60833 C 12.29 g/m*3 14.61 C 3.35 km/h
Sensor: Nr:Datum:Temp:Abs-Feuchte:Windchill:Wind:
Aussen-T/F 2126 21-10-2019 13:00:00 15.91667 C 12.04 g/m*3 15.92 C 11.025 km/h
2127 21-10-2019 14:00:00 16.70833 C 11.69 g/m*3 16.71 C 6.31667 km/h
2128 21-10-2019 15:00:00 16.375 C 11.27 g/m*3 16.38 C 6.96667 km/h
2129 21-10-2019 16:00:00 15.86667 C 10.94 g/m*3 15.87 C 4.95 km/h
2130 21-10-2019 17:00:00 14.73333 C 10.79 g/m*3 14.73 C 1.60833 km/h
2131 21-10-2019 18:00:00 13.72727 C 10.33 g/m*3 13.73 C 0.87273 km/h
2132 21-10-2019 19:00:00 12.49167 C 9.92 g/m*3 12.49 C 0 km/h
2133 21-10-2019 20:00:00 11.75 C 9.69 g/m*3 11.75 C 0 km/h
2134 21-10-2019 21:00:00 11.38333 C 9.6 g/m*3 11.38 C 0 km/h
2135 21-10-2019 22:00:00 11.325 C 9.6 g/m*3 11.33 C 0 km/h
2136 21-10-2019 23:00:00 11.21667 C 9.52 g/m*3 11.22 C 0 km/h
2137 22-10-2019 00:00:00 10.825 C 9.36 g/m*3 10.83 C 0 km/h
2138 22-10-2019 01:00:00 11.01667 C 9.52 g/m*3 11.02 C 0.26667 km/h
2139 22-10-2019 02:00:00 10.94167 C 9.47 g/m*3 10.94 C 0 km/h
2140 22-10-2019 03:00:00 10.875 C 9.42 g/m*3 10.88 C 0 km/h
2141 22-10-2019 04:00:00 10.66667 C 9.29 g/m*3 10.67 C 0 km/h
2142 22-10-2019 05:00:00 10 C 8.92 g/m*3 10 C 0 km/h
2143 22-10-2019 06:00:00 10.1 C 9.08 g/m*3 10.1 C 0 km/h
2144 22-10-2019 07:00:00 9.975 C 8.95 g/m*3 9.98 C 0 km/h
2145 22-10-2019 08:00:00 9.875 C 8.95 g/m*3 9.88 C 0 km/h
2146 22-10-2019 09:00:00 10.44167 C 9.25 g/m*3 10.44 C 1.2 km/h
2147 22-10-2019 10:00:00 11.36667 C 9.62 g/m*3 11.37 C 3.6 km/h
2148 22-10-2019 11:00:00 12.78333 C 9.88 g/m*3 12.78 C 4.675 km/h
2149 22-10-2019 12:00:00 13.61667 C 10 g/m*3 13.62 C 1.06667 km/h
2150 22-10-2019 13:00:00 14.35714 C 10.15 g/m*3 14.36 C 1.82857 km/h
Sensor: Nr:Datum:Temp:Abs-Feuchte:Windchill:Wind:
Aussen-T/F 2151 22-10-2019 14:00:00 15.08333 C 9.99 g/m*3 15.08 C 3.2 km/h
2152 22-10-2019 15:00:00 14.68333 C 10.31 g/m*3 14.68 C 0.26667 km/h
2153 22-10-2019 16:00:00 13.78333 C 10.36 g/m*3 13.78 C 0 km/h
2154 22-10-2019 17:00:00 13.31667 C 10.17 g/m*3 13.32 C 0.13333 km/h
2155 22-10-2019 18:00:00 12.55 C 9.64 g/m*3 12.55 C 1.33333 km/h
2156 22-10-2019 19:00:00 11.74167 C 9.48 g/m*3 11.74 C 0 km/h
2157 22-10-2019 20:00:00 10.70833 C 9.16 g/m*3 10.71 C 0 km/h
2158 22-10-2019 21:00:00 10.125 C 8.96 g/m*3 10.13 C 0 km/h
2159 22-10-2019 22:00:00 10.20833 C 9.13 g/m*3 10.21 C 0 km/h
2160 22-10-2019 23:00:00 9.9 C 8.94 g/m*3 9.9 C 0 km/h
2161 23-10-2019 00:00:00 8.98333 C 8.43 g/m*3 8.98 C 0 km/h
2162 23-10-2019 01:00:00 8.61667 C 8.26 g/m*3 8.62 C 0 km/h
2163 23-10-2019 02:00:00 8.20833 C 8.04 g/m*3 8.21 C 0 km/h
2164 23-10-2019 03:00:00 8.00833 C 8 g/m*3 8.01 C 0 km/h
2165 23-10-2019 04:00:00 7.83333 C 7.93 g/m*3 7.83 C 0 km/h
2166 23-10-2019 05:00:00 8.16667 C 8.11 g/m*3 8.17 C 0 km/h
2167 23-10-2019 06:00:00 8.13333 C 8.09 g/m*3 8.13 C 0 km/h
2168 23-10-2019 07:00:00 7.95 C 7.99 g/m*3 7.95 C 0 km/h
2169 23-10-2019 08:00:00 7.86667 C 7.97 g/m*3 7.87 C 0.13333 km/h
2170 23-10-2019 09:00:00 8.70833 C 8.47 g/m*3 8.71 C 1.06667 km/h
2171 23-10-2019 10:00:00 9.60833 C 8.98 g/m*3 9.61 C 0.13333 km/h
2172 23-10-2019 11:00:00 10.98333 C 9.8 g/m*3 10.98 C 3.20833 km/h
2173 23-10-2019 12:00:00 11.825 C 10.16 g/m*3 11.83 C 7.11667 km/h
2174 23-10-2019 13:00:00 12.95833 C 10.43 g/m*3 12.96 C 5.50833 km/h
2175 23-10-2019 14:00:00 13.84167 C 10.72 g/m*3 13.84 C 6.975 km/h
Sensor: Nr:Datum:Temp:Abs-Feuchte:Windchill:Wind:
Aussen-T/F 2176 23-10-2019 15:00:00 14.3 C 10.94 g/m*3 14.3 C 3.34167 km/h
2177 23-10-2019 16:00:00 14.79167 C 11.3 g/m*3 14.79 C 0.93333 km/h
2178 23-10-2019 17:00:00 14.94167 C 11.51 g/m*3 14.94 C 0.13333 km/h
2179 23-10-2019 18:00:00 14.175 C 11.18 g/m*3 14.18 C 0 km/h
2180 23-10-2019 19:00:00 13.39167 C 10.86 g/m*3 13.39 C 0.13333 km/h
2181 23-10-2019 20:00:00 13.24167 C 10.86 g/m*3 13.24 C 0 km/h
2182 23-10-2019 21:00:00 13.19167 C 10.9 g/m*3 13.19 C 0 km/h
2183 23-10-2019 22:00:00 12.94167 C 10.73 g/m*3 12.94 C 0 km/h
2184 23-10-2019 23:00:00 12.76667 C 10.62 g/m*3 12.77 C 0 km/h
2185 24-10-2019 00:00:00 12.39167 C 10.44 g/m*3 12.39 C 0 km/h
2186 24-10-2019 01:00:00 12.15833 C 10.33 g/m*3 12.16 C 0.66667 km/h
2187 24-10-2019 02:00:00 12.25833 C 10.43 g/m*3 12.26 C 0 km/h
2188 24-10-2019 03:00:00 11.81667 C 10.11 g/m*3 11.82 C 0 km/h
2189 24-10-2019 04:00:00 11.59167 C 10.06 g/m*3 11.59 C 0 km/h
2190 24-10-2019 05:00:00 11.85 C 10.24 g/m*3 11.85 C 0.13333 km/h
2191 24-10-2019 06:00:00 11.89167 C 10.28 g/m*3 11.89 C 0.53333 km/h
2192 24-10-2019 07:00:00 12.33333 C 10.56 g/m*3 12.33 C 0.66667 km/h
2193 24-10-2019 08:00:00 12.49167 C 10.66 g/m*3 12.49 C 0.66667 km/h
2194 24-10-2019 09:00:00 13.01667 C 11.01 g/m*3 13.02 C 0 km/h
2195 24-10-2019 10:00:00 13.58333 C 11.38 g/m*3 13.58 C 0.93333 km/h
2196 24-10-2019 11:00:00 14.51667 C 11.65 g/m*3 14.52 C 0.53333 km/h
2197 24-10-2019 12:00:00 15.175 C 12 g/m*3 15.18 C 0 km/h
2198 24-10-2019 13:00:00 16.45833 C 12.57 g/m*3 16.46 C 1.74167 km/h
2199 24-10-2019 14:00:00 17.46667 C 12.93 g/m*3 17.47 C 0.66667 km/h
2200 24-10-2019 15:00:00 18.525 C 13.34 g/m*3 18.52 C 1.2 km/h
Sensor: Nr:Datum:Temp:Abs-Feuchte:Windchill:Wind:
Aussen-T/F 2201 24-10-2019 16:00:00 18.44167 C 12.48 g/m*3 18.44 C 4.01667 km/h
2202 24-10-2019 17:00:00 17.525 C 12.19 g/m*3 17.52 C 2.28333 km/h
2203 24-10-2019 18:00:00 15.70833 C 11.42 g/m*3 15.71 C 1.86667 km/h
2204 24-10-2019 19:00:00 14.69167 C 11.11 g/m*3 14.69 C 1.06667 km/h
2205 24-10-2019 20:00:00 13.85833 C 10.81 g/m*3 13.86 C 0.66667 km/h
2206 24-10-2019 21:00:00 13.54167 C 10.67 g/m*3 13.54 C 0.26667 km/h
2207 24-10-2019 22:00:00 13.075 C 10.53 g/m*3 13.08 C 0 km/h
2208 24-10-2019 23:00:00 13.18333 C 10.74 g/m*3 13.18 C 0 km/h
2209 25-10-2019 00:00:00 12.40833 C 10.23 g/m*3 12.41 C 0 km/h
2210 25-10-2019 01:00:00 11.95 C 10.09 g/m*3 11.95 C 0 km/h
2211 25-10-2019 02:00:00 11.49167 C 9.82 g/m*3 11.49 C 1.075 km/h
2212 25-10-2019 03:00:00 12.34167 C 10.22 g/m*3 12.34 C 1.875 km/h
2213 25-10-2019 04:00:00 12.88333 C 10.32 g/m*3 12.88 C 1.73333 km/h
2214 25-10-2019 05:00:00 12.65833 C 10.09 g/m*3 12.66 C 2.95 km/h
2215 25-10-2019 06:00:00 12.63333 C 10.2 g/m*3 12.63 C 1.86667 km/h
2216 25-10-2019 07:00:00 13.175 C 10.39 g/m*3 13.18 C 2.40833 km/h
2217 25-10-2019 08:00:00 12.68333 C 10.19 g/m*3 12.68 C 1.46667 km/h
2218 25-10-2019 09:00:00 12.93333 C 10.5 g/m*3 12.93 C 1.86667 km/h
2219 25-10-2019 10:00:00 13.775 C 10.6 g/m*3 13.78 C 6.30833 km/h
2220 25-10-2019 11:00:00 14.90833 C 10.52 g/m*3 14.91 C 9.40833 km/h
2221 25-10-2019 12:00:00 15.275 C 10.34 g/m*3 15.28 C 9.95833 km/h
2222 25-10-2019 13:00:00 16.19167 C 10.17 g/m*3 16.19 C 9.275 km/h
2223 25-10-2019 14:00:00 16.29167 C 10.24 g/m*3 16.29 C 7.525 km/h
2224 25-10-2019 15:00:00 16.43333 C 9.86 g/m*3 16.43 C 9.68333 km/h
2225 25-10-2019 16:00:00 16.05833 C 10 g/m*3 16.06 C 6.575 km/h
Sensor: Nr:Datum:Temp:Abs-Feuchte:Windchill:Wind:
Aussen-T/F 2226 25-10-2019 17:00:00 14.56667 C 10.21 g/m*3 14.57 C 0.66667 km/h
2227 25-10-2019 18:00:00 13.01667 C 9.81 g/m*3 13.02 C 0.8 km/h
2228 25-10-2019 19:00:00 11.99167 C 9.58 g/m*3 11.99 C 0.13333 km/h
2229 25-10-2019 20:00:00 11.45 C 9.4 g/m*3 11.45 C 0 km/h
2230 25-10-2019 21:00:00 11.025 C 9.26 g/m*3 11.03 C 0 km/h
2231 25-10-2019 22:00:00 11.3 C 9.56 g/m*3 11.3 C 0.53333 km/h
2232 25-10-2019 23:00:00 12.46667 C 10.12 g/m*3 12.47 C 1.6 km/h
2233 26-10-2019 00:00:00 13.48333 C 10.42 g/m*3 13.48 C 1.46667 km/h
2234 26-10-2019 01:00:00 13.675 C 10.41 g/m*3 13.68 C 1.2 km/h
2235 26-10-2019 02:00:00 13.53333 C 10.28 g/m*3 13.53 C 1.06667 km/h
2236 26-10-2019 03:00:00 12.26667 C 9.88 g/m*3 12.27 C 0.53333 km/h
2237 26-10-2019 04:00:00 11.59167 C 9.73 g/m*3 11.59 C 1.74167 km/h
2238 26-10-2019 05:00:00 12.29167 C 10.1 g/m*3 12.29 C 2.28333 km/h
2239 26-10-2019 06:00:00 11.86667 C 9.86 g/m*3 11.87 C 0.13333 km/h
2240 26-10-2019 07:00:00 11.1 C 9.47 g/m*3 11.1 C 0 km/h
2241 26-10-2019 08:00:00 10.15833 C 8.99 g/m*3 10.16 C 0 km/h
2242 26-10-2019 09:00:00 10.325 C 9.21 g/m*3 10.33 C 0 km/h
2243 26-10-2019 10:00:00 11.26667 C 9.84 g/m*3 11.27 C 0 km/h
2244 26-10-2019 11:00:00 12.475 C 10.63 g/m*3 12.48 C 0 km/h
2245 26-10-2019 12:00:00 13.81667 C 11.34 g/m*3 13.82 C 1.2 km/h
2246 26-10-2019 13:00:00 15.18333 C 11.66 g/m*3 15.18 C 0.93333 km/h
2247 26-10-2019 14:00:00 16.53333 C 11.97 g/m*3 16.53 C 2.26667 km/h
2248 26-10-2019 15:00:00 16.78333 C 12.09 g/m*3 16.78 C 0.66667 km/h
2249 26-10-2019 16:00:00 16.53333 C 12.06 g/m*3 16.53 C 1.06667 km/h
2250 26-10-2019 17:00:00 15.31667 C 11.43 g/m*3 15.32 C 1.6 km/h
Sensor: Nr:Datum:Temp:Abs-Feuchte:Windchill:Wind:
Aussen-T/F 2251 26-10-2019 18:00:00 13.925 C 10.7 g/m*3 13.93 C 0.53333 km/h
2252 26-10-2019 19:00:00 12.975 C 10.3 g/m*3 12.98 C 0.26667 km/h
2253 26-10-2019 20:00:00 12.86667 C 10.42 g/m*3 12.87 C 0.4 km/h
2254 26-10-2019 21:00:00 12.99167 C 10.44 g/m*3 12.99 C 0 km/h
2255 26-10-2019 22:00:00 12.64167 C 10.32 g/m*3 12.64 C 0 km/h
2256 26-10-2019 23:00:00 12.625 C 10.4 g/m*3 12.63 C 0.4 km/h
2257 27-10-2019 00:00:00 13.45833 C 10.54 g/m*3 13.46 C 3.35 km/h
2258 27-10-2019 01:00:00 13.74167 C 10.39 g/m*3 13.74 C 0.8 km/h
2259 27-10-2019 02:00:00 12.98333 C 10.14 g/m*3 12.98 C 2 km/h
2260 27-10-2019 04:00:00 12.17391 C 9.93 g/m*3 12.17 C 1.04348 km/h
2261 27-10-2019 05:00:00 12.87692 C 10.27 g/m*3 12.88 C 0.98462 km/h
2262 27-10-2019 06:00:00 14.125 C 10.45 g/m*3 14.13 C 7.10833 km/h
2263 27-10-2019 07:00:00 14.16667 C 10.64 g/m*3 14.17 C 9.66667 km/h
2264 27-10-2019 08:00:00 11.975 C 9.77 g/m*3 11.98 C 10.89167 km/h
2265 27-10-2019 09:00:00 10.425 C 8.96 g/m*3 9.15 C 9.93333 km/h
2266 27-10-2019 10:00:00 9.44167 C 8.49 g/m*3 9.44 C 1.6 km/h
2267 27-10-2019 11:00:00 9.75833 C 8.74 g/m*3 9.76 C 0.93333 km/h
2268 27-10-2019 12:00:00 10 C 8.87 g/m*3 10 C 0.4 km/h
2269 27-10-2019 13:00:00 9.9 C 8.84 g/m*3 9.9 C 0 km/h
2270 27-10-2019 14:00:00 9.53333 C 8.6 g/m*3 9.53 C 0.4 km/h
2271 27-10-2019 15:00:00 9.43333 C 8.61 g/m*3 9.43 C 0 km/h
2272 27-10-2019 16:00:00 9.16667 C 8.47 g/m*3 9.17 C 0 km/h
2273 27-10-2019 17:00:00 8.55 C 8.17 g/m*3 8.55 C 0 km/h
2274 27-10-2019 18:00:00 8.35 C 8.12 g/m*3 8.35 C 0 km/h
2275 27-10-2019 19:00:00 8.275 C 8.08 g/m*3 8.28 C 0 km/h
Sensor: Nr:Datum:Temp:Abs-Feuchte:Windchill:Wind:
Aussen-T/F 2276 27-10-2019 20:00:00 7.50833 C 7.69 g/m*3 7.51 C 0 km/h
2277 27-10-2019 21:00:00 6.91667 C 7.4 g/m*3 6.92 C 0.4 km/h
2278 27-10-2019 22:00:00 5.925 C 6.93 g/m*3 5.93 C 0 km/h
2279 27-10-2019 23:00:00 5.125 C 6.6 g/m*3 5.13 C 0.26667 km/h
2280 28-10-2019 00:00:00 5.325 C 6.73 g/m*3 5.33 C 0.13333 km/h
2281 28-10-2019 01:00:00 5.8 C 6.95 g/m*3 5.8 C 0.13333 km/h
2282 28-10-2019 02:00:00 5.59167 C 6.85 g/m*3 5.59 C 0 km/h
2283 28-10-2019 03:00:00 5.44167 C 6.79 g/m*3 5.44 C 0.26667 km/h
2284 28-10-2019 04:00:00 5.30833 C 6.73 g/m*3 5.31 C 0 km/h
2285 28-10-2019 05:00:00 5.2 C 6.68 g/m*3 5.2 C 0 km/h
2286 28-10-2019 06:00:00 5.13333 C 6.65 g/m*3 5.13 C 0 km/h
2287 28-10-2019 07:00:00 5.26667 C 6.71 g/m*3 5.27 C 0.8 km/h
2288 28-10-2019 08:00:00 5.51667 C 6.84 g/m*3 5.52 C 2 km/h
2289 28-10-2019 09:00:00 5.8 C 7.02 g/m*3 5.8 C 1.2 km/h
2290 28-10-2019 10:00:00 6.18333 C 7.2 g/m*3 6.18 C 2.26667 km/h
2291 28-10-2019 11:00:00 6.38333 C 7.29 g/m*3 6.38 C 1.6 km/h
2292 28-10-2019 12:00:00 6.5 C 7.33 g/m*3 5.48 C 5.88333 km/h
2293 28-10-2019 13:00:00 6.725 C 7.38 g/m*3 6.73 C 1.86667 km/h
2294 28-10-2019 14:00:00 7.39167 C 7.68 g/m*3 7.39 C 0.13333 km/h
2295 28-10-2019 15:00:00 8.01667 C 7.88 g/m*3 8.02 C 0.13333 km/h
2296 28-10-2019 16:00:00 7.79167 C 7.74 g/m*3 7.79 C 0 km/h
2297 28-10-2019 17:00:00 7 C 7.39 g/m*3 7 C 0 km/h
2298 28-10-2019 18:00:00 7.175 C 7.52 g/m*3 7.18 C 0 km/h
2299 28-10-2019 19:00:00 7.15833 C 7.52 g/m*3 7.16 C 0 km/h
2300 28-10-2019 20:00:00 6.99167 C 7.47 g/m*3 6.99 C 0 km/h
Sensor: Nr:Datum:Temp:Abs-Feuchte:Windchill:Wind:
Aussen-T/F 2301 28-10-2019 21:00:00 6.94167 C 7.46 g/m*3 6.94 C 0 km/h
2302 28-10-2019 22:00:00 6.78333 C 7.41 g/m*3 6.78 C 0.53333 km/h
2303 28-10-2019 23:00:00 6.7 C 7.33 g/m*3 6.7 C 1.73333 km/h
2304 29-10-2019 00:00:00 6.68333 C 7.29 g/m*3 6.68 C 2.4 km/h
2305 29-10-2019 01:00:00 6.41667 C 7.16 g/m*3 6.42 C 3.73333 km/h
2306 29-10-2019 02:00:00 6.3 C 7.11 g/m*3 6.3 C 0.26667 km/h
2307 29-10-2019 03:00:00 6.275 C 7.09 g/m*3 6.28 C 1.2 km/h
2308 29-10-2019 04:00:00 6.2 C 7.06 g/m*3 6.2 C 0.93333 km/h
2309 29-10-2019 05:00:00 6.2 C 7.06 g/m*3 6.2 C 1.46667 km/h
2310 29-10-2019 06:00:00 6.10833 C 7 g/m*3 6.11 C 1.06667 km/h
2311 29-10-2019 07:00:00 5.975 C 6.91 g/m*3 5.98 C 0.8 km/h
2312 29-10-2019 08:00:00 6.225 C 7.04 g/m*3 6.23 C 0.66667 km/h
2313 29-10-2019 09:00:00 6.69167 C 7.2 g/m*3 6.69 C 0 km/h
2314 29-10-2019 10:00:00 7.475 C 7.41 g/m*3 7.48 C 0.53333 km/h
2315 29-10-2019 11:00:00 8.23333 C 7.6 g/m*3 8.23 C 0 km/h
2316 29-10-2019 12:00:00 8.925 C 7.75 g/m*3 8.93 C 0.66667 km/h
2317 29-10-2019 13:00:00 9.74167 C 7.8 g/m*3 9.74 C 3.88333 km/h
2318 29-10-2019 14:00:00 10.59167 C 7.45 g/m*3 9.92 C 6.96667 km/h
2319 29-10-2019 15:00:00 9.575 C 7.35 g/m*3 9.57 C 1.74167 km/h
2320 29-10-2019 16:00:00 8.275 C 7.43 g/m*3 8.28 C 0.4 km/h
2321 29-10-2019 17:00:00 6.94167 C 6.9 g/m*3 6.94 C 1.86667 km/h
2322 29-10-2019 18:00:00 5.96667 C 6.58 g/m*3 5.97 C 0.66667 km/h
2323 29-10-2019 19:00:00 4.96667 C 6.27 g/m*3 4.97 C 0 km/h
2324 29-10-2019 20:00:00 4.425 C 6.15 g/m*3 4.43 C 0 km/h
2325 29-10-2019 21:00:00 3.63333 C 5.84 g/m*3 3.63 C 0 km/h
Sensor: Nr:Datum:Temp:Abs-Feuchte:Windchill:Wind:
Aussen-T/F 2326 29-10-2019 22:00:00 2.99167 C 5.65 g/m*3 2.99 C 0 km/h
2327 29-10-2019 23:00:00 2.775 C 5.61 g/m*3 2.78 C 0 km/h
2328 30-10-2019 00:00:00 2.20833 C 5.4 g/m*3 2.21 C 0 km/h
2329 30-10-2019 01:00:00 1.98333 C 5.33 g/m*3 1.98 C 0 km/h
2330 30-10-2019 02:00:00 1.98333 C 5.33 g/m*3 1.98 C 0 km/h
2331 30-10-2019 03:00:00 1.51667 C 5.16 g/m*3 1.52 C 0 km/h
2332 30-10-2019 04:00:00 1.14167 C 5.05 g/m*3 1.14 C 0 km/h
2333 30-10-2019 05:00:00 1.35 C 5.14 g/m*3 1.35 C 0.26667 km/h
2334 30-10-2019 06:00:00 1.4 C 5.17 g/m*3 1.4 C 0 km/h
2335 30-10-2019 07:00:00 1.45833 C 5.19 g/m*3 1.46 C 0.26667 km/h
2336 30-10-2019 08:00:00 1.85833 C 5.34 g/m*3 1.86 C 0.26667 km/h
2337 30-10-2019 09:00:00 2.4 C 5.54 g/m*3 2.4 C 0.13333 km/h
2338 30-10-2019 10:00:00 3.69167 C 6.09 g/m*3 3.69 C 0 km/h
2339 30-10-2019 11:00:00 4.94167 C 6.63 g/m*3 4.94 C 0.66667 km/h
2340 30-10-2019 12:00:00 5.71667 C 6.9 g/m*3 5.72 C 0.26667 km/h
2341 30-10-2019 13:00:00 6.63333 C 6.88 g/m*3 6.63 C 2.66667 km/h
2342 30-10-2019 14:00:00 7.58333 C 6.8 g/m*3 7.58 C 2.675 km/h
2343 30-10-2019 15:00:00 7.75 C 6.86 g/m*3 7.75 C 0.4 km/h
2344 30-10-2019 16:00:00 7.01667 C 6.83 g/m*3 7.02 C 0 km/h
2345 30-10-2019 17:00:00 5.76667 C 6.37 g/m*3 5.77 C 0 km/h
2346 30-10-2019 18:00:00 4.46667 C 5.94 g/m*3 4.47 C 0.26667 km/h
2347 30-10-2019 19:00:00 3.8 C 5.77 g/m*3 3.8 C 0 km/h
2348 30-10-2019 20:00:00 3.23333 C 5.64 g/m*3 3.23 C 0.66667 km/h
2349 30-10-2019 21:00:00 2.70833 C 5.5 g/m*3 2.71 C 0.53333 km/h
2350 30-10-2019 22:00:00 2.25 C 5.35 g/m*3 2.25 C 0.13333 km/h
Sensor: Nr:Datum:Temp:Abs-Feuchte:Windchill:Wind:
Aussen-T/F 2351 30-10-2019 23:00:00 1.80833 C 5.21 g/m*3 1.81 C 0 km/h
2352 31-10-2019 00:00:00 1.025 C 4.94 g/m*3 1.02 C 0 km/h
2353 31-10-2019 01:00:00 0.89167 C 4.94 g/m*3 0.89 C 0 km/h
2354 31-10-2019 02:00:00 0.53333 C 4.83 g/m*3 0.53 C 0 km/h
2355 31-10-2019 03:00:00 0.28333 C 4.74 g/m*3 0.28 C 0 km/h
2356 31-10-2019 04:00:00 0.06667 C 4.67 g/m*3 0.07 C 0 km/h
2357 31-10-2019 05:00:00 -0.325 C 4.55 g/m*3 -0.33 C 0 km/h
2358 31-10-2019 06:00:00 -0.50833 C 4.49 g/m*3 -0.51 C 0 km/h
2359 31-10-2019 07:00:00 -0.75 C 4.43 g/m*3 -0.75 C 0 km/h
2360 31-10-2019 08:00:00 -0.61667 C 4.48 g/m*3 -0.62 C 0 km/h
2361 31-10-2019 09:00:00 0.05 C 4.72 g/m*3 0.05 C 0 km/h
2362 31-10-2019 10:00:00 1.13333 C 5.09 g/m*3 1.13 C 0.93333 km/h
2363 31-10-2019 11:00:00 2.85833 C 5.76 g/m*3 2.86 C 0.53333 km/h
2364 31-10-2019 12:00:00 4.16667 C 6.28 g/m*3 4.17 C 1.2 km/h
2365 31-10-2019 13:00:00 5.60833 C 6.68 g/m*3 5.61 C 4.55833 km/h
2366 31-10-2019 14:00:00 7.29167 C 6.65 g/m*3 7.29 C 3.875 km/h
2367 31-10-2019 15:00:00 7.44167 C 6.65 g/m*3 7.44 C 2.54167 km/h
2368 31-10-2019 16:00:00 6.125 C 6.4 g/m*3 6.13 C 1.73333 km/h
2369 31-10-2019 17:00:00 4.63333 C 5.86 g/m*3 4.63 C 0.8 km/h
2370 31-10-2019 18:00:00 3.70833 C 5.55 g/m*3 3.71 C 0 km/h
2371 31-10-2019 19:00:00 3.175 C 5.44 g/m*3 3.18 C 0 km/h
2372 31-10-2019 20:00:00 2.325 C 5.23 g/m*3 2.33 C 0 km/h
2373 31-10-2019 21:00:00 1.71667 C 5.11 g/m*3 1.72 C 0 km/h
2374 31-10-2019 22:00:00 1.48333 C 5.06 g/m*3 1.48 C 0 km/h
2375 31-10-2019 23:00:00 1.30833 C 5.04 g/m*3 1.31 C 0 km/h
Sensor: Nr:Datum:Temp:Abs-Feuchte:Windchill:Wind:
Aussen-T/F 2376 01-11-2019 00:00:00 0.88333 C 4.89 g/m*3 0.88 C 0 km/h
2377 01-11-2019 01:00:00 0.6 C 4.81 g/m*3 0.6 C 0 km/h
2378 01-11-2019 02:00:00 0.55833 C 4.83 g/m*3 0.56 C 0 km/h
2379 01-11-2019 03:00:00 0.44167 C 4.8 g/m*3 0.44 C 0 km/h
2380 01-11-2019 04:00:00 1.03333 C 5.02 g/m*3 1.03 C 0 km/h
2381 01-11-2019 05:00:00 2.16667 C 5.45 g/m*3 2.17 C 0 km/h
2382 01-11-2019 06:00:00 2.85833 C 5.71 g/m*3 2.86 C 0 km/h
2383 01-11-2019 07:00:00 3.55 C 5.98 g/m*3 3.55 C 0 km/h
2384 01-11-2019 08:00:00 4.35833 C 6.32 g/m*3 4.36 C 0 km/h
2385 01-11-2019 09:00:00 5.40833 C 6.77 g/m*3 5.41 C 0 km/h
2386 01-11-2019 10:00:00 6.38333 C 7.22 g/m*3 6.38 C 0.8 km/h
2387 01-11-2019 11:00:00 7.29167 C 7.55 g/m*3 7.29 C 1.86667 km/h
2388 01-11-2019 12:00:00 8.09167 C 7.76 g/m*3 8.09 C 3.35 km/h
2389 01-11-2019 13:00:00 8.53333 C 7.96 g/m*3 8.53 C 1.06667 km/h
2390 01-11-2019 14:00:00 8.73333 C 8.2 g/m*3 8.73 C 1.33333 km/h
2391 01-11-2019 15:00:00 8.7 C 8.27 g/m*3 8.7 C 1.46667 km/h
2392 01-11-2019 16:00:00 8.8 C 8.36 g/m*3 8.8 C 0 km/h
2393 01-11-2019 17:00:00 8.85833 C 8.39 g/m*3 8.86 C 1.2 km/h
2394 01-11-2019 18:00:00 8.86667 C 8.41 g/m*3 8.87 C 0.4 km/h
2395 01-11-2019 19:00:00 8.93333 C 8.52 g/m*3 8.93 C 0 km/h
2396 01-11-2019 20:00:00 9.225 C 8.68 g/m*3 9.23 C 0 km/h
2397 01-11-2019 21:00:00 9.64167 C 8.92 g/m*3 9.64 C 0 km/h
2398 01-11-2019 22:00:00 10.15 C 9.3 g/m*3 10.15 C 0.26667 km/h
2399 01-11-2019 23:00:00 10.525 C 9.52 g/m*3 10.53 C 0 km/h
2400 02-11-2019 00:00:00 11.18333 C 9.92 g/m*3 11.18 C 0 km/h
Sensor: Nr:Datum:Temp:Abs-Feuchte:Windchill:Wind:
Aussen-T/F 2401 02-11-2019 01:00:00 11.96667 C 10.42 g/m*3 11.97 C 0.93333 km/h
2402 02-11-2019 02:00:00 12.21667 C 10.59 g/m*3 12.22 C 1.33333 km/h
2403 02-11-2019 03:00:00 12.28333 C 10.63 g/m*3 12.28 C 2.13333 km/h
2404 02-11-2019 04:00:00 12.25 C 10.61 g/m*3 12.25 C 2 km/h
2405 02-11-2019 05:00:00 12.65833 C 10.88 g/m*3 12.66 C 1.46667 km/h
2406 02-11-2019 06:00:00 13.1 C 11.18 g/m*3 13.1 C 2.94167 km/h
2407 02-11-2019 07:00:00 13.48333 C 11.45 g/m*3 13.48 C 0.93333 km/h
2408 02-11-2019 08:00:00 13.84167 C 11.71 g/m*3 13.84 C 2.275 km/h
2409 02-11-2019 09:00:00 14.30833 C 12.03 g/m*3 14.31 C 12.21667 km/h
2410 02-11-2019 10:00:00 14.925 C 11.87 g/m*3 14.93 C 14.625 km/h
2411 02-11-2019 11:00:00 15.74167 C 11.57 g/m*3 15.74 C 16.5 km/h
2412 02-11-2019 12:00:00 16.15833 C 11.05 g/m*3 16.16 C 20.23333 km/h
2413 02-11-2019 13:00:00 16.04167 C 10.29 g/m*3 16.04 C 15.03333 km/h
2414 02-11-2019 14:00:00 15.8 C 10.01 g/m*3 15.8 C 10.35833 km/h
2415 02-11-2019 15:00:00 15.10833 C 9.97 g/m*3 15.11 C 5.35833 km/h
2416 02-11-2019 16:00:00 14.55833 C 9.75 g/m*3 14.56 C 8.06667 km/h
2417 02-11-2019 17:00:00 13.78333 C 9.71 g/m*3 13.78 C 11.28333 km/h
2418 02-11-2019 18:00:00 11.90833 C 9.55 g/m*3 11.91 C 2.66667 km/h
2419 02-11-2019 19:00:00 11.425 C 9.44 g/m*3 11.43 C 2.13333 km/h
2420 02-11-2019 20:00:00 11.30833 C 9.3 g/m*3 11.31 C 4.01667 km/h
2421 02-11-2019 21:00:00 11.15 C 8.96 g/m*3 11.15 C 4.55 km/h
2422 02-11-2019 22:00:00 10.98333 C 8.84 g/m*3 10.98 C 1.06667 km/h
2423 02-11-2019 23:00:00 10.56667 C 8.68 g/m*3 10.57 C 3.625 km/h
2424 03-11-2019 00:00:00 10.475 C 8.55 g/m*3 10.48 C 0.53333 km/h
2425 03-11-2019 01:00:00 10.41667 C 8.7 g/m*3 10.42 C 0.4 km/h
Sensor: Nr:Datum:Temp:Abs-Feuchte:Windchill:Wind:
Aussen-T/F 2426 03-11-2019 02:00:00 10.03333 C 8.62 g/m*3 10.03 C 0.26667 km/h
2427 03-11-2019 03:00:00 10 C 8.75 g/m*3 10 C 0.8 km/h
2428 03-11-2019 04:00:00 10.26667 C 9.02 g/m*3 10.27 C 0.66667 km/h
2429 03-11-2019 05:00:00 10.25 C 9.07 g/m*3 10.25 C 0.8 km/h
2430 03-11-2019 06:00:00 10.3 C 9.19 g/m*3 10.3 C 0 km/h
2431 03-11-2019 07:00:00 10.325 C 9.21 g/m*3 10.33 C 0 km/h
2432 03-11-2019 08:00:00 10.48333 C 9.37 g/m*3 10.48 C 0 km/h
2433 03-11-2019 09:00:00 11.3 C 9.89 g/m*3 11.3 C 0 km/h
2434 03-11-2019 10:00:00 12.26667 C 10.36 g/m*3 12.27 C 0.93333 km/h
2435 03-11-2019 11:00:00 13.53333 C 10.65 g/m*3 13.53 C 2.675 km/h
2436 03-11-2019 12:00:00 14.85 C 10.6 g/m*3 14.85 C 4.55 km/h
2437 03-11-2019 13:00:00 15.39167 C 10.7 g/m*3 15.39 C 6.30833 km/h
2438 03-11-2019 14:00:00 15.46667 C 10.78 g/m*3 15.47 C 5.08333 km/h
2439 03-11-2019 15:00:00 14.81667 C 10.57 g/m*3 14.82 C 6.83333 km/h
2440 03-11-2019 16:00:00 14.00833 C 10.41 g/m*3 14.01 C 2 km/h
2441 03-11-2019 17:00:00 13.00833 C 10.25 g/m*3 13.01 C 0.4 km/h
2442 03-11-2019 18:00:00 12.35833 C 10.22 g/m*3 12.36 C 0.13333 km/h
2443 03-11-2019 19:00:00 11.71667 C 9.95 g/m*3 11.72 C 0.53333 km/h
2444 03-11-2019 20:00:00 11.075 C 9.63 g/m*3 11.08 C 0.53333 km/h
2445 03-11-2019 21:00:00 10.75833 C 9.46 g/m*3 10.76 C 1.46667 km/h
2446 03-11-2019 22:00:00 10.7 C 9.43 g/m*3 10.7 C 0.8 km/h
2447 03-11-2019 23:00:00 10.60833 C 9.37 g/m*3 10.61 C 4.96667 km/h
2448 04-11-2019 00:00:00 11.075 C 9.31 g/m*3 11.08 C 10.475 km/h
2449 04-11-2019 01:00:00 11.025 C 9.11 g/m*3 11.03 C 6.44167 km/h
2450 04-11-2019 02:00:00 10.15833 C 8.79 g/m*3 10.16 C 2.00833 km/h
Sensor: Nr:Datum:Temp:Abs-Feuchte:Windchill:Wind:
Aussen-T/F 2451 04-11-2019 03:00:00 9.9 C 8.78 g/m*3 9.9 C 1.61667 km/h
2452 04-11-2019 04:00:00 10.18333 C 9.03 g/m*3 10.18 C 2.13333 km/h
2453 04-11-2019 05:00:00 10.38333 C 9.12 g/m*3 9.94 C 5.9 km/h
2454 04-11-2019 06:00:00 9.79167 C 8.76 g/m*3 9.79 C 2.8 km/h
2455 04-11-2019 07:00:00 9.26667 C 8.51 g/m*3 9.27 C 2.66667 km/h
2456 04-11-2019 08:00:00 9.5 C 8.69 g/m*3 9.5 C 0.13333 km/h
2457 04-11-2019 09:00:00 10.00833 C 8.83 g/m*3 10.01 C 1.475 km/h
2458 04-11-2019 10:00:00 10.875 C 9.14 g/m*3 10.88 C 1.73333 km/h
2459 04-11-2019 11:00:00 10.91667 C 9.26 g/m*3 10.92 C 1.33333 km/h
2460 04-11-2019 12:00:00 11.25 C 9.46 g/m*3 11.25 C 1.86667 km/h
2461 04-11-2019 13:00:00 12.025 C 9.75 g/m*3 12.03 C 5.23333 km/h
2462 04-11-2019 14:00:00 12.58333 C 9.58 g/m*3 12.58 C 13.56667 km/h
2463 04-11-2019 15:00:00 12.625 C 9.37 g/m*3 12.63 C 6.31667 km/h
2464 04-11-2019 16:00:00 11.44167 C 9.06 g/m*3 11.44 C 0.93333 km/h
2465 04-11-2019 17:00:00 10.275 C 8.76 g/m*3 10.28 C 0.66667 km/h
2466 04-11-2019 18:00:00 9.60833 C 8.5 g/m*3 9.61 C 0 km/h
2467 04-11-2019 19:00:00 9.18333 C 8.43 g/m*3 9.18 C 0.94167 km/h
2468 04-11-2019 20:00:00 9.5 C 8.71 g/m*3 9.5 C 0 km/h
2469 04-11-2019 21:00:00 9.24167 C 8.58 g/m*3 9.24 C 0.13333 km/h
2470 04-11-2019 22:00:00 8.29167 C 8.07 g/m*3 8.29 C 0.4 km/h
2471 04-11-2019 23:00:00 8.89167 C 8.48 g/m*3 8.42 C 5.24167 km/h
2472 05-11-2019 00:00:00 9.275 C 8.49 g/m*3 9.28 C 4.275 km/h
2473 05-11-2019 01:00:00 9.14167 C 8.29 g/m*3 9.14 C 3.74167 km/h
2474 05-11-2019 02:00:00 9.225 C 8.34 g/m*3 9.23 C 1.875 km/h
2475 05-11-2019 03:00:00 9.40833 C 8.27 g/m*3 8.9 C 5.625 km/h
Sensor: Nr:Datum:Temp:Abs-Feuchte:Windchill:Wind:
Aussen-T/F 2476 05-11-2019 04:00:00 9.46667 C 8.14 g/m*3 9.47 C 4.40833 km/h
2477 05-11-2019 05:00:00 9.525 C 8.15 g/m*3 9.53 C 4.95833 km/h
2478 05-11-2019 06:00:00 9.25 C 8.13 g/m*3 9.25 C 4.14167 km/h
2479 05-11-2019 07:00:00 9.15833 C 8.1 g/m*3 9.16 C 1.86667 km/h
2480 05-11-2019 08:00:00 8.95833 C 8.07 g/m*3 8.96 C 2.675 km/h
2481 05-11-2019 09:00:00 9.45833 C 8.15 g/m*3 9.46 C 2.26667 km/h
2482 05-11-2019 10:00:00 10.48333 C 8.33 g/m*3 10.48 C 3.625 km/h
2483 05-11-2019 11:00:00 11.225 C 8.32 g/m*3 11.23 C 5.5 km/h
2484 05-11-2019 12:00:00 11.83333 C 8.23 g/m*3 11.83 C 9.275 km/h
2485 05-11-2019 13:00:00 11.89167 C 8.41 g/m*3 11.89 C 4.68333 km/h
2486 05-11-2019 14:00:00 12.06667 C 8.62 g/m*3 12.07 C 1.86667 km/h
2487 05-11-2019 15:00:00 11.875 C 8.69 g/m*3 11.88 C 2.14167 km/h
2488 05-11-2019 16:00:00 10.85833 C 8.62 g/m*3 10.86 C 0 km/h
2489 05-11-2019 17:00:00 9.85833 C 8.46 g/m*3 9.86 C 0.13333 km/h
2490 05-11-2019 18:00:00 9.025 C 8.18 g/m*3 9.03 C 0 km/h
2491 05-11-2019 19:00:00 8.54167 C 8.03 g/m*3 8.54 C 0.13333 km/h
2492 05-11-2019 20:00:00 8.425 C 8.02 g/m*3 8.43 C 0.13333 km/h
2493 05-11-2019 21:00:00 7.95833 C 7.83 g/m*3 7.96 C 0 km/h
2494 05-11-2019 22:00:00 8.00833 C 7.88 g/m*3 8.01 C 0 km/h
2495 05-11-2019 23:00:00 8.11667 C 8 g/m*3 8.12 C 0 km/h
2496 06-11-2019 00:00:00 8.2 C 8.04 g/m*3 8.2 C 0 km/h
2497 06-11-2019 01:00:00 8.2 C 8.04 g/m*3 8.2 C 1.06667 km/h
2498 06-11-2019 02:00:00 8.175 C 8.05 g/m*3 8.18 C 0.26667 km/h
2499 06-11-2019 03:00:00 7.79167 C 7.83 g/m*3 7.79 C 0.13333 km/h
2500 06-11-2019 04:00:00 7.45 C 7.7 g/m*3 7.45 C 0 km/h
Sensor: Nr:Datum:Temp:Abs-Feuchte:Windchill:Wind:
Aussen-T/F 2501 06-11-2019 05:00:00 7.49167 C 7.76 g/m*3 7.49 C 0.26667 km/h
2502 06-11-2019 06:00:00 7.65 C 7.84 g/m*3 7.65 C 0.4 km/h
2503 06-11-2019 07:00:00 7.65 C 7.84 g/m*3 7.65 C 0.13333 km/h
2504 06-11-2019 08:00:00 7.975 C 8.01 g/m*3 7.98 C 0.53333 km/h
2505 06-11-2019 09:00:00 8.81667 C 8.42 g/m*3 8.82 C 4.15 km/h
2506 06-11-2019 10:00:00 9.68333 C 8.51 g/m*3 8.83 C 7.13333 km/h
2507 06-11-2019 11:00:00 10.15 C 8.71 g/m*3 9.64 C 6.025 km/h
2508 06-11-2019 12:00:00 10.35 C 8.85 g/m*3 9.87 C 6.03333 km/h
2509 06-11-2019 13:00:00 10.6 C 8.84 g/m*3 9.76 C 7.78333 km/h
2510 06-11-2019 14:00:00 10.43333 C 8.83 g/m*3 10.43 C 4.40833 km/h
2511 06-11-2019 15:00:00 10.24167 C 8.91 g/m*3 10.24 C 0.66667 km/h
2512 06-11-2019 16:00:00 10 C 8.84 g/m*3 10 C 0.13333 km/h
2513 06-11-2019 17:00:00 9.68333 C 8.75 g/m*3 9.68 C 0 km/h
2514 06-11-2019 18:00:00 9.6 C 8.77 g/m*3 9.6 C 0 km/h
2515 06-11-2019 19:00:00 9.40833 C 8.69 g/m*3 9.41 C 0 km/h
2516 06-11-2019 20:00:00 9.13333 C 8.54 g/m*3 9.13 C 0 km/h
2517 06-11-2019 21:00:00 8.975 C 8.51 g/m*3 8.98 C 0 km/h
2518 06-11-2019 22:00:00 8.9 C 8.42 g/m*3 8.9 C 0 km/h
2519 06-11-2019 23:00:00 8.85833 C 8.47 g/m*3 8.86 C 0.53333 km/h
2520 07-11-2019 00:00:00 8.51667 C 8.29 g/m*3 8.52 C 0 km/h
2521 07-11-2019 01:00:00 8.06667 C 8.05 g/m*3 8.07 C 0 km/h
2522 07-11-2019 02:00:00 7.98333 C 8.01 g/m*3 7.98 C 0 km/h
2523 07-11-2019 03:00:00 7.91667 C 7.98 g/m*3 7.92 C 0 km/h
2524 07-11-2019 04:00:00 7.49167 C 7.76 g/m*3 7.49 C 0 km/h
2525 07-11-2019 05:00:00 7.55 C 7.79 g/m*3 7.55 C 0.4 km/h
Sensor: Nr:Datum:Temp:Abs-Feuchte:Windchill:Wind:
Aussen-T/F 2526 07-11-2019 06:00:00 7.375 C 7.7 g/m*3 7.38 C 0 km/h
2527 07-11-2019 07:00:00 7.59167 C 7.84 g/m*3 7.59 C 0.4 km/h
2528 07-11-2019 08:00:00 8.24167 C 8.23 g/m*3 8.24 C 0.26667 km/h
2529 07-11-2019 09:00:00 8.875 C 8.57 g/m*3 8.88 C 1.06667 km/h
2530 07-11-2019 10:00:00 9.29167 C 8.77 g/m*3 9.29 C 3.35 km/h
2531 07-11-2019 11:00:00 9.39167 C 8.69 g/m*3 9.39 C 2.8 km/h
2532 07-11-2019 12:00:00 9.31667 C 8.52 g/m*3 9.32 C 2.95 km/h
2533 07-11-2019 13:00:00 9.625 C 8.55 g/m*3 9.63 C 4.00833 km/h
2534 07-11-2019 14:00:00 9.375 C 8.35 g/m*3 9.38 C 4.41667 km/h
2535 07-11-2019 15:00:00 9.76667 C 8.64 g/m*3 9.77 C 4.41667 km/h
2536 07-11-2019 16:00:00 9.65 C 8.24 g/m*3 7.67 C 13.55833 km/h
2537 07-11-2019 17:00:00 8.55833 C 7.73 g/m*3 7.46 C 7.38333 km/h
2538 07-11-2019 18:00:00 7.24167 C 7.22 g/m*3 7.24 C 1.075 km/h
2539 07-11-2019 19:00:00 6.76667 C 7.21 g/m*3 6.77 C 0.8 km/h
2540 07-11-2019 20:00:00 6.18333 C 6.96 g/m*3 6.18 C 0.4 km/h
2541 07-11-2019 21:00:00 5.65833 C 6.77 g/m*3 5.66 C 0.13333 km/h
2542 07-11-2019 22:00:00 5.00833 C 6.51 g/m*3 5.01 C 0 km/h
2543 07-11-2019 23:00:00 5.025 C 6.56 g/m*3 5.03 C 0.26667 km/h
2544 08-11-2019 00:00:00 4.675 C 6.38 g/m*3 4.68 C 0.26667 km/h
2545 08-11-2019 01:00:00 4.24167 C 6.2 g/m*3 4.24 C 0.26667 km/h
2546 08-11-2019 02:00:00 3.28333 C 5.82 g/m*3 3.28 C 0 km/h
2547 08-11-2019 03:00:00 3.1 C 5.79 g/m*3 3.1 C 0 km/h
2548 08-11-2019 04:00:00 2.75833 C 5.66 g/m*3 2.76 C 0 km/h
2549 08-11-2019 05:00:00 2.34167 C 5.52 g/m*3 2.34 C 0 km/h
2550 08-11-2019 06:00:00 2.31667 C 5.51 g/m*3 2.32 C 0 km/h
Sensor: Nr:Datum:Temp:Abs-Feuchte:Windchill:Wind:
Aussen-T/F 2551 08-11-2019 07:00:00 2.35 C 5.52 g/m*3 2.35 C 0 km/h
2552 08-11-2019 08:00:00 3.05 C 5.81 g/m*3 3.05 C 0 km/h
2553 08-11-2019 09:00:00 3.78333 C 6.1 g/m*3 3.78 C 0.53333 km/h
2554 08-11-2019 10:00:00 4.43333 C 6.4 g/m*3 4.43 C 0.4 km/h
2555 08-11-2019 11:00:00 5.15833 C 6.73 g/m*3 5.16 C 0.8 km/h
2556 08-11-2019 12:00:00 6 C 7.11 g/m*3 6 C 0.8 km/h
2557 08-11-2019 13:00:00 6.8 C 7.44 g/m*3 6.8 C 0.13333 km/h
2558 08-11-2019 14:00:00 7.44167 C 7.63 g/m*3 7.44 C 1.86667 km/h
2559 08-11-2019 15:00:00 7.73333 C 7.71 g/m*3 7.73 C 0 km/h
2560 08-11-2019 16:00:00 7.61667 C 7.63 g/m*3 7.62 C 0 km/h
2561 08-11-2019 17:00:00 6.85833 C 7.29 g/m*3 6.86 C 0 km/h
2562 08-11-2019 18:00:00 6.65 C 7.26 g/m*3 6.65 C 0 km/h
2563 08-11-2019 19:00:00 6.475 C 7.19 g/m*3 6.48 C 0 km/h
2564 08-11-2019 20:00:00 6.21667 C 7.07 g/m*3 6.22 C 0 km/h
2565 08-11-2019 21:00:00 5.7 C 6.83 g/m*3 5.7 C 0 km/h
2566 08-11-2019 22:00:00 5.39167 C 6.76 g/m*3 5.39 C 0.26667 km/h
2567 08-11-2019 23:00:00 5.49167 C 6.81 g/m*3 5.49 C 2.53333 km/h
2568 09-11-2019 00:00:00 5.34167 C 6.74 g/m*3 4.34 C 5.35 km/h
2569 09-11-2019 01:00:00 5.15833 C 6.66 g/m*3 4.18 C 5.225 km/h
2570 09-11-2019 02:00:00 5.1 C 6.63 g/m*3 3.79 C 6.15833 km/h
2571 09-11-2019 03:00:00 5.125 C 6.65 g/m*3 5.13 C 3.33333 km/h
2572 09-11-2019 04:00:00 4.96667 C 6.58 g/m*3 4.97 C 1.46667 km/h
2573 09-11-2019 05:00:00 4.78333 C 6.51 g/m*3 4.78 C 3.075 km/h
2574 09-11-2019 06:00:00 4.45 C 6.32 g/m*3 3.13 C 5.9 km/h
2575 09-11-2019 07:00:00 3.44167 C 5.88 g/m*3 3.44 C 0.8 km/h
Sensor: Nr:Datum:Temp:Abs-Feuchte:Windchill:Wind:
Aussen-T/F 2576 09-11-2019 08:00:00 3.29167 C 5.86 g/m*3 3.29 C 0.13333 km/h
2577 09-11-2019 09:00:00 4.53333 C 6.37 g/m*3 3.46 C 5.25 km/h
2578 09-11-2019 10:00:00 5.65833 C 6.55 g/m*3 3.11 C 11.7 km/h
2579 09-11-2019 11:00:00 5.91667 C 6.56 g/m*3 3.82 C 9.68333 km/h
2580 09-11-2019 12:00:00 6.375 C 6.66 g/m*3 4.51 C 9.00833 km/h
2581 09-11-2019 13:00:00 7.04167 C 6.76 g/m*3 5.39 C 8.59167 km/h
2582 09-11-2019 14:00:00 6.93333 C 6.77 g/m*3 5.67 C 6.96667 km/h
2583 09-11-2019 15:00:00 6.68333 C 6.88 g/m*3 6.68 C 3.20833 km/h
2584 09-11-2019 16:00:00 6.56667 C 6.94 g/m*3 6.57 C 1.33333 km/h
2585 09-11-2019 17:00:00 6.175 C 6.83 g/m*3 6.18 C 0.26667 km/h
2586 09-11-2019 18:00:00 5.375 C 6.48 g/m*3 5.38 C 0.13333 km/h
2587 09-11-2019 19:00:00 4.875 C 6.35 g/m*3 4.88 C 2.00833 km/h
2588 09-11-2019 20:00:00 4.03333 C 5.94 g/m*3 4.03 C 0 km/h
2589 09-11-2019 21:00:00 3.25833 C 5.73 g/m*3 3.26 C 0 km/h
2590 09-11-2019 22:00:00 2.725 C 5.56 g/m*3 2.73 C 0 km/h
2591 09-11-2019 23:00:00 1.99167 C 5.28 g/m*3 1.99 C 0 km/h
2592 10-11-2019 00:00:00 1.25833 C 5.05 g/m*3 1.26 C 0 km/h
2593 10-11-2019 01:00:00 1.31667 C 5.11 g/m*3 1.32 C 0 km/h
2594 10-11-2019 02:00:00 1.65833 C 5.24 g/m*3 1.66 C 0 km/h
2595 10-11-2019 03:00:00 1.59167 C 5.24 g/m*3 1.59 C 0.53333 km/h
2596 10-11-2019 04:00:00 1.28333 C 5.13 g/m*3 1.28 C 0.8 km/h
2597 10-11-2019 05:00:00 1.38333 C 5.17 g/m*3 1.38 C 0 km/h
2598 10-11-2019 06:00:00 1.70833 C 5.28 g/m*3 1.71 C 2.93333 km/h
2599 10-11-2019 07:00:00 1.61667 C 5.25 g/m*3 1.62 C 1.86667 km/h
2600 10-11-2019 08:00:00 1.81667 C 5.35 g/m*3 1.82 C 0.53333 km/h
Sensor: Nr:Datum:Temp:Abs-Feuchte:Windchill:Wind:
Aussen-T/F 2601 10-11-2019 09:00:00 2.25 C 5.52 g/m*3 2.25 C 0.66667 km/h
2602 10-11-2019 10:00:00 2.66667 C 5.7 g/m*3 2.67 C 0.93333 km/h
2603 10-11-2019 11:00:00 3.2 C 5.91 g/m*3 3.2 C 2.26667 km/h
2604 10-11-2019 12:00:00 3.4 C 5.91 g/m*3 2.24 C 5.075 km/h
2605 10-11-2019 13:00:00 3.86667 C 5.99 g/m*3 3.87 C 4.26667 km/h
2606 10-11-2019 14:00:00 4.29167 C 6.06 g/m*3 4.29 C 3.2 km/h
2607 10-11-2019 15:00:00 4.65833 C 6.17 g/m*3 4.66 C 1.86667 km/h
2608 10-11-2019 16:00:00 4.58333 C 6.08 g/m*3 4.58 C 1.46667 km/h
2609 10-11-2019 17:00:00 4.35833 C 6.06 g/m*3 4.36 C 1.2 km/h
2610 10-11-2019 18:00:00 4.275 C 6.07 g/m*3 4.28 C 1.2 km/h
2611 10-11-2019 19:00:00 4.15 C 6.04 g/m*3 4.15 C 1.6 km/h
2612 10-11-2019 20:00:00 4.25 C 6.14 g/m*3 4.25 C 0.26667 km/h
2613 10-11-2019 21:00:00 4.3 C 6.16 g/m*3 4.3 C 0.26667 km/h
2614 10-11-2019 22:00:00 4.275 C 6.15 g/m*3 4.28 C 0 km/h
2615 10-11-2019 23:00:00 4.36667 C 6.14 g/m*3 4.37 C 0.53333 km/h
2616 11-11-2019 00:00:00 4.25833 C 6.03 g/m*3 4.26 C 0.93333 km/h
2617 11-11-2019 01:00:00 3.85 C 5.84 g/m*3 3.85 C 2.53333 km/h
2618 11-11-2019 02:00:00 3.58333 C 5.75 g/m*3 3.58 C 0.4 km/h
2619 11-11-2019 03:00:00 3.30833 C 5.65 g/m*3 3.31 C 2.4 km/h
2620 11-11-2019 04:00:00 3.14167 C 5.58 g/m*3 3.14 C 1.06667 km/h
2621 11-11-2019 05:00:00 3.23333 C 5.64 g/m*3 3.23 C 0.4 km/h
2622 11-11-2019 06:00:00 3.3 C 5.66 g/m*3 3.3 C 0 km/h
2623 11-11-2019 07:00:00 3.39167 C 5.74 g/m*3 3.39 C 0.53333 km/h
2624 11-11-2019 08:00:00 4.16667 C 5.97 g/m*3 2.66 C 6.3 km/h
2625 11-11-2019 09:00:00 4.98333 C 6.13 g/m*3 3.17 C 7.79167 km/h
Sensor: Nr:Datum:Temp:Abs-Feuchte:Windchill:Wind:
Aussen-T/F 2626 11-11-2019 10:00:00 5.24167 C 6.15 g/m*3 3.62 C 7.24167 km/h
2627 11-11-2019 11:00:00 5.54167 C 6.22 g/m*3 3.97 C 7.25 km/h
2628 11-11-2019 12:00:00 6.025 C 6.32 g/m*3 4.57 C 7.11667 km/h
2629 11-11-2019 13:00:00 6.425 C 6.42 g/m*3 5.48 C 5.625 km/h
2630 11-11-2019 14:00:00 6.11667 C 6.33 g/m*3 4.76 C 6.83333 km/h
2631 11-11-2019 15:00:00 5.61667 C 6.28 g/m*3 4.75 C 5.08333 km/h
2632 11-11-2019 16:00:00 5.25833 C 6.22 g/m*3 4.1 C 5.75833 km/h
2633 11-11-2019 17:00:00 5.09167 C 6.15 g/m*3 3.6 C 6.71667 km/h
2634 11-11-2019 18:00:00 4.85833 C 6.1 g/m*3 4.86 C 4.14167 km/h
2635 11-11-2019 19:00:00 4.83333 C 6.22 g/m*3 4.83 C 0.8 km/h
2636 11-11-2019 20:00:00 4.8 C 6.3 g/m*3 4.8 C 0.13333 km/h
2637 11-11-2019 21:00:00 4.975 C 6.44 g/m*3 4.97 C 1.06667 km/h
2638 11-11-2019 22:00:00 5.13333 C 6.51 g/m*3 5.13 C 1.06667 km/h
2639 11-11-2019 23:00:00 5.18333 C 6.6 g/m*3 5.18 C 0.13333 km/h
2640 12-11-2019 00:00:00 5.05 C 6.53 g/m*3 5.05 C 0.13333 km/h
2641 12-11-2019 01:00:00 5.05 C 6.54 g/m*3 4.05 C 5.23333 km/h
2642 12-11-2019 02:00:00 5.375 C 6.55 g/m*3 5.38 C 3.21667 km/h
2643 12-11-2019 03:00:00 5.475 C 6.47 g/m*3 5.48 C 3.48333 km/h
2644 12-11-2019 04:00:00 5.6 C 6.45 g/m*3 5.6 C 2.275 km/h
2645 12-11-2019 05:00:00 5.45833 C 6.41 g/m*3 5.46 C 1.06667 km/h
2646 12-11-2019 06:00:00 5.375 C 6.4 g/m*3 5.38 C 2.26667 km/h
2647 12-11-2019 07:00:00 5.7 C 6.39 g/m*3 5.7 C 2.4 km/h
2648 12-11-2019 08:00:00 5.88333 C 6.42 g/m*3 5.88 C 2 km/h
2649 12-11-2019 09:00:00 6.58333 C 6.53 g/m*3 6.58 C 2.94167 km/h
2650 12-11-2019 10:00:00 7.66667 C 6.68 g/m*3 6.7 C 6.3 km/h
Sensor: Nr:Datum:Temp:Abs-Feuchte:Windchill:Wind:
Aussen-T/F 2651 12-11-2019 11:00:00 8.03333 C 6.79 g/m*3 6.34 C 9.7 km/h
2652 12-11-2019 12:00:00 7.91667 C 6.89 g/m*3 5.25 C 15.7 km/h
2653 12-11-2019 13:00:00 7.73333 C 6.67 g/m*3 4.97 C 16.1 km/h
2654 12-11-2019 14:00:00 7.76667 C 6.55 g/m*3 5.68 C 11.55833 km/h
2655 12-11-2019 15:00:00 7.75833 C 6.52 g/m*3 5.99 C 9.81667 km/h
2656 12-11-2019 16:00:00 7.31667 C 6.41 g/m*3 5.6 C 9.14167 km/h
2657 12-11-2019 17:00:00 6.60833 C 6.23 g/m*3 5.78 C 5.35833 km/h
2658 12-11-2019 18:00:00 5.85 C 6.26 g/m*3 5.85 C 0.53333 km/h
2659 12-11-2019 19:00:00 4.65833 C 5.93 g/m*3 4.66 C 0 km/h
2660 12-11-2019 20:00:00 3.29167 C 5.55 g/m*3 3.29 C 0.13333 km/h
2661 12-11-2019 21:00:00 3.23333 C 5.65 g/m*3 3.23 C 0.4 km/h
2662 12-11-2019 22:00:00 3.85 C 5.94 g/m*3 3.85 C 2.4 km/h
2663 12-11-2019 23:00:00 4.66667 C 6.06 g/m*3 4.67 C 3.21667 km/h
2664 13-11-2019 00:00:00 4.89167 C 5.98 g/m*3 4.89 C 1.6 km/h
2665 13-11-2019 01:00:00 4.65833 C 5.91 g/m*3 4.66 C 0.26667 km/h
2666 13-11-2019 02:00:00 3.33333 C 5.52 g/m*3 3.33 C 0.8 km/h
2667 13-11-2019 03:00:00 4.14167 C 5.76 g/m*3 4.14 C 2.81667 km/h
2668 13-11-2019 04:00:00 4.48333 C 5.82 g/m*3 4.48 C 0.93333 km/h
2669 13-11-2019 05:00:00 4.53333 C 5.87 g/m*3 4.53 C 0.66667 km/h
2670 13-11-2019 06:00:00 4.50833 C 5.89 g/m*3 4.51 C 0.53333 km/h
2671 13-11-2019 07:00:00 4.16667 C 5.82 g/m*3 4.17 C 0 km/h
2672 13-11-2019 08:00:00 4.58333 C 5.99 g/m*3 4.58 C 0.4 km/h
2673 13-11-2019 09:00:00 5.43333 C 6.19 g/m*3 4 C 6.725 km/h
2674 13-11-2019 10:00:00 6.01667 C 6.27 g/m*3 4.97 C 5.75833 km/h
2675 13-11-2019 11:00:00 6.30833 C 6.36 g/m*3 4.37 C 9.28333 km/h
Sensor: Nr:Datum:Temp:Abs-Feuchte:Windchill:Wind:
Aussen-T/F 2676 13-11-2019 12:00:00 6.81667 C 6.46 g/m*3 4.73 C 10.48333 km/h
2677 13-11-2019 13:00:00 6.775 C 6.44 g/m*3 5.17 C 8.20833 km/h
2678 13-11-2019 14:00:00 6.65 C 6.48 g/m*3 4.69 C 9.68333 km/h
2679 13-11-2019 15:00:00 6.69167 C 6.52 g/m*3 5.11 C 8.04167 km/h
2680 13-11-2019 16:00:00 6.6 C 6.52 g/m*3 5.68 C 5.625 km/h
2681 13-11-2019 17:00:00 6.41667 C 6.49 g/m*3 6.42 C 1.33333 km/h
2682 13-11-2019 18:00:00 6.35 C 6.51 g/m*3 6.35 C 0.26667 km/h
2683 13-11-2019 19:00:00 6.225 C 6.53 g/m*3 6.23 C 2.53333 km/h
2684 13-11-2019 20:00:00 6.26667 C 6.51 g/m*3 6.27 C 4.15 km/h
2685 13-11-2019 21:00:00 5.9 C 6.44 g/m*3 5.9 C 0 km/h
2686 13-11-2019 22:00:00 5.025 C 6.18 g/m*3 5.03 C 0.53333 km/h
2687 13-11-2019 23:00:00 4.60833 C 6.09 g/m*3 4.61 C 0.26667 km/h
2688 14-11-2019 00:00:00 4.95 C 6.32 g/m*3 4.95 C 0.26667 km/h
2689 14-11-2019 01:00:00 4.81667 C 6.23 g/m*3 4.82 C 1.06667 km/h
2690 14-11-2019 02:00:00 4.8 C 6.32 g/m*3 4.8 C 0.26667 km/h
2691 14-11-2019 03:00:00 5.425 C 6.56 g/m*3 5.43 C 1.73333 km/h
2692 14-11-2019 04:00:00 5.69167 C 6.56 g/m*3 5.69 C 1.46667 km/h
2693 14-11-2019 05:00:00 4.84167 C 6.26 g/m*3 4.84 C 0 km/h
2694 14-11-2019 06:00:00 4.70833 C 6.28 g/m*3 4.71 C 0.8 km/h
2695 14-11-2019 07:00:00 5.25833 C 6.3 g/m*3 4.34 C 5.09167 km/h
2696 14-11-2019 08:00:00 5.28333 C 6.17 g/m*3 5.28 C 3.46667 km/h
2697 14-11-2019 09:00:00 5.64167 C 6.2 g/m*3 5.64 C 4 km/h
2698 14-11-2019 10:00:00 6.68333 C 6.33 g/m*3 6.68 C 4.55 km/h
2699 14-11-2019 11:00:00 7.86667 C 6.26 g/m*3 7.17 C 5.49167 km/h
2700 14-11-2019 12:00:00 8.725 C 6.09 g/m*3 7.78 C 6.84167 km/h
Sensor: Nr:Datum:Temp:Abs-Feuchte:Windchill:Wind:
Aussen-T/F 2701 14-11-2019 13:00:00 8.68333 C 6.07 g/m*3 8.68 C 4.53333 km/h
2702 14-11-2019 14:00:00 9.01667 C 5.98 g/m*3 9.02 C 4.825 km/h
2703 14-11-2019 15:00:00 8.2 C 6.17 g/m*3 8.2 C 1.2 km/h
2704 14-11-2019 16:00:00 6.66667 C 6.05 g/m*3 6.67 C 0 km/h
2705 14-11-2019 17:00:00 4.96667 C 5.66 g/m*3 4.97 C 0.53333 km/h
2706 14-11-2019 18:00:00 4.48333 C 5.6 g/m*3 4.48 C 0.66667 km/h
2707 14-11-2019 19:00:00 3.86667 C 5.46 g/m*3 3.87 C 0 km/h
2708 14-11-2019 20:00:00 3.45 C 5.44 g/m*3 3.45 C 0.13333 km/h
2709 14-11-2019 21:00:00 2.86667 C 5.32 g/m*3 2.87 C 0 km/h
2710 14-11-2019 22:00:00 2.55833 C 5.32 g/m*3 2.56 C 0 km/h
2711 14-11-2019 23:00:00 2.725 C 5.44 g/m*3 2.73 C 0 km/h
2712 15-11-2019 00:00:00 2.975 C 5.57 g/m*3 2.98 C 0 km/h
2713 15-11-2019 01:00:00 3.43333 C 5.73 g/m*3 3.43 C 0 km/h
2714 15-11-2019 02:00:00 3.43333 C 5.69 g/m*3 3.43 C 0.13333 km/h
2715 15-11-2019 03:00:00 3.4 C 5.63 g/m*3 3.4 C 0.4 km/h
2716 15-11-2019 04:00:00 3.36667 C 5.59 g/m*3 3.37 C 2.4 km/h
2717 15-11-2019 05:00:00 3.53333 C 5.56 g/m*3 3.53 C 0.8 km/h
2718 15-11-2019 06:00:00 3.89167 C 5.55 g/m*3 3.89 C 4.29167 km/h
2719 15-11-2019 07:00:00 3.88333 C 5.52 g/m*3 3.88 C 2.66667 km/h
2720 15-11-2019 08:00:00 4.05833 C 5.58 g/m*3 4.06 C 1.88333 km/h
2721 15-11-2019 09:00:00 4.275 C 5.67 g/m*3 4.28 C 1.74167 km/h
2722 15-11-2019 10:00:00 5.38333 C 5.82 g/m*3 5.38 C 3.2 km/h
2723 15-11-2019 11:00:00 5.86667 C 5.88 g/m*3 5.03 C 5.1 km/h
2724 15-11-2019 12:00:00 6.55 C 6.08 g/m*3 6.55 C 3.35 km/h
2725 15-11-2019 13:00:00 7.05 C 6.26 g/m*3 7.05 C 1.06667 km/h
Sensor: Nr:Datum:Temp:Abs-Feuchte:Windchill:Wind:
Aussen-T/F 2726 15-11-2019 14:00:00 7.68333 C 6.42 g/m*3 7.68 C 2.13333 km/h
2727 15-11-2019 15:00:00 7.875 C 6.45 g/m*3 7.88 C 2.26667 km/h
2728 15-11-2019 16:00:00 6.54167 C 6.22 g/m*3 6.54 C 0.13333 km/h
2729 15-11-2019 17:00:00 4.75833 C 5.93 g/m*3 4.76 C 0 km/h
2730 15-11-2019 18:00:00 4.63333 C 6.01 g/m*3 4.63 C 0.26667 km/h
2731 15-11-2019 19:00:00 4.50833 C 6.02 g/m*3 4.51 C 0 km/h
2732 15-11-2019 20:00:00 4.2 C 5.93 g/m*3 4.2 C 0 km/h
2733 15-11-2019 21:00:00 4.05 C 5.93 g/m*3 4.05 C 0 km/h
2734 15-11-2019 22:00:00 3.70833 C 5.81 g/m*3 3.71 C 0 km/h
2735 15-11-2019 23:00:00 3.49167 C 5.77 g/m*3 3.49 C 0 km/h
2736 16-11-2019 00:00:00 3.30833 C 5.71 g/m*3 3.31 C 0 km/h
2737 16-11-2019 01:00:00 3.225 C 5.73 g/m*3 3.23 C 0.13333 km/h
2738 16-11-2019 02:00:00 3.11667 C 5.69 g/m*3 3.12 C 0.13333 km/h
2739 16-11-2019 03:00:00 2.63333 C 5.5 g/m*3 2.63 C 0 km/h
2740 16-11-2019 04:00:00 1.85 C 5.2 g/m*3 1.85 C 0 km/h
2741 16-11-2019 05:00:00 0.85 C 4.88 g/m*3 0.85 C 0 km/h
2742 16-11-2019 06:00:00 0.08333 C 4.63 g/m*3 0.08 C 0 km/h
2743 16-11-2019 07:00:00 -0.30833 C 4.52 g/m*3 -0.31 C 0.26667 km/h
2744 16-11-2019 08:00:00 0.24167 C 4.73 g/m*3 0.24 C 2.13333 km/h
2745 16-11-2019 09:00:00 0.31667 C 4.77 g/m*3 0.32 C 4.53333 km/h
2746 16-11-2019 10:00:00 0.74167 C 4.95 g/m*3 0.74 C 2.8 km/h
2747 16-11-2019 11:00:00 1.425 C 5.18 g/m*3 1.43 C 2.53333 km/h
2748 16-11-2019 12:00:00 2.25833 C 5.49 g/m*3 2.26 C 0 km/h
2749 16-11-2019 13:00:00 3.375 C 5.91 g/m*3 3.38 C 0 km/h
2750 16-11-2019 14:00:00 4.20833 C 6.25 g/m*3 4.21 C 0.13333 km/h
Sensor: Nr:Datum:Temp:Abs-Feuchte:Windchill:Wind:
Aussen-T/F 2751 16-11-2019 15:00:00 4.66667 C 6.39 g/m*3 4.67 C 0.4 km/h
2752 16-11-2019 16:00:00 4.58333 C 6.18 g/m*3 4.58 C 0.26667 km/h
2753 16-11-2019 17:00:00 3.94167 C 5.92 g/m*3 3.94 C 0.26667 km/h
2754 16-11-2019 18:00:00 3.20833 C 5.7 g/m*3 3.21 C 0.4 km/h
2755 16-11-2019 19:00:00 2.55833 C 5.48 g/m*3 2.56 C 0.13333 km/h
2756 16-11-2019 20:00:00 1.94167 C 5.29 g/m*3 1.94 C 0 km/h
2757 16-11-2019 21:00:00 1.55833 C 5.17 g/m*3 1.56 C 0 km/h
2758 16-11-2019 22:00:00 0.79167 C 4.91 g/m*3 0.79 C 0.13333 km/h
2759 16-11-2019 23:00:00 0.15833 C 4.7 g/m*3 0.16 C 0 km/h
2760 17-11-2019 00:00:00 -0.3 C 4.56 g/m*3 -0.3 C 0 km/h
2761 17-11-2019 01:00:00 -0.69167 C 4.44 g/m*3 -0.69 C 0 km/h
2762 17-11-2019 02:00:00 -0.11667 C 4.65 g/m*3 -0.12 C 0 km/h
2763 17-11-2019 03:00:00 0.8 C 4.97 g/m*3 0.8 C 0 km/h
2764 17-11-2019 04:00:00 1.475 C 5.2 g/m*3 1.48 C 0 km/h
2765 17-11-2019 05:00:00 1.65833 C 5.27 g/m*3 1.66 C 0 km/h
2766 17-11-2019 06:00:00 1.7 C 5.28 g/m*3 1.7 C 0 km/h
2767 17-11-2019 07:00:00 1.825 C 5.33 g/m*3 1.83 C 0 km/h
2768 17-11-2019 08:00:00 1.96667 C 5.38 g/m*3 1.97 C 0 km/h
2769 17-11-2019 09:00:00 2.475 C 5.58 g/m*3 2.48 C 0 km/h
2770 17-11-2019 10:00:00 3.15 C 5.89 g/m*3 3.15 C 0.26667 km/h
2771 17-11-2019 11:00:00 3.91667 C 6.2 g/m*3 3.92 C 0.13333 km/h
2772 17-11-2019 12:00:00 4.31667 C 6.36 g/m*3 4.32 C 0 km/h
2773 17-11-2019 13:00:00 4.90833 C 6.62 g/m*3 4.91 C 0 km/h
2774 17-11-2019 14:00:00 5.1 C 6.69 g/m*3 5.1 C 0.93333 km/h
2775 17-11-2019 15:00:00 4.88333 C 6.54 g/m*3 4.88 C 1.33333 km/h
Sensor: Nr:Datum:Temp:Abs-Feuchte:Windchill:Wind:
Aussen-T/F 2776 17-11-2019 16:00:00 4.65 C 6.44 g/m*3 4.65 C 2.66667 km/h
2777 17-11-2019 17:00:00 4.43333 C 6.35 g/m*3 4.43 C 2.13333 km/h
2778 17-11-2019 18:00:00 4.63333 C 6.43 g/m*3 4.63 C 1.6 km/h
2779 17-11-2019 19:00:00 4.7 C 6.46 g/m*3 3.15 C 6.70833 km/h
2780 17-11-2019 20:00:00 4.71667 C 6.47 g/m*3 4.72 C 3.74167 km/h
2781 17-11-2019 21:00:00 4.7 C 6.46 g/m*3 3.51 C 5.625 km/h
2782 17-11-2019 22:00:00 4.7 C 6.46 g/m*3 4.7 C 1.2 km/h
2783 17-11-2019 23:00:00 4.625 C 6.43 g/m*3 4.63 C 2.95 km/h
2784 18-11-2019 00:00:00 4.375 C 6.32 g/m*3 3.18 C 5.5 km/h
2785 18-11-2019 01:00:00 4.2 C 6.25 g/m*3 2.71 C 6.29167 km/h
2786 18-11-2019 02:00:00 4.2 C 6.25 g/m*3 4.2 C 4.41667 km/h
2787 18-11-2019 03:00:00 4.2 C 6.25 g/m*3 4.2 C 2.93333 km/h
2788 18-11-2019 04:00:00 4.2 C 6.25 g/m*3 4.2 C 4.00833 km/h
2789 18-11-2019 05:00:00 4.175 C 6.24 g/m*3 4.18 C 1.73333 km/h
2790 18-11-2019 06:00:00 4.1 C 6.21 g/m*3 4.1 C 0.53333 km/h
2791 18-11-2019 07:00:00 4.08333 C 6.2 g/m*3 4.08 C 0.4 km/h
2792 18-11-2019 08:00:00 4.14167 C 6.23 g/m*3 4.14 C 0 km/h
2793 18-11-2019 09:00:00 4.40833 C 6.34 g/m*3 4.41 C 0.13333 km/h
2794 18-11-2019 10:00:00 4.86667 C 6.58 g/m*3 4.87 C 0.26667 km/h
2795 18-11-2019 11:00:00 5.025 C 6.6 g/m*3 5.03 C 0.93333 km/h
2796 18-11-2019 12:00:00 5.30833 C 6.7 g/m*3 5.31 C 3.46667 km/h
2797 18-11-2019 13:00:00 5.33333 C 6.67 g/m*3 5.33 C 3.46667 km/h
2798 18-11-2019 14:00:00 5.35833 C 6.63 g/m*3 5.36 C 4 km/h
2799 18-11-2019 15:00:00 5.19167 C 6.54 g/m*3 5.19 C 3.6 km/h
2800 18-11-2019 16:00:00 4.86667 C 6.4 g/m*3 4.87 C 4.29167 km/h
Sensor: Nr:Datum:Temp:Abs-Feuchte:Windchill:Wind:
Aussen-T/F 2801 18-11-2019 17:00:00 4.78333 C 6.36 g/m*3 4.78 C 4.55 km/h
2802 18-11-2019 18:00:00 4.65833 C 6.31 g/m*3 4.66 C 4.01667 km/h
2803 18-11-2019 19:00:00 4.08333 C 6.07 g/m*3 2.01 C 8.19167 km/h
2804 18-11-2019 20:00:00 3.23333 C 5.74 g/m*3 0.59 C 9.81667 km/h
2805 18-11-2019 21:00:00 2.55833 C 5.51 g/m*3 -0.5 C 11.03333 km/h
2806 18-11-2019 22:00:00 2.88333 C 5.66 g/m*3 0.08 C 10.23333 km/h
2807 18-11-2019 23:00:00 3.25 C 5.8 g/m*3 0.22 C 11.56667 km/h
2808 19-11-2019 00:00:00 3.7 C 5.98 g/m*3 1.02 C 10.35833 km/h
2809 19-11-2019 01:00:00 4.01667 C 6.11 g/m*3 2.19 C 7.25833 km/h
2810 19-11-2019 02:00:00 4.2 C 6.19 g/m*3 2.84 C 5.89167 km/h
2811 19-11-2019 03:00:00 4.25833 C 6.21 g/m*3 4.26 C 3.2 km/h
2812 19-11-2019 04:00:00 4.325 C 6.24 g/m*3 2.67 C 6.85833 km/h
2813 19-11-2019 05:00:00 3.475 C 5.88 g/m*3 3.48 C 0.8 km/h
2814 19-11-2019 06:00:00 2.85 C 5.66 g/m*3 2.85 C 2.66667 km/h
2815 19-11-2019 07:00:00 2.93333 C 5.72 g/m*3 2.93 C 0.53333 km/h
2816 19-11-2019 08:00:00 3.18333 C 5.84 g/m*3 3.18 C 2.13333 km/h
2817 19-11-2019 09:00:00 4.025 C 6.17 g/m*3 2.79 C 5.48333 km/h
2818 19-11-2019 10:00:00 4.00833 C 6.14 g/m*3 4.01 C 2 km/h
2819 19-11-2019 11:00:00 4.65833 C 6.44 g/m*3 4.66 C 3.89167 km/h
2820 19-11-2019 12:00:00 6.175 C 6.72 g/m*3 4.71 C 7.24167 km/h
2821 19-11-2019 13:00:00 6.35 C 6.55 g/m*3 5.18 C 6.30833 km/h
2822 19-11-2019 14:00:00 6.63333 C 6.58 g/m*3 5.72 C 5.61667 km/h
2823 19-11-2019 15:00:00 6.55 C 6.77 g/m*3 6.55 C 0.93333 km/h
2824 19-11-2019 16:00:00 5.54167 C 6.53 g/m*3 5.54 C 2.53333 km/h
2825 19-11-2019 17:00:00 4.175 C 6.03 g/m*3 4.18 C 1.33333 km/h
Sensor: Nr:Datum:Temp:Abs-Feuchte:Windchill:Wind:
Aussen-T/F 2826 19-11-2019 18:00:00 3.325 C 5.77 g/m*3 3.33 C 0.26667 km/h
2827 19-11-2019 19:00:00 2.74167 C 5.56 g/m*3 2.74 C 0.13333 km/h
2828 19-11-2019 20:00:00 2.3 C 5.45 g/m*3 2.3 C 0.4 km/h
2829 19-11-2019 21:00:00 2.80833 C 5.67 g/m*3 2.81 C 2.14167 km/h
2830 19-11-2019 22:00:00 2.45 C 5.51 g/m*3 2.45 C 0.4 km/h
2831 19-11-2019 23:00:00 1.10833 C 5.02 g/m*3 1.11 C 0 km/h
2832 20-11-2019 00:00:00 0.60833 C 4.85 g/m*3 0.61 C 0.13333 km/h
2833 20-11-2019 01:00:00 0.23333 C 4.73 g/m*3 0.23 C 0 km/h
2834 20-11-2019 02:00:00 0.35833 C 4.82 g/m*3 0.36 C 0 km/h
2835 20-11-2019 03:00:00 0.55833 C 4.88 g/m*3 0.56 C 2.14167 km/h
2836 20-11-2019 04:00:00 0.39167 C 4.83 g/m*3 0.39 C 2.80833 km/h
2837 20-11-2019 05:00:00 0.675 C 4.92 g/m*3 0.68 C 2.66667 km/h
2838 20-11-2019 06:00:00 0.75833 C 4.95 g/m*3 0.76 C 0.13333 km/h
2839 20-11-2019 07:00:00 1.01667 C 5.04 g/m*3 1.02 C 0.26667 km/h
2840 20-11-2019 08:00:00 1.275 C 5.15 g/m*3 1.27 C 0 km/h
2841 20-11-2019 09:00:00 1.85 C 5.39 g/m*3 1.85 C 0.26667 km/h
2842 20-11-2019 10:00:00 2.61667 C 5.68 g/m*3 2.62 C 0.26667 km/h
2843 20-11-2019 11:00:00 3.025 C 5.82 g/m*3 3.03 C 1.46667 km/h
2844 20-11-2019 12:00:00 4.16667 C 6.22 g/m*3 4.17 C 4.54167 km/h
2845 20-11-2019 13:00:00 4.9 C 6.09 g/m*3 2.97 C 8.19167 km/h
2846 20-11-2019 14:00:00 5.275 C 5.97 g/m*3 5.28 C 4.15 km/h
2847 20-11-2019 15:00:00 5.225 C 5.87 g/m*3 5.23 C 1.33333 km/h
2848 20-11-2019 16:00:00 3.54167 C 5.45 g/m*3 3.54 C 0.26667 km/h
2849 20-11-2019 17:00:00 2.34167 C 5.25 g/m*3 2.34 C 0 km/h
2850 20-11-2019 18:00:00 1.31667 C 4.96 g/m*3 1.32 C 0.13333 km/h
Sensor: Nr:Datum:Temp:Abs-Feuchte:Windchill:Wind:
Aussen-T/F 2851 20-11-2019 19:00:00 0.4 C 4.7 g/m*3 0.4 C 0 km/h
2852 20-11-2019 20:00:00 -0.19167 C 4.54 g/m*3 -0.19 C 0 km/h
2853 20-11-2019 21:00:00 -0.59167 C 4.45 g/m*3 -0.59 C 0 km/h
2854 20-11-2019 22:00:00 -0.85 C 4.39 g/m*3 -0.85 C 0.26667 km/h
2855 20-11-2019 23:00:00 -0.6 C 4.47 g/m*3 -0.6 C 0 km/h
2856 21-11-2019 00:00:00 -0.6 C 4.48 g/m*3 -0.6 C 0 km/h
2857 21-11-2019 01:00:00 -1.19167 C 4.28 g/m*3 -1.19 C 0 km/h
2858 21-11-2019 02:00:00 -1.4 C 4.22 g/m*3 -1.4 C 0 km/h
2859 21-11-2019 03:00:00 -1.23333 C 4.31 g/m*3 -1.23 C 0 km/h
2860 21-11-2019 04:00:00 -0.40833 C 4.57 g/m*3 -0.41 C 0 km/h
2861 21-11-2019 05:00:00 0.16667 C 4.75 g/m*3 0.17 C 0 km/h
2862 21-11-2019 06:00:00 0.65 C 4.92 g/m*3 0.65 C 0.13333 km/h
2863 21-11-2019 07:00:00 0.775 C 4.96 g/m*3 0.78 C 0 km/h
2864 21-11-2019 08:00:00 0.85 C 4.98 g/m*3 0.85 C 0.4 km/h
2865 21-11-2019 09:00:00 1.225 C 5.11 g/m*3 1.23 C 0.26667 km/h
2866 21-11-2019 10:00:00 1.775 C 5.31 g/m*3 1.78 C 0 km/h
2867 21-11-2019 11:00:00 2.53333 C 5.59 g/m*3 2.53 C 0.53333 km/h
2868 21-11-2019 12:00:00 2.925 C 5.68 g/m*3 2.93 C 1.6 km/h
2869 21-11-2019 13:00:00 3.6 C 5.92 g/m*3 3.6 C 1.6 km/h
2870 21-11-2019 14:00:00 4.33333 C 6.13 g/m*3 4.33 C 0.53333 km/h
2871 21-11-2019 15:00:00 4.78333 C 6.29 g/m*3 4.78 C 0 km/h
2872 21-11-2019 16:00:00 4.975 C 6.38 g/m*3 4.97 C 0 km/h
2873 21-11-2019 17:00:00 4.48333 C 6.23 g/m*3 4.48 C 0 km/h
2874 21-11-2019 18:00:00 4.18333 C 6.12 g/m*3 4.18 C 0 km/h
2875 21-11-2019 19:00:00 3.975 C 6.06 g/m*3 3.98 C 0 km/h
Sensor: Nr:Datum:Temp:Abs-Feuchte:Windchill:Wind:
Aussen-T/F 2876 21-11-2019 20:00:00 3.10833 C 5.7 g/m*3 3.11 C 0.4 km/h
2877 21-11-2019 21:00:00 2.35 C 5.46 g/m*3 2.35 C 0.4 km/h
2878 21-11-2019 22:00:00 1.89167 C 5.3 g/m*3 1.89 C 0.13333 km/h
2879 21-11-2019 23:00:00 2.05 C 5.41 g/m*3 2.05 C 0.13333 km/h
2880 22-11-2019 00:00:00 2.24167 C 5.48 g/m*3 2.24 C 0.13333 km/h
2881 22-11-2019 01:00:00 2 C 5.39 g/m*3 2 C 0.13333 km/h
2882 22-11-2019 02:00:00 1.6 C 5.24 g/m*3 1.6 C 0.26667 km/h
2883 22-11-2019 03:00:00 1.725 C 5.29 g/m*3 1.73 C 0.13333 km/h
2884 22-11-2019 04:00:00 2.11667 C 5.43 g/m*3 2.12 C 0 km/h
2885 22-11-2019 05:00:00 2.69167 C 5.68 g/m*3 2.69 C 0.13333 km/h
2886 22-11-2019 06:00:00 3.55833 C 6.05 g/m*3 3.56 C 0 km/h
2887 22-11-2019 07:00:00 3.99167 C 6.23 g/m*3 3.99 C 0.13333 km/h
2888 22-11-2019 08:00:00 4.55833 C 6.47 g/m*3 4.56 C 3.06667 km/h
2889 22-11-2019 09:00:00 4.65833 C 6.48 g/m*3 4.66 C 3.88333 km/h
2890 22-11-2019 10:00:00 4.50833 C 6.39 g/m*3 4.51 C 2.26667 km/h
2891 22-11-2019 11:00:00 5.18333 C 6.68 g/m*3 5.18 C 4.93333 km/h
2892 22-11-2019 12:00:00 5.7 C 6.86 g/m*3 4.39 C 6.45 km/h
2893 22-11-2019 13:00:00 5.88333 C 6.79 g/m*3 4.82 C 5.75 km/h
2894 22-11-2019 14:00:00 6.06667 C 6.78 g/m*3 4.41 C 7.91667 km/h
2895 22-11-2019 15:00:00 6.16667 C 6.75 g/m*3 6.17 C 4.00833 km/h
2896 22-11-2019 16:00:00 5.90833 C 6.66 g/m*3 5.91 C 1.73333 km/h
2897 22-11-2019 17:00:00 5.73333 C 6.66 g/m*3 5.73 C 1.46667 km/h
2898 22-11-2019 18:00:00 5.63333 C 6.64 g/m*3 5.63 C 1.46667 km/h
2899 22-11-2019 19:00:00 5.49167 C 6.55 g/m*3 5.49 C 2.26667 km/h
2900 22-11-2019 20:00:00 5.275 C 6.43 g/m*3 5.28 C 3.48333 km/h
Sensor: Nr:Datum:Temp:Abs-Feuchte:Windchill:Wind:
Aussen-T/F 2901 22-11-2019 21:00:00 5.08333 C 6.35 g/m*3 5.08 C 1.33333 km/h
2902 22-11-2019 22:00:00 4.88333 C 6.25 g/m*3 4.88 C 2.26667 km/h
2903 22-11-2019 23:00:00 4.725 C 6.16 g/m*3 4.72 C 2.13333 km/h
2904 23-11-2019 00:00:00 4.725 C 6.16 g/m*3 4.72 C 2.53333 km/h
2905 23-11-2019 01:00:00 4.83333 C 6.15 g/m*3 4.83 C 3.88333 km/h
2906 23-11-2019 02:00:00 4.775 C 6.13 g/m*3 4.78 C 1.06667 km/h
2907 23-11-2019 03:00:00 4.425 C 6.08 g/m*3 4.43 C 1.86667 km/h
2908 23-11-2019 04:00:00 4 C 5.96 g/m*3 4 C 0.26667 km/h
2909 23-11-2019 05:00:00 3.69167 C 5.9 g/m*3 3.69 C 0.8 km/h
2910 23-11-2019 06:00:00 3.68333 C 5.94 g/m*3 3.68 C 0.4 km/h
2911 23-11-2019 07:00:00 3.94167 C 6.08 g/m*3 3.94 C 0.53333 km/h
2912 23-11-2019 08:00:00 4.15 C 6.17 g/m*3 4.15 C 1.60833 km/h
2913 23-11-2019 09:00:00 5.00833 C 6.52 g/m*3 5.01 C 1.86667 km/h
2914 23-11-2019 10:00:00 6.15833 C 6.75 g/m*3 6.16 C 3.74167 km/h
2915 23-11-2019 11:00:00 7.225 C 6.91 g/m*3 7.23 C 4.14167 km/h
2916 23-11-2019 12:00:00 7.35833 C 7.14 g/m*3 7.36 C 1.33333 km/h
2917 23-11-2019 13:00:00 7.65 C 7.27 g/m*3 7.65 C 2 km/h
2918 23-11-2019 14:00:00 7.53333 C 7.39 g/m*3 7.53 C 2.53333 km/h
2919 23-11-2019 15:00:00 8.36667 C 7.53 g/m*3 7.83 C 5.225 km/h
2920 23-11-2019 16:00:00 7.625 C 7.15 g/m*3 7.63 C 2.275 km/h
2921 23-11-2019 17:00:00 6.25833 C 6.81 g/m*3 6.26 C 2.53333 km/h
2922 23-11-2019 18:00:00 5.76667 C 6.7 g/m*3 5.77 C 0.8 km/h
2923 23-11-2019 19:00:00 5.56667 C 6.69 g/m*3 5.57 C 1.46667 km/h
2924 23-11-2019 20:00:00 5.00833 C 6.46 g/m*3 5.01 C 0.26667 km/h
2925 23-11-2019 21:00:00 4.41667 C 6.22 g/m*3 4.42 C 0.13333 km/h
Sensor: Nr:Datum:Temp:Abs-Feuchte:Windchill:Wind:
Aussen-T/F 2926 23-11-2019 22:00:00 3.85833 C 6.04 g/m*3 3.86 C 0.4 km/h
2927 23-11-2019 23:00:00 3.28333 C 5.82 g/m*3 3.28 C 0.13333 km/h
2928 24-11-2019 00:00:00 2.8 C 5.63 g/m*3 2.8 C 0.13333 km/h
2929 24-11-2019 01:00:00 2.38333 C 5.49 g/m*3 2.38 C 0 km/h
2930 24-11-2019 02:00:00 2.16667 C 5.45 g/m*3 2.17 C 0 km/h
2931 24-11-2019 03:00:00 2.1 C 5.43 g/m*3 2.1 C 0 km/h
2932 24-11-2019 04:00:00 1.7 C 5.28 g/m*3 1.7 C 0 km/h
2933 24-11-2019 05:00:00 1.825 C 5.33 g/m*3 1.83 C 0.26667 km/h
2934 24-11-2019 06:00:00 1.48333 C 5.2 g/m*3 1.48 C 0 km/h
2935 24-11-2019 07:00:00 1.14167 C 5.08 g/m*3 1.14 C 0.13333 km/h
2936 24-11-2019 08:00:00 1.15 C 5.09 g/m*3 1.15 C 0 km/h
2937 24-11-2019 09:00:00 1.525 C 5.23 g/m*3 1.53 C 0.26667 km/h
2938 24-11-2019 10:00:00 2.25833 C 5.54 g/m*3 2.26 C 0.53333 km/h
2939 24-11-2019 11:00:00 3.01667 C 5.83 g/m*3 3.02 C 0.13333 km/h
2940 24-11-2019 12:00:00 3.81667 C 6.15 g/m*3 3.82 C 0 km/h
2941 24-11-2019 13:00:00 4.81667 C 6.58 g/m*3 4.82 C 0 km/h
2942 24-11-2019 14:00:00 5.39167 C 6.83 g/m*3 5.39 C 0 km/h
2943 24-11-2019 15:00:00 5.39167 C 6.83 g/m*3 5.39 C 0 km/h
2944 24-11-2019 16:00:00 4.71667 C 6.47 g/m*3 4.72 C 0 km/h
2945 24-11-2019 17:00:00 3.95 C 6.15 g/m*3 3.95 C 0 km/h
2946 24-11-2019 18:00:00 3.625 C 6.01 g/m*3 3.63 C 0 km/h
2947 24-11-2019 19:00:00 3.55 C 5.98 g/m*3 3.55 C 0 km/h
2948 24-11-2019 20:00:00 3.21667 C 5.85 g/m*3 3.22 C 0 km/h
2949 24-11-2019 21:00:00 3 C 5.77 g/m*3 3 C 0 km/h
2950 24-11-2019 22:00:00 2.48333 C 5.57 g/m*3 2.48 C 0 km/h
Sensor: Nr:Datum:Temp:Abs-Feuchte:Windchill:Wind:
Aussen-T/F 2951 24-11-2019 23:00:00 2.11667 C 5.44 g/m*3 2.12 C 0 km/h
2952 25-11-2019 00:00:00 2.06667 C 5.43 g/m*3 2.07 C 0 km/h
2953 25-11-2019 01:00:00 2.41667 C 5.6 g/m*3 2.42 C 0 km/h
2954 25-11-2019 02:00:00 2.26667 C 5.54 g/m*3 2.27 C 0 km/h
2955 25-11-2019 03:00:00 2.40833 C 5.6 g/m*3 2.41 C 0 km/h
2956 25-11-2019 04:00:00 2.7 C 5.71 g/m*3 2.7 C 0 km/h
2957 25-11-2019 05:00:00 3.06667 C 5.85 g/m*3 3.07 C 0 km/h
2958 25-11-2019 06:00:00 3.31667 C 5.95 g/m*3 3.32 C 0 km/h
2959 25-11-2019 07:00:00 3.575 C 6.06 g/m*3 3.58 C 0 km/h
2960 25-11-2019 08:00:00 3.80833 C 6.15 g/m*3 3.81 C 0 km/h
2961 25-11-2019 09:00:00 4.26667 C 6.34 g/m*3 4.27 C 0 km/h
2962 25-11-2019 10:00:00 4.73333 C 6.54 g/m*3 4.73 C 0 km/h
2963 25-11-2019 11:00:00 5.41667 C 6.85 g/m*3 5.42 C 0.13333 km/h
2964 25-11-2019 12:00:00 6.05 C 7.13 g/m*3 6.05 C 0.13333 km/h
2965 25-11-2019 13:00:00 6.675 C 7.35 g/m*3 6.68 C 0 km/h
2966 25-11-2019 14:00:00 7.08333 C 7.48 g/m*3 7.08 C 0.26667 km/h
2967 25-11-2019 15:00:00 7.225 C 7.48 g/m*3 7.23 C 0 km/h
2968 25-11-2019 16:00:00 7.15833 C 7.49 g/m*3 7.16 C 0 km/h
2969 25-11-2019 17:00:00 6.8 C 7.34 g/m*3 6.8 C 0 km/h
2970 25-11-2019 18:00:00 6.68333 C 7.29 g/m*3 6.68 C 0 km/h
2971 25-11-2019 19:00:00 6.19167 C 7.06 g/m*3 6.19 C 0 km/h
2972 25-11-2019 20:00:00 6.125 C 7.1 g/m*3 6.13 C 0.13333 km/h
2973 25-11-2019 21:00:00 5.86667 C 6.94 g/m*3 5.87 C 0 km/h
2974 25-11-2019 22:00:00 5.21667 C 6.63 g/m*3 5.22 C 0 km/h
2975 25-11-2019 23:00:00 4.28333 C 6.22 g/m*3 4.28 C 0 km/h
Sensor: Nr:Datum:Temp:Abs-Feuchte:Windchill:Wind:
Aussen-T/F 2976 26-11-2019 00:00:00 3.66667 C 6.02 g/m*3 3.67 C 0 km/h
2977 26-11-2019 01:00:00 4.225 C 6.26 g/m*3 4.22 C 0 km/h
2978 26-11-2019 02:00:00 4.71667 C 6.5 g/m*3 4.72 C 0.13333 km/h
2979 26-11-2019 03:00:00 5.25833 C 6.76 g/m*3 5.26 C 0.13333 km/h
2980 26-11-2019 04:00:00 5.88333 C 7.06 g/m*3 5.88 C 0 km/h
2981 26-11-2019 05:00:00 6.50833 C 7.35 g/m*3 6.51 C 0 km/h
2982 26-11-2019 06:00:00 6.75833 C 7.47 g/m*3 6.76 C 0.4 km/h
2983 26-11-2019 07:00:00 7.25 C 7.72 g/m*3 7.25 C 0.26667 km/h
2984 26-11-2019 08:00:00 7.45833 C 7.82 g/m*3 7.46 C 1.2 km/h
2985 26-11-2019 09:00:00 8.05833 C 8.13 g/m*3 8.06 C 2.66667 km/h
2986 26-11-2019 10:00:00 9.175 C 8.62 g/m*3 9.18 C 1.73333 km/h
2987 26-11-2019 11:00:00 10.38333 C 8.91 g/m*3 10.38 C 3.61667 km/h
2988 26-11-2019 12:00:00 10.98333 C 9.07 g/m*3 10.98 C 1.2 km/h
2989 26-11-2019 13:00:00 11.175 C 9.13 g/m*3 11.18 C 1.875 km/h
2990 26-11-2019 14:00:00 11.10833 C 9.19 g/m*3 11.11 C 0.66667 km/h
2991 26-11-2019 15:00:00 11.24167 C 9.17 g/m*3 11.24 C 1.2 km/h
2992 26-11-2019 16:00:00 10.69167 C 8.97 g/m*3 10.69 C 0.53333 km/h
2993 26-11-2019 17:00:00 10.01667 C 8.69 g/m*3 10.02 C 0.13333 km/h
2994 26-11-2019 18:00:00 9.73333 C 8.67 g/m*3 9.73 C 2 km/h
2995 26-11-2019 19:00:00 10.16667 C 8.78 g/m*3 10.17 C 2.93333 km/h
2996 26-11-2019 20:00:00 9.75 C 8.48 g/m*3 9.75 C 0.53333 km/h
2997 26-11-2019 21:00:00 9.15 C 8.43 g/m*3 9.15 C 0 km/h
2998 26-11-2019 22:00:00 9.225 C 8.43 g/m*3 9.23 C 0.4 km/h
2999 26-11-2019 23:00:00 8.66667 C 8.19 g/m*3 8.67 C 0.13333 km/h
3000 27-11-2019 00:00:00 8.46667 C 8.14 g/m*3 8.47 C 0.53333 km/h
Sensor: Nr:Datum:Temp:Abs-Feuchte:Windchill:Wind:
Aussen-T/F 3001 27-11-2019 01:00:00 8.38333 C 8.12 g/m*3 8.38 C 0.4 km/h
3002 27-11-2019 02:00:00 8.73333 C 8.36 g/m*3 8.73 C 0 km/h
3003 27-11-2019 03:00:00 8.21667 C 8.06 g/m*3 8.22 C 0 km/h
3004 27-11-2019 04:00:00 8.25833 C 8.15 g/m*3 8.26 C 3.06667 km/h
3005 27-11-2019 05:00:00 8.39167 C 8.15 g/m*3 7.82 C 5.34167 km/h
3006 27-11-2019 06:00:00 8.64167 C 8.21 g/m*3 8.64 C 1.46667 km/h
3007 27-11-2019 07:00:00 8.725 C 8.28 g/m*3 8.73 C 3.74167 km/h
3008 27-11-2019 08:00:00 9.13333 C 8.45 g/m*3 9.13 C 2.66667 km/h
3009 27-11-2019 09:00:00 9.60833 C 8.71 g/m*3 9.61 C 1.33333 km/h
3010 27-11-2019 10:00:00 10.00833 C 8.91 g/m*3 10.01 C 2.40833 km/h
3011 27-11-2019 11:00:00 11.66667 C 8.92 g/m*3 11.67 C 6.15833 km/h
3012 27-11-2019 12:00:00 12.65 C 8.78 g/m*3 12.65 C 12.625 km/h
3013 27-11-2019 13:00:00 12.775 C 8.66 g/m*3 12.78 C 10.61667 km/h
3014 27-11-2019 14:00:00 12.96667 C 8.63 g/m*3 12.97 C 7.375 km/h
3015 27-11-2019 15:00:00 12.8 C 8.56 g/m*3 12.8 C 12.21667 km/h
3016 27-11-2019 16:00:00 11.73333 C 8.77 g/m*3 11.73 C 4.95 km/h
3017 27-11-2019 17:00:00 10.73333 C 8.89 g/m*3 10.73 C 4.275 km/h
3018 27-11-2019 18:00:00 10.70833 C 8.97 g/m*3 10.49 C 5.225 km/h
3019 27-11-2019 19:00:00 10.75 C 9.05 g/m*3 9.96 C 7.65 km/h
3020 27-11-2019 20:00:00 11.26667 C 8.94 g/m*3 11.27 C 8.99167 km/h
3021 27-11-2019 21:00:00 10.76667 C 9.02 g/m*3 9.7 C 9.125 km/h
3022 27-11-2019 22:00:00 11.29167 C 8.86 g/m*3 11.29 C 16.375 km/h
3023 27-11-2019 23:00:00 11.6 C 8.61 g/m*3 11.6 C 17.175 km/h
3024 28-11-2019 00:00:00 11.575 C 8.47 g/m*3 11.58 C 19.7 km/h
3025 28-11-2019 01:00:00 11.61667 C 8.43 g/m*3 11.62 C 23.46667 km/h
Sensor: Nr:Datum:Temp:Abs-Feuchte:Windchill:Wind:
Aussen-T/F 3026 28-11-2019 02:00:00 11.20833 C 8.36 g/m*3 11.21 C 21.19167 km/h
3027 28-11-2019 03:00:00 11.05 C 8.04 g/m*3 11.05 C 19.70833 km/h
3028 28-11-2019 04:00:00 10.96667 C 7.93 g/m*3 8.7 C 18.9 km/h
3029 28-11-2019 05:00:00 10.66667 C 7.96 g/m*3 8.31 C 19.04167 km/h
3030 28-11-2019 06:00:00 10.66667 C 8.14 g/m*3 8.57 C 16.5 km/h
3031 28-11-2019 07:00:00 10.60833 C 7.98 g/m*3 8.38 C 17.56667 km/h
3032 28-11-2019 08:00:00 10.58333 C 7.94 g/m*3 8.28 C 18.24167 km/h
3033 28-11-2019 09:00:00 11.025 C 8.03 g/m*3 11.03 C 16.23333 km/h
3034 28-11-2019 10:00:00 11.58333 C 8.06 g/m*3 11.58 C 17.7 km/h
3035 28-11-2019 11:00:00 11.95833 C 8.23 g/m*3 11.96 C 20.76667 km/h
3036 28-11-2019 12:00:00 11.49167 C 8.53 g/m*3 11.49 C 19.16667 km/h
3037 28-11-2019 13:00:00 11.7 C 8.66 g/m*3 11.7 C 17.7 km/h
3038 28-11-2019 14:00:00 11.45 C 8.57 g/m*3 11.45 C 15.03333 km/h
3039 28-11-2019 15:00:00 11.16667 C 8.46 g/m*3 11.17 C 15.03333 km/h
3040 28-11-2019 16:00:00 10.83333 C 8.42 g/m*3 8.89 C 15.44167 km/h
3041 28-11-2019 17:00:00 10.41667 C 8.55 g/m*3 8.64 C 13.3 km/h
3042 28-11-2019 18:00:00 10.43333 C 8.46 g/m*3 8.56 C 14.1 km/h
3043 28-11-2019 19:00:00 10.41667 C 8.44 g/m*3 8.92 C 11.29167 km/h
3044 28-11-2019 20:00:00 10.31667 C 8.51 g/m*3 8.84 C 11.03333 km/h
3045 28-11-2019 21:00:00 10.33333 C 8.49 g/m*3 8.69 C 12.23333 km/h
3046 28-11-2019 22:00:00 10.19167 C 8.54 g/m*3 8.63 C 11.425 km/h
3047 28-11-2019 23:00:00 10.00833 C 8.53 g/m*3 9.12 C 7.50833 km/h
3048 29-11-2019 00:00:00 9.44167 C 8.49 g/m*3 8.86 C 5.89167 km/h
3049 29-11-2019 01:00:00 9.05 C 8.36 g/m*3 9.05 C 2.93333 km/h
3050 29-11-2019 02:00:00 8.825 C 8.3 g/m*3 8.82 C 0 km/h
Sensor: Nr:Datum:Temp:Abs-Feuchte:Windchill:Wind:
Aussen-T/F 3051 29-11-2019 03:00:00 8.58333 C 8.23 g/m*3 8.58 C 0.26667 km/h
3052 29-11-2019 04:00:00 8.21667 C 8.04 g/m*3 8.22 C 2.15 km/h
3053 29-11-2019 05:00:00 7.15 C 7.34 g/m*3 7.15 C 4.55 km/h
3054 29-11-2019 06:00:00 6.79167 C 7.26 g/m*3 6.79 C 2.80833 km/h
3055 29-11-2019 07:00:00 6.38333 C 7.01 g/m*3 6.38 C 2.00833 km/h
3056 29-11-2019 08:00:00 5.95833 C 6.88 g/m*3 5.96 C 0.4 km/h
3057 29-11-2019 09:00:00 5.525 C 6.68 g/m*3 5.53 C 1.73333 km/h
3058 29-11-2019 10:00:00 5.73333 C 6.69 g/m*3 5.73 C 3.06667 km/h
3059 29-11-2019 11:00:00 6.45833 C 6.76 g/m*3 6.46 C 4.00833 km/h
3060 29-11-2019 12:00:00 7.34167 C 6.65 g/m*3 5.26 C 11.01667 km/h
3061 29-11-2019 13:00:00 6.99167 C 6.45 g/m*3 6 C 6.04167 km/h
3062 29-11-2019 14:00:00 7.49167 C 6.11 g/m*3 6.08 C 7.925 km/h
3063 29-11-2019 15:00:00 7.675 C 5.92 g/m*3 5.94 C 9.55 km/h
3064 29-11-2019 16:00:00 6.63333 C 5.89 g/m*3 6.63 C 4.00833 km/h
3065 29-11-2019 17:00:00 4.95833 C 5.73 g/m*3 4.96 C 3.33333 km/h
3066 29-11-2019 18:00:00 4.88333 C 5.86 g/m*3 4.88 C 1.46667 km/h
3067 29-11-2019 19:00:00 5.13333 C 5.83 g/m*3 5.13 C 2.53333 km/h
3068 29-11-2019 20:00:00 4.80833 C 5.8 g/m*3 4.81 C 3.46667 km/h
3069 29-11-2019 21:00:00 4.55833 C 5.8 g/m*3 4.56 C 2.8 km/h
3070 29-11-2019 22:00:00 3.55 C 5.55 g/m*3 3.55 C 0.93333 km/h
3071 29-11-2019 23:00:00 2.56667 C 5.34 g/m*3 2.57 C 1.2 km/h
3072 30-11-2019 00:00:00 2.60833 C 5.44 g/m*3 2.61 C 1.33333 km/h
3073 30-11-2019 01:00:00 1.975 C 5.21 g/m*3 1.98 C 0.66667 km/h
3074 30-11-2019 02:00:00 1.725 C 5.18 g/m*3 1.73 C 0.4 km/h
3075 30-11-2019 03:00:00 1.51667 C 5.11 g/m*3 1.52 C 0.93333 km/h
Sensor: Nr:Datum:Temp:Abs-Feuchte:Windchill:Wind:
Aussen-T/F 3076 30-11-2019 04:00:00 1.93333 C 5.29 g/m*3 1.93 C 2.93333 km/h
3077 30-11-2019 05:00:00 1.35 C 5.05 g/m*3 1.35 C 0.93333 km/h
3078 30-11-2019 06:00:00 0.18333 C 4.66 g/m*3 0.18 C 0.13333 km/h
3079 30-11-2019 07:00:00 -0.19167 C 4.57 g/m*3 -0.19 C 0.26667 km/h
3080 30-11-2019 08:00:00 0.14167 C 4.7 g/m*3 0.14 C 0 km/h
3081 30-11-2019 09:00:00 0.18333 C 4.71 g/m*3 0.18 C 0.53333 km/h
3082 30-11-2019 10:00:00 0.55 C 4.88 g/m*3 0.55 C 1.6 km/h
3083 30-11-2019 11:00:00 0.89167 C 5 g/m*3 0.89 C 2.26667 km/h
3084 30-11-2019 12:00:00 1.35 C 5.16 g/m*3 1.35 C 0.66667 km/h
3085 30-11-2019 13:00:00 2.11667 C 5.43 g/m*3 2.12 C 0.93333 km/h
3086 30-11-2019 14:00:00 2.26667 C 5.49 g/m*3 2.27 C 2.13333 km/h
3087 30-11-2019 15:00:00 2.19167 C 5.46 g/m*3 2.19 C 1.2 km/h
3088 30-11-2019 16:00:00 1.99167 C 5.39 g/m*3 1.99 C 0 km/h
3089 30-11-2019 17:00:00 1.525 C 5.22 g/m*3 1.53 C 0 km/h
3090 30-11-2019 18:00:00 1.05833 C 5.05 g/m*3 1.06 C 0 km/h
3091 30-11-2019 19:00:00 0.79167 C 4.96 g/m*3 0.79 C 0 km/h
3092 30-11-2019 20:00:00 0.65 C 4.92 g/m*3 0.65 C 0 km/h
3093 30-11-2019 21:00:00 0.58333 C 4.89 g/m*3 0.58 C 0.26667 km/h
3094 30-11-2019 22:00:00 0.66667 C 4.92 g/m*3 0.67 C 0.53333 km/h
3095 30-11-2019 23:00:00 0.63333 C 4.91 g/m*3 0.63 C 1.2 km/h
3096 01-12-2019 00:00:00 0.6 C 4.91 g/m*3 0.6 C 0.26667 km/h
3097 01-12-2019 01:00:00 0.75833 C 5 g/m*3 0.76 C 0.26667 km/h
3098 01-12-2019 02:00:00 0.63333 C 4.95 g/m*3 0.63 C 0.53333 km/h
3099 01-12-2019 03:00:00 0.5 C 4.86 g/m*3 0.5 C 0.93333 km/h
3100 01-12-2019 04:00:00 0.10833 C 4.76 g/m*3 0.11 C 0 km/h
Sensor: Nr:Datum:Temp:Abs-Feuchte:Windchill:Wind:
Aussen-T/F 3101 01-12-2019 05:00:00 0.1 C 4.78 g/m*3 0.1 C 0.13333 km/h
3102 01-12-2019 06:00:00 -0.025 C 4.71 g/m*3 -0.03 C 0.4 km/h
3103 01-12-2019 07:00:00 0.35 C 4.86 g/m*3 0.35 C 2.53333 km/h
3104 01-12-2019 08:00:00 0.70833 C 4.99 g/m*3 0.71 C 1.06667 km/h
3105 01-12-2019 09:00:00 0.84167 C 5.03 g/m*3 0.84 C 0.26667 km/h
3106 01-12-2019 10:00:00 1.275 C 5.18 g/m*3 1.27 C 0.13333 km/h
3107 01-12-2019 11:00:00 2.1 C 5.48 g/m*3 2.1 C 3.075 km/h
3108 01-12-2019 12:00:00 2.975 C 5.48 g/m*3 1.69 C 5.23333 km/h
3109 01-12-2019 13:00:00 3.75833 C 5.24 g/m*3 3.76 C 2.13333 km/h
3110 01-12-2019 14:00:00 4.20833 C 5.11 g/m*3 4.21 C 0.93333 km/h
3111 01-12-2019 15:00:00 3.98333 C 5.33 g/m*3 3.98 C 0 km/h
3112 01-12-2019 16:00:00 3.16667 C 5.21 g/m*3 3.17 C 0 km/h
3113 01-12-2019 17:00:00 2.81667 C 5.2 g/m*3 2.82 C 0 km/h
3114 01-12-2019 18:00:00 2.8 C 5.19 g/m*3 2.8 C 0 km/h
3115 01-12-2019 19:00:00 2.86667 C 5.2 g/m*3 2.87 C 0 km/h
3116 01-12-2019 20:00:00 2.725 C 5.14 g/m*3 2.73 C 0 km/h
3117 01-12-2019 21:00:00 2.45 C 5.06 g/m*3 2.45 C 0.13333 km/h
3118 01-12-2019 22:00:00 1.99167 C 4.95 g/m*3 1.99 C 0 km/h
3119 01-12-2019 23:00:00 1.33333 C 4.8 g/m*3 1.33 C 0.26667 km/h
3120 02-12-2019 00:00:00 0.775 C 4.7 g/m*3 0.78 C 0.66667 km/h
3121 02-12-2019 01:00:00 0.63333 C 4.71 g/m*3 0.63 C 0.4 km/h
3122 02-12-2019 02:00:00 0.09167 C 4.53 g/m*3 0.09 C 1.6 km/h
3123 02-12-2019 03:00:00 -0.36667 C 4.41 g/m*3 -0.37 C 2.13333 km/h
3124 02-12-2019 04:00:00 -0.44167 C 4.44 g/m*3 -0.44 C 0.53333 km/h
3125 02-12-2019 05:00:00 -0.35 C 4.48 g/m*3 -0.35 C 0.26667 km/h
Sensor: Nr:Datum:Temp:Abs-Feuchte:Windchill:Wind:
Aussen-T/F 3126 02-12-2019 06:00:00 -0.6 C 4.42 g/m*3 -0.6 C 1.06667 km/h
3127 02-12-2019 07:00:00 -1.15833 C 4.24 g/m*3 -1.16 C 0.26667 km/h
3128 02-12-2019 08:00:00 -0.65 C 4.43 g/m*3 -0.65 C 1.06667 km/h
3129 02-12-2019 09:00:00 0.26667 C 4.71 g/m*3 0.27 C 4.26667 km/h
3130 02-12-2019 10:00:00 0.85 C 4.84 g/m*3 -0.66 C 5.08333 km/h
3131 02-12-2019 11:00:00 1.58333 C 4.99 g/m*3 1.58 C 4.41667 km/h
3132 02-12-2019 12:00:00 2.78333 C 5.31 g/m*3 2.78 C 4.69167 km/h
3133 02-12-2019 13:00:00 3.95 C 5.54 g/m*3 2.76 C 5.34167 km/h
3134 02-12-2019 14:00:00 4.725 C 5.91 g/m*3 4.72 C 4.55 km/h
3135 02-12-2019 15:00:00 5.19167 C 6.12 g/m*3 5.19 C 1.2 km/h
3136 02-12-2019 16:00:00 4.675 C 6.12 g/m*3 4.68 C 2.8 km/h
3137 02-12-2019 17:00:00 4.20833 C 6 g/m*3 4.21 C 1.6 km/h
3138 02-12-2019 18:00:00 3.875 C 5.88 g/m*3 3.88 C 0.53333 km/h
3139 02-12-2019 19:00:00 3.425 C 5.78 g/m*3 3.43 C 0.93333 km/h
3140 02-12-2019 20:00:00 3.7 C 5.92 g/m*3 3.7 C 1.73333 km/h
3141 02-12-2019 21:00:00 3.63333 C 5.89 g/m*3 3.63 C 4.825 km/h
3142 02-12-2019 22:00:00 3.475 C 5.89 g/m*3 3.48 C